[[{"header":{"parameterUnit":"m.s-1","parameterCategory":1,"la1":30.6,"la2":28.766,"lo1":-90.7593,"lo2":-88.6598,"dx":0.0162,"dy":0.0183,"nx":116,"ny":114,"refTime":"2023-01-01T06:00:00:Z","depth":0,"parameterNumber":2,"parameterNumberName":"U-component_of_WINDS"},"data":[0.0,0.0,0.0,0.0,0.0,0.0,0.0,0.0,0.0,0.0,0.0,0.0,0.0,0.0,0.0,0.0,0.0,0.0,0.0,0.0,0.0,0.0,0.0,0.0,0.0,0.0,0.0,0.0,0.0,0.0,0.0,0.0,0.0,0.0,0.0,0.0,0.0,0.0,0.0,0.0,0.0,0.0,0.0,0.0,0.0,0.0,0.0,0.0,0.0,0.0,0.0,0.0,0.0,0.0,0.0,0.0,0.0,0.0,0.0,0.0,0.0,0.0,0.0,0.0,0.0,0.0,0.0,0.0,0.0,0.0,0.0,0.0,0.0,0.0,0.0,0.0,0.0,0.0,0.0,0.0,0.0,0.0,0.0,0.0,0.0,0.0,0.0,0.0,0.0,0.0,0.0,0.0,0.0,0.0,0.0,0.0,0.0,0.0,0.0,0.0,0.0,0.0,0.0,0.0,0.0,0.0,0.0,0.0,0.0,0.0,0.0,0.0,0.0,0.0,0.0,0.0,0.0,0.0,0.0,0.0,0.0,0.0,0.0,0.0,0.0,0.0,0.0,0.0,0.0,0.0,0.0,0.0,0.0,0.0,0.0,0.0,0.0,0.0,0.0,0.0,0.0,0.0,0.0,0.0,0.0,0.0,0.0,0.0,0.0,0.0,0.0,0.0,0.0,0.0,0.0,0.0,0.0,0.0,0.0,0.0,0.0,0.0,0.0,0.0,0.0,0.0,0.0,0.0,0.0,0.0,0.0,0.0,0.0,0.0,0.0,0.0,0.0,0.0,0.0,0.0,0.0,0.0,0.0,0.0,0.0,0.0,0.0,0.0,0.0,0.0,0.0,0.0,0.0,0.0,0.0,0.0,0.0,0.0,0.0,0.0,0.0,0.0,0.0,0.0,0.0,0.0,0.0,0.0,0.0,0.0,0.0,0.0,0.0,0.0,0.0,0.0,0.0,0.0,0.0,0.0,0.0,0.0,0.0,0.0,0.0,0.0,0.0,0.0,0.0,0.0,0.0,0.0,0.0,0.0,0.0,0.0,0.0,0.0,0.0,0.0,0.0,0.0,0.0,0.0,0.0,0.0,0.0,0.0,0.0,0.0,0.0,0.0,0.0,0.0,0.0,0.0,0.0,0.0,0.0,0.0,0.0,0.0,0.0,0.0,0.0,0.0,0.0,0.0,0.0,0.0,0.0,0.0,0.0,0.0,0.0,0.0,0.0,0.0,0.0,0.0,0.0,0.0,0.0,0.0,0.0,0.0,0.0,0.0,0.0,0.0,0.0,0.0,0.0,0.0,0.0,0.0,0.0,0.0,0.0,0.0,0.0,0.0,0.0,0.0,0.0,0.0,0.0,0.0,0.0,0.0,0.0,0.0,0.0,0.0,0.0,0.0,0.0,0.0,0.0,0.0,0.0,0.0,0.0,0.0,0.0,0.0,0.0,0.0,0.0,0.0,0.0,0.0,0.0,0.0,0.0,0.0,0.0,0.0,0.0,0.0,0.0,0.0,0.0,0.0,0.0,0.0,0.0,0.0,0.0,0.0,0.0,0.0,0.0,0.0,0.0,0.0,0.0,0.0,0.0,0.0,0.0,0.0,0.0,0.0,0.0,0.0,0.0,0.0,0.0,0.0,0.0,0.0,0.0,0.0,0.0,0.0,0.0,0.0,0.0,0.0,0.0,0.0,0.0,0.0,0.0,0.0,0.0,0.0,0.0,0.0,0.0,0.0,0.0,0.0,0.0,0.0,0.0,0.0,0.0,0.0,0.0,0.0,0.0,0.0,0.0,0.0,0.0,0.0,0.0,0.0,0.0,0.0,0.0,0.0,0.0,0.0,0.0,0.0,0.0,0.0,0.0,0.0,0.0,0.0,0.0,0.0,0.0,0.0,0.0,0.0,0.0,0.0,0.0,0.0,0.0,0.0,0.0,0.0,0.0,0.0,0.0,0.0,0.0,0.0,0.0,0.0,0.0,0.0,0.0,0.0,0.0,0.0,0.0,0.0,0.0,0.0,0.0,0.0,0.0,0.0,0.0,0.0,0.0,0.0,0.0,0.0,0.0,0.0,0.0,0.0,0.0,0.0,0.0,0.0,0.0,0.0,0.0,0.0,0.0,0.0,0.0,0.0,0.0,0.0,0.0,0.0,0.0,0.0,0.0,0.0,0.0,0.0,0.0,0.0,0.0,0.0,0.0,0.0,0.0,0.0,0.0,0.0,0.0,0.0,0.0,0.0,0.0,0.0,0.0,0.0,0.0,0.0,0.0,0.0,0.0,0.0,0.0,0.0,0.0,0.0,0.0,0.0,0.0,0.0,0.0,0.0,0.0,0.0,0.0,0.0,0.0,0.0,0.0,0.0,0.0,0.0,0.0,0.0,0.0,0.0,0.0,0.0,0.0,0.0,0.0,0.0,0.0,0.0,0.0,0.0,0.0,0.0,0.0,0.0,0.0,0.0,0.0,0.0,0.0,0.0,0.0,0.0,0.0,0.0,0.0,0.0,0.0,0.0,0.0,0.0,0.0,0.0,0.0,0.0,0.0,0.0,0.0,0.0,0.0,0.0,0.0,0.0,0.0,0.0,0.0,0.0,0.0,0.0,0.0,0.0,0.0,0.0,0.0,0.0,0.0,0.0,0.0,0.0,0.0,0.0,0.0,0.0,0.0,0.0,0.0,0.0,0.0,0.0,0.0,0.0,0.0,0.0,0.0,0.0,0.0,0.0,0.0,0.0,0.0,0.0,0.0,0.0,0.0,0.0,0.0,0.0,0.0,0.0,0.0,0.0,0.0,0.0,0.0,0.0,0.0,0.0,0.0,0.0,0.0,0.0,0.0,0.0,0.0,0.0,0.0,0.0,0.0,0.0,0.0,0.0,0.0,0.0,0.0,0.0,0.0,0.0,0.0,0.0,0.0,0.0,0.0,0.0,0.0,0.0,0.0,0.0,0.0,0.0,0.0,0.0,0.0,0.0,0.0,0.0,0.0,0.0,0.0,0.0,0.0,0.0,0.0,0.0,0.0,0.0,0.0,0.0,0.0,0.0,0.0,0.0,0.0,0.0,0.0,0.0,0.0,0.0,0.0,0.0,0.0,0.0,0.0,0.0,0.0,0.0,0.0,0.0,0.0,0.0,0.0,0.0,0.0,0.0,0.0,0.0,0.0,0.0,0.0,0.0,0.0,0.0,0.0,0.0,0.0,0.0,0.0,0.0,0.0,0.0,0.0,0.0,0.0,0.0,0.0,0.0,0.0,0.0,0.0,0.0,0.0,0.0,0.0,0.0,0.0,0.0,0.0,0.0,0.0,0.0,0.0,0.0,0.0,0.0,0.0,0.0,0.0,0.0,0.0,0.0,0.0,0.0,0.0,0.0,0.0,0.0,0.0,0.0,0.0,0.0,0.0,0.0,0.0,0.0,0.0,0.0,0.0,0.0,0.0,0.0,0.0,0.0,0.0,0.0,0.0,0.0,0.0,0.0,0.0,0.0,0.0,0.0,0.0,0.0,0.0,0.0,0.0,0.0,0.0,0.0,0.0,0.0,0.0,0.0,0.0,0.0,0.0,0.0,0.0,0.0,0.0,0.0,0.0,0.0,0.0,0.0,0.0,0.0,0.0,0.0,0.0,0.0,0.0,0.0,0.0,0.0,0.0,0.0,0.0,0.0,0.0,0.0,0.0,0.0,0.0,0.0,0.0,0.0,0.0,0.0,0.0,0.0,0.0,0.0,0.0,0.0,0.0,0.0,0.0,0.0,0.0,0.0,0.0,0.0,0.0,0.0,0.0,0.0,0.0,0.0,0.0,0.0,0.0,0.0,0.0,0.0,0.0,0.0,0.0,0.0,0.0,0.0,0.0,0.0,0.0,0.0,0.0,0.0,0.0,0.0,0.0,0.0,0.0,0.0,0.0,0.0,0.0,0.0,0.0,0.0,0.0,0.0,0.0,0.0,0.0,0.0,0.0,0.0,0.0,0.0,0.0,0.0,0.0,0.0,0.0,0.0,0.0,0.0,0.0,0.0,0.0,0.0,0.0,0.0,0.0,0.0,0.0,0.0,0.0,0.0,0.0,0.0,0.0,0.0,0.0,0.0,0.0,0.0,0.0,0.0,0.0,0.0,0.0,0.0,0.0,0.0,0.0,0.0,0.0,0.0,0.0,0.0,0.0,0.0,0.0,0.0,0.0,0.0,0.0,0.0,0.0,0.0,0.0,0.0,0.0,0.0,0.0,0.0,0.0,0.0,0.0,0.0,0.0,0.0,0.0,0.0,0.0,0.0,0.0,0.0,0.0,0.0,0.0,0.0,0.0,0.0,0.0,0.0,0.0,0.0,0.0,0.0,0.0,0.0,0.0,0.0,0.0,0.0,0.0,0.0,0.0,0.0,0.0,0.0,0.0,0.0,0.0,0.0,0.0,0.0,0.0,0.0,0.0,0.0,0.0,0.0,0.0,0.0,0.0,0.0,0.0,0.0,0.0,0.0,0.0,0.0,0.0,0.0,0.0,0.0,0.0,0.0,0.0,0.0,0.0,0.0,0.0,0.0,0.0,0.0,0.0,0.0,0.0,0.0,0.0,0.0,0.0,0.0,0.0,0.0,0.0,0.0,0.0,0.0,0.0,0.0,0.0,0.0,0.0,0.0,0.0,0.0,0.0,0.0,0.0,0.0,0.0,0.0,0.0,0.0,0.0,0.0,0.0,0.0,0.0,0.0,0.0,0.0,0.0,0.0,0.0,0.0,0.0,0.0,0.0,0.0,0.0,0.0,0.0,0.0,0.0,0.0,0.0,0.0,0.0,0.0,0.0,0.0,0.0,0.0,0.0,0.0,0.0,0.0,0.0,0.0,0.0,0.0,0.0,0.0,0.0,0.0,0.0,0.0,0.0,0.0,0.0,0.0,0.0,0.0,0.0,0.0,0.0,0.0,0.0,0.0,0.0,0.0,0.0,0.0,0.0,0.0,0.0,0.0,0.0,0.0,0.0,0.0,0.0,0.0,0.0,0.0,0.0,0.0,0.0,0.0,0.0,0.0,0.0,0.0,0.0,0.0,0.0,0.0,0.0,0.0,0.0,0.0,0.0,0.0,0.0,0.0,0.0,0.0,0.0,0.0,0.0,0.0,0.0,0.0,0.0,0.0,0.0,0.0,0.0,0.0,0.0,0.0,0.0,0.0,0.0,0.0,0.0,0.0,0.0,0.0,0.0,0.0,0.0,0.0,0.0,0.0,0.0,0.0,0.0,0.0,0.0,0.0,0.0,0.0,0.0,0.0,0.0,0.0,0.0,0.0,0.0,0.0,0.0,0.0,0.0,0.0,0.0,0.0,0.0,0.0,0.0,0.0,0.0,0.0,0.0,0.0,0.0,0.0,0.0,0.0,0.0,0.0,0.0,0.0,0.0,0.0,0.0,0.0,0.0,0.0,0.0,0.0,0.0,0.0,0.0,0.0,0.0,0.0,0.0,0.0,0.0,0.0,0.0,0.0,0.0,0.0,0.0,0.0,0.0,0.0,0.0,0.0,0.0,0.0,0.0,0.0,0.0,0.0,0.0,0.0,0.0,0.0,0.0,0.0,0.0,0.0,0.0,0.0,0.0,0.0,0.0,0.0,0.0,0.0,0.0,0.0,0.0,0.0,0.0,0.0,0.0,0.0,0.0,0.0,0.0,0.0,0.0,0.0,0.0,0.0,0.0,0.0,0.0,0.0,0.0,0.0,0.0,0.0,0.0,0.0,0.0,0.0,0.0,0.0,0.0,0.0,0.0,0.0,0.0,0.0,0.0,0.0,0.0,0.0,0.0,0.0,0.0,0.0,0.0,0.0,0.0,0.0,0.0,0.0,0.0,0.0,0.0,0.0,0.0,0.0,0.0,0.0,0.0,0.0,0.0,0.0,0.0,0.0,0.0,0.0,0.0,0.0,0.0,0.0,0.0,0.0,0.0,0.0,0.0,0.0,0.0,0.0,0.0,0.0,0.0,0.0,0.0,0.0,0.0,0.0,0.0,0.0,0.0,0.0,0.0,0.0,0.0,0.0,0.0,0.0,0.0,0.0,0.0,0.0,0.0,0.0,0.0,0.0,0.0,0.0,0.0,0.0,0.0,0.0,0.0,0.0,3.0234,2.9277,0.0,0.0,0.0,0.0,0.0,0.0,0.0,0.0,0.0,0.0,0.0,0.0,0.0,0.0,0.0,0.0,0.0,0.0,0.0,0.0,0.0,0.0,0.0,2.3221,2.3566,2.3509,2.3096,0.0,0.0,0.0,0.0,0.0,0.0,0.0,0.0,0.0,2.2091,2.2381,2.3385,2.4341,2.507,2.3639,2.3155,2.3373,0.0,0.0,0.0,0.0,0.0,0.0,0.0,0.0,0.0,0.0,0.0,0.0,0.0,0.0,0.0,0.0,0.0,0.0,0.0,0.0,0.0,0.0,0.0,0.0,0.0,0.0,0.0,0.0,0.0,0.0,0.0,0.0,0.0,0.0,0.0,0.0,0.0,0.0,0.0,0.0,0.0,0.0,0.0,0.0,0.0,0.0,0.0,0.0,0.0,0.0,0.0,0.0,0.0,0.0,0.0,0.0,0.0,0.0,0.0,0.0,0.0,0.0,0.0,0.0,0.0,0.0,0.0,0.0,0.0,0.0,3.144,3.0498,0.0,0.0,0.0,0.0,0.0,0.0,0.0,0.0,0.0,0.0,0.0,0.0,0.0,0.0,0.0,0.0,0.0,0.0,0.0,0.0,0.0,2.2143,2.2921,2.3417,2.3762,2.3748,2.3659,2.3319,2.2703,2.2425,0.0,0.0,0.0,0.0,2.1336,2.2569,2.3572,2.421,2.5666,2.644,2.6651,2.605,2.6117,2.6623,2.4927,0.0,0.0,0.0,0.0,0.0,0.0,0.0,0.0,0.0,0.0,0.0,0.0,0.0,0.0,0.0,0.0,0.0,0.0,0.0,0.0,0.0,0.0,0.0,0.0,0.0,0.0,0.0,0.0,0.0,0.0,0.0,0.0,0.0,0.0,0.0,0.0,0.0,0.0,0.0,0.0,0.0,0.0,0.0,0.0,0.0,0.0,0.0,0.0,0.0,0.0,0.0,0.0,0.0,0.0,0.0,0.0,0.0,0.0,0.0,0.0,0.0,0.0,0.0,3.2972,3.3444,3.3604,3.3851,3.3998,3.3924,3.2747,3.1943,3.1472,3.1918,0.0,0.0,0.0,0.0,0.0,0.0,0.0,0.0,0.0,0.0,0.0,0.0,0.0,0.0,0.0,0.0,0.0,0.0,0.0,2.2969,2.406,2.4238,2.4443,2.4769,2.478,2.4703,2.4471,2.3949,0.0,0.0,0.0,2.3252,2.2656,2.3902,2.4907,2.5546,2.701,2.8023,2.8521,2.8462,2.8785,2.9256,2.6724,2.5487,2.5371,0.0,0.0,0.0,0.0,0.0,0.0,0.0,0.0,0.0,0.0,0.0,0.0,0.0,0.0,0.0,0.0,0.0,0.0,0.0,0.0,0.0,0.0,0.0,0.0,0.0,0.0,0.0,0.0,0.0,0.0,0.0,0.0,0.0,0.0,0.0,0.0,0.0,0.0,0.0,0.0,0.0,3.0011,3.0242,0.0,0.0,0.0,0.0,0.0,0.0,0.0,0.0,0.0,0.0,0.0,0.0,0.0,3.2547,3.2542,3.2896,3.3421,3.4015,3.3891,3.3942,3.3958,3.3949,3.3998,3.3998,3.3594,0.0,3.2843,3.2941,0.0,0.0,0.0,0.0,0.0,0.0,0.0,0.0,0.0,0.0,0.0,0.0,0.0,0.0,0.0,0.0,0.0,0.0,0.0,0.0,0.0,2.5073,2.5248,2.5756,2.5766,2.557,2.5024,2.5404,0.0,0.0,2.482,2.482,2.4559,2.5081,2.609,2.7535,2.8554,2.9195,2.9545,2.9107,2.9051,2.9315,2.8359,2.7345,2.6329,2.6039,0.0,0.0,0.0,0.0,0.0,0.0,0.0,0.0,0.0,0.0,0.0,0.0,0.0,0.0,0.0,0.0,0.0,0.0,0.0,0.0,0.0,0.0,0.0,0.0,0.0,0.0,0.0,0.0,0.0,0.0,0.0,0.0,0.0,0.0,0.0,0.0,0.0,0.0,0.0,3.0498,3.0963,3.1391,3.1997,3.2563,0.0,0.0,0.0,0.0,0.0,0.0,0.0,0.0,0.0,3.3367,3.3079,3.3009,3.3157,3.3293,3.3539,3.372,3.3893,3.3974,3.3999,3.429,3.4435,3.4435,3.434,3.4195,3.4047,3.3942,3.3912,3.4029,0.0,0.0,0.0,0.0,3.5001,3.5051,0.0,0.0,0.0,0.0,0.0,0.0,0.0,0.0,0.0,0.0,0.0,0.0,2.5687,2.5956,2.6206,2.6584,2.6594,2.6396,2.5903,2.6586,2.6828,2.6403,2.6323,2.6213,2.6039,2.6358,2.7283,2.8876,2.9462,2.9929,3.022,2.9636,2.9521,2.9842,3.0046,2.9145,2.749,2.7345,2.6707,2.5778,0.0,0.0,0.0,0.0,0.0,0.0,0.0,0.0,0.0,0.0,0.0,0.0,0.0,0.0,0.0,0.0,0.0,0.0,0.0,0.0,0.0,0.0,0.0,0.0,0.0,0.0,0.0,0.0,0.0,0.0,0.0,0.0,0.0,0.0,0.0,0.0,0.0,3.1138,3.1461,3.2208,3.272,3.3334,0.0,0.0,0.0,0.0,0.0,0.0,3.4202,3.3431,3.3386,3.4111,3.3572,3.3411,3.3732,3.3877,3.3857,3.3693,3.4054,3.4318,3.4463,3.4847,3.5112,3.5232,3.5232,3.5232,3.516,3.4558,3.4411,3.4652,3.511,3.5475,3.5817,3.5721,3.56,3.5477,0.0,0.0,0.0,0.0,0.0,0.0,0.0,0.0,0.0,0.0,0.0,2.5717,2.6287,2.6941,2.7246,2.7174,2.7174,2.744,2.8001,2.7401,2.7267,2.7822,2.769,2.7345,2.6736,2.7926,2.8594,2.8737,2.9319,2.9929,3.0569,3.054,3.1148,3.2309,3.17,3.0684,2.9435,2.8855,2.8536,2.8332,2.6474,0.0,0.0,0.0,0.0,0.0,0.0,0.0,0.0,0.0,0.0,0.0,0.0,0.0,0.0,0.0,0.0,0.0,0.0,0.0,0.0,0.0,0.0,0.0,0.0,0.0,0.0,0.0,0.0,0.0,0.0,0.0,0.0,0.0,0.0,0.0,0.0,0.0,0.0,3.2019,3.2399,0.0,0.0,0.0,0.0,3.4574,3.4518,3.4476,3.4305,3.3983,3.3756,3.3649,3.3881,3.3982,3.4006,3.4511,3.4751,3.4751,3.4775,3.504,3.5545,3.5569,3.5857,3.6314,3.6314,3.6314,3.6218,3.4679,3.4438,3.5138,3.4652,3.5281,3.6284,3.6088,3.5556,3.5039,0.0,0.0,0.0,2.2783,2.2473,2.2323,2.2323,2.2862,2.352,2.4178,2.5405,2.6482,2.7121,2.739,2.7718,2.8033,2.8092,2.8003,2.7691,2.8508,2.8899,2.8583,2.8907,2.882,2.8148,2.9024,2.9405,2.929,3.0335,3.0974,3.1206,3.1613,3.2077,3.2513,3.228,3.1903,3.1409,3.0335,2.9435,2.8623,2.7926,2.7171,0.0,0.0,0.0,0.0,0.0,0.0,0.0,0.0,0.0,0.0,0.0,0.0,0.0,0.0,0.0,0.0,0.0,0.0,0.0,0.0,0.0,0.0,0.0,0.0,0.0,0.0,0.0,0.0,0.0,0.0,0.0,0.0,0.0,0.0,0.0,0.0,0.0,3.255,3.312,0.0,3.3913,3.4612,3.4943,3.4469,3.411,3.4055,3.4354,3.4102,3.4068,3.4342,3.4775,3.5064,3.5064,3.5232,3.5328,3.5328,3.4992,3.5112,3.5617,3.5617,3.6098,3.6916,3.6916,3.7108,3.7372,3.6819,3.6584,3.644,3.6247,3.671,3.7387,3.6779,3.6456,3.61,0.0,0.0,0.0,2.3071,2.2981,2.3071,2.331,2.3699,2.4268,2.5166,2.6243,2.7171,2.7829,2.8128,2.8427,2.8906,2.8936,2.8793,2.8502,2.9504,3.0043,2.9957,3.0075,3.0133,2.9956,2.9956,3.0221,3.0747,3.1329,3.182,3.2227,3.2629,3.2948,3.3151,3.3151,3.3035,3.2774,3.1932,3.08,2.9581,2.8942,2.8303,2.7636,0.0,0.0,0.0,0.0,0.0,0.0,0.0,0.0,0.0,0.0,0.0,0.0,0.0,0.0,0.0,0.0,0.0,0.0,0.0,0.0,0.0,0.0,0.0,0.0,0.0,0.0,0.0,0.0,0.0,0.0,0.0,0.0,0.0,0.0,0.0,3.2883,3.3634,3.4005,3.4366,3.4647,3.5058,3.5168,3.461,3.4225,3.4219,3.4751,3.4679,3.4727,3.5088,3.5425,3.5521,3.5352,3.5352,3.5352,3.5352,3.5352,3.5641,3.617,3.6531,3.718,3.7998,3.7998,3.8214,3.8527,3.8527,3.8431,3.8214,3.7239,3.7145,3.751,3.6519,3.6072,3.5839,0.0,0.0,2.361,2.361,2.361,2.3819,2.4492,2.4612,2.5136,2.6422,2.7171,2.7829,2.8517,2.9175,2.9564,2.9594,2.9594,2.9834,3.0432,3.027,3.0719,3.1926,3.1247,3.1188,3.1987,3.0836,3.1132,3.3022,3.2247,3.2474,3.3703,3.3602,3.3819,3.4399,3.4399,3.408,3.3499,3.347,3.2745,3.1409,2.9523,2.9116,2.9523,0.0,0.0,0.0,0.0,0.0,0.0,0.0,0.0,0.0,0.0,0.0,0.0,0.0,0.0,0.0,0.0,0.0,0.0,0.0,0.0,0.0,0.0,0.0,0.0,0.0,0.0,0.0,0.0,0.0,0.0,0.0,0.0,0.0,3.4552,3.3463,3.3329,3.517,3.5011,3.4906,3.5417,3.5519,3.5524,3.526,3.4945,3.5088,3.5593,3.5617,3.5617,3.5593,3.5617,3.5376,3.4847,3.4895,3.4895,3.4919,3.5954,3.6723,3.7276,3.8334,3.9128,3.9633,3.9633,3.9633,3.9657,3.9657,3.997,4.017,3.7362,3.6512,3.6835,3.5483,3.4519,3.3858,2.361,2.361,2.361,2.361,2.361,2.3819,2.4492,2.5046,2.5644,2.6482,2.7171,2.7829,2.8517,2.8757,2.9056,2.9535,2.9594,2.9654,2.9834,3.0562,3.1338,3.2198,3.2019,3.1989,3.2227,3.2346,3.2581,3.3022,3.3128,3.3352,3.3703,3.4002,3.4254,3.4399,3.4399,3.4312,3.4109,3.3674,3.3267,3.2803,3.1322,3.0568,3.0219,0.0,0.0,0.0,0.0,0.0,0.0,0.0,0.0,0.0,0.0,0.0,0.0,0.0,0.0,0.0,0.0,0.0,0.0,0.0,0.0,0.0,0.0,0.0,0.0,0.0,0.0,0.0,0.0,0.0,0.0,0.0,3.3406,3.3692,3.3671,3.3972,3.4183,3.4254,3.474,3.5144,3.5236,3.5486,3.5768,3.6064,3.5795,3.5769,3.5939,3.5716,3.5449,3.5064,3.5425,3.5545,3.54,3.617,3.6555,3.6555,3.7228,3.7829,3.8383,3.8671,3.932,4.0186,4.0186,4.0403,4.0739,4.0739,4.1076,4.1413,3.9849,3.9593,3.975,3.7807,3.5934,3.4536,2.361,2.361,2.361,2.361,2.361,2.3939,2.4896,2.5375,2.5944,2.6871,2.735,2.7829,2.8517,2.8846,2.9265,2.9924,3.0492,3.0821,3.0821,3.1901,3.2436,3.2317,3.2822,3.3151,3.3242,3.327,3.3443,3.3913,3.3774,3.3849,3.4113,3.4292,3.4545,3.4806,3.4545,3.4574,3.4777,3.4138,3.3877,3.379,3.3035,3.2193,3.1322,3.0655,3.019,2.9842,2.9581,2.9319,2.9116,2.9493,0.0,0.0,0.0,0.0,0.0,0.0,0.0,0.0,0.0,0.0,0.0,0.0,0.0,0.0,0.0,0.0,0.0,0.0,0.0,0.0,0.0,0.0,0.0,0.0,3.3956,3.4289,3.4289,3.4515,3.4776,3.4926,3.5411,3.5794,3.6043,3.596,3.6088,3.6578,3.6112,3.5915,3.6038,3.5716,3.5473,3.516,3.5665,3.5833,3.5617,3.6675,3.7204,3.7204,3.819,3.8839,3.9152,3.9369,3.9946,4.0739,4.0739,4.1028,4.1533,4.1749,4.1661,4.1353,0.0,0.0,0.0,0.0,3.5868,3.498,2.361,2.361,2.361,2.361,2.361,2.4059,2.5405,2.5615,2.6123,2.75,2.767,2.7859,2.8637,2.9175,2.9744,3.0432,3.1659,3.2467,3.2617,3.3511,3.3505,3.2466,3.3565,3.4345,3.4472,3.3776,3.404,3.5228,3.4368,3.423,3.4815,3.467,3.4893,3.5328,3.4777,3.4806,3.5212,3.4661,3.4399,3.4399,3.4399,3.3703,3.2571,3.1961,3.17,3.1555,3.1003,3.0422,2.9958,3.0016,0.0,0.0,0.0,0.0,0.0,0.0,0.0,0.0,0.0,0.0,0.0,0.0,0.0,0.0,0.0,0.0,0.0,0.0,0.0,0.0,0.0,0.0,0.0,0.0,3.4901,3.5487,3.5705,3.5253,3.5303,3.6332,3.6458,3.6659,3.7136,3.6798,3.6603,3.6773,3.6112,3.5815,3.6013,3.5764,0.0,0.0,0.0,3.617,3.5713,3.6747,3.7276,3.73,3.8864,3.9657,3.9801,4.0258,4.0812,4.1365,4.1365,4.1629,4.2086,4.2448,4.1653,4.014,3.864,3.8255,3.8291,3.5921,3.5191,3.5469,2.361,2.361,2.361,2.361,2.361,2.4059,2.5405,2.5615,2.6273,2.8158,2.7919,2.809,2.9265,2.9026,2.9235,3.0402,3.124,3.2168,3.3245,3.2975,3.2945,3.3244,3.3991,3.4472,3.4472,3.4698,3.4961,3.5228,3.5184,3.5312,3.5429,3.5776,3.5735,3.5357,3.5241,3.4951,3.4574,3.4457,3.4399,3.4399,3.4399,3.3964,3.3267,3.3151,3.2774,3.2309,3.2193,3.2077,3.2048,3.2542,3.2309,3.1787,3.1787,3.1409,0.0,0.0,0.0,0.0,0.0,0.0,0.0,0.0,0.0,0.0,0.0,0.0,0.0,0.0,0.0,0.0,0.0,0.0,0.0,3.6248,3.5836,3.5855,3.6734,3.6383,3.6282,3.6935,3.7036,3.7061,3.7186,3.7089,3.7089,3.7089,3.6603,3.6235,3.6333,3.6227,3.605,3.5641,3.6122,3.6362,3.6266,3.73,3.7829,3.7853,3.9032,0.0,4.0884,4.098,4.1557,4.2447,4.2447,4.2519,4.2615,4.1583,3.9846,3.8016,3.8269,3.8145,3.7541,3.704,3.6423,3.5898,2.361,2.361,2.361,2.361,2.361,2.4059,2.5405,2.5615,2.6213,2.7859,2.8098,2.8218,2.8547,2.9175,2.9684,3.0013,3.127,3.2437,3.3425,3.3484,3.3484,3.3484,3.4442,3.4981,3.4981,3.5115,3.5377,3.5703,3.5731,3.5849,3.6102,3.6383,3.6212,3.5822,3.5503,3.5183,3.4864,3.4545,3.4399,3.4399,3.4399,3.4225,3.3935,3.3935,3.3732,3.347,3.347,3.3267,3.3035,3.3354,3.3035,3.2513,3.2513,3.228,3.1961,0.0,0.0,0.0,0.0,0.0,0.0,0.0,0.0,0.0,0.0,0.0,0.0,0.0,0.0,3.5601,3.5982,0.0,3.6404,3.6544,3.621,3.6132,3.6684,3.6533,3.6558,3.7111,3.6935,3.6885,3.7161,3.7089,3.6992,3.6992,3.6752,3.6504,3.6235,3.6323,3.629,3.6026,3.6531,3.6795,3.6795,3.8118,3.8791,3.8815,4.0138,4.1076,4.1581,4.1581,4.2014,4.276,4.276,4.2904,4.3024,4.1148,3.9752,3.8654,3.7639,3.7044,3.6603,3.6603,3.636,3.6016,2.364,2.361,2.361,2.361,2.3699,2.4208,2.5435,2.5824,2.6422,2.7619,2.8248,2.8397,2.7829,2.9175,3.0103,2.9983,3.142,3.2587,3.3275,3.3933,3.4053,3.3514,3.4771,3.5519,3.5519,3.5294,3.5466,3.6,3.5917,3.6163,3.667,3.6816,3.6645,3.6357,3.5834,3.5485,3.5154,3.4632,3.4399,3.4399,3.4399,3.4399,3.4399,3.4399,3.4399,3.4399,3.4399,3.408,3.3645,3.3645,3.3325,3.289,3.289,3.289,3.2919,3.3035,3.3064,0.0,0.0,0.0,0.0,0.0,0.0,0.0,0.0,3.5515,3.577,3.5629,3.5889,3.6161,3.6108,3.6432,3.6662,3.6622,3.6433,3.6408,3.6508,3.6433,3.6558,3.7111,3.6784,3.6709,3.7136,3.7017,3.692,3.6895,3.68,3.6624,3.6283,3.6468,3.6555,3.6555,3.706,3.7348,3.7348,3.8864,3.9609,3.9633,4.1124,4.1918,4.2134,4.2134,4.2471,4.3072,4.3072,4.3168,4.3085,4.1069,4.0062,3.954,3.6944,3.6016,3.6016,3.6016,3.6016,3.6016,2.3729,2.361,2.361,2.361,2.4088,2.4747,2.5495,2.6602,2.7619,2.8397,2.8547,2.8577,2.8487,2.8697,2.9475,3.1123,3.1509,3.1928,3.2587,3.3245,3.3574,3.3484,3.4771,3.5519,3.5519,3.5294,3.5258,3.5317,3.568,3.6232,3.684,3.7399,3.7269,3.6529,3.6541,3.5729,3.4516,3.4457,3.4399,3.4399,3.4399,3.4399,3.4399,3.4399,3.4399,3.4399,3.4399,3.437,3.4312,3.4312,3.4254,3.4196,3.4196,3.4196,3.4312,3.4864,3.5038,3.5154,3.5735,3.588,3.5909,3.5967,3.6054,3.6043,0.0,3.5742,3.5602,3.597,3.5826,3.584,3.69,3.6748,3.6622,3.701,3.6684,3.6533,3.701,3.6684,3.6558,3.7111,3.7136,3.7111,3.7186,3.7186,3.7186,3.7186,3.6677,3.6603,3.702,3.7127,3.7108,3.7108,3.7613,3.7902,3.7902,3.9032,3.9609,3.9609,4.0739,4.1774,4.2663,4.2663,4.3216,4.4178,4.4178,4.3434,4.2328,4.0839,3.9408,3.8242,3.6674,3.6016,3.6016,3.6016,3.6016,3.6016,2.4896,2.4777,2.4777,2.4777,2.4687,2.4866,2.5525,2.6393,2.738,2.8457,2.8607,2.8607,2.8607,2.8607,2.9385,3.1302,3.115,3.121,3.1898,3.2557,3.3095,3.3484,3.4412,3.51,3.5489,3.5424,3.5359,3.5359,3.5948,3.6327,3.6487,3.7109,3.6939,3.6182,3.6182,3.5654,3.4668,3.4668,3.4668,3.4563,3.4563,3.4496,3.437,3.3993,3.408,3.4399,3.4399,3.4399,0.0,3.4399,3.4399,3.4399,3.4399,3.4661,3.4951,3.4835,3.5328,3.5967,3.6228,3.6606,3.6983,3.7331,3.7418,3.7428,3.7557,3.7263,3.7021,3.6996,3.6989,3.701,3.7161,3.6985,3.681,3.6734,3.6508,3.6433,3.6684,3.6508,3.6558,3.7111,3.7186,3.7186,3.7186,3.7186,3.7215,3.7442,3.7568,3.7641,3.771,3.7788,3.7976,3.808,3.8693,3.902,3.9129,4.0395,4.098,4.1004,4.2038,4.276,4.3216,4.3529,4.3914,4.4223,4.3451,4.2799,4.2166,3.9932,3.8639,3.7975,3.6809,3.6152,3.6016,3.6016,3.6016,3.6055,2.6273,2.6153,2.6153,2.6153,2.5914,2.5764,2.5854,2.6602,2.744,2.8218,2.8487,2.8607,2.8607,2.8607,2.9235,3.0851,3.0522,3.0522,3.121,3.1869,3.2527,3.3185,3.4023,3.4711,3.522,3.54,3.5519,3.5519,3.5998,3.6231,3.6276,3.6752,3.6556,3.5976,3.5976,3.5621,3.4935,3.4935,3.4802,3.4698,3.4698,3.4447,3.4109,3.3848,3.3906,3.4138,3.4138,3.4254,3.4428,3.4603,3.4545,3.4457,3.4835,3.5125,3.5328,3.5241,3.6112,3.7099,3.7099,3.7447,3.7941,3.8376,3.8492,3.8659,3.9264,3.8808,3.8424,3.8568,3.8178,3.7764,3.7663,3.7387,3.7161,3.7061,3.691,3.6885,3.7036,3.691,3.7036,3.7588,3.7513,3.7487,3.7638,3.7513,3.754,3.7892,3.8189,3.8386,3.8378,3.854,3.8753,3.9283,3.9637,4.0061,4.0463,4.1692,4.23,4.2206,4.3241,4.3746,4.3746,4.4154,4.4347,4.4223,4.3326,4.2799,4.2673,4.0322,3.9408,3.9277,3.7842,3.7038,3.6789,3.6403,3.6287,3.621,2.7649,2.755,2.755,2.755,2.8038,2.8038,2.6752,2.7679,2.8308,2.773,2.8188,2.8607,2.8607,2.8607,2.8876,2.9594,2.9624,2.9864,3.0492,3.118,3.1869,3.2527,3.3784,3.4472,3.4502,3.516,3.5519,3.5519,3.5519,3.5848,3.6477,3.6507,3.644,3.6179,3.6179,3.5688,3.4935,3.4935,3.4802,3.4698,3.4698,3.4251,3.3558,3.4167,3.4022,3.3499,3.3499,3.3877,3.4516,3.5125,3.4922,3.4632,3.5851,3.5851,3.5619,3.6867,3.8115,3.9102,3.9102,3.9131,3.916,3.916,3.916,3.9509,4.0786,3.9984,3.9419,4.0638,3.8955,3.7538,3.8617,3.7914,3.7538,3.8617,3.8316,3.8165,3.8718,3.8316,3.8165,3.8743,3.8316,3.8216,3.8768,3.8316,3.8216,3.8793,3.8515,3.8662,3.9208,3.8945,3.9308,4.0365,4.0439,4.0844,4.1696,4.2652,4.3068,4.276,4.3818,4.4323,4.4323,4.4347,4.4347,4.4347,4.4223,4.4223,4.4099,4.3028,4.2627,4.2351,4.0018,3.8972,3.884,3.7595,3.6789,3.6443,2.8381,2.8535,2.8757,2.8338,2.8816,2.9086,2.8637,2.8577,2.8517,2.8278,2.8457,0.0,0.0,0.0,0.0,0.0,2.8936,2.9026,2.9235,3.0253,3.115,3.1839,3.2706,3.3574,3.4442,3.4711,3.4831,3.4831,3.528,3.54,3.516,3.5609,3.5783,3.5753,3.5753,3.5568,3.5294,3.5294,3.5228,3.503,3.503,3.4817,3.4442,3.4543,3.4485,3.4368,0.0,3.4603,3.4516,3.5154,3.4922,3.4574,3.5415,3.6112,3.6983,3.8667,3.887,3.8638,3.9073,3.9828,4.035,3.9915,4.0466,4.125,4.1657,4.1482,4.1307,4.1335,4.0535,3.9762,3.9277,3.8761,3.8291,3.8291,3.8467,3.8642,3.8843,3.9019,3.9346,3.9898,3.9798,3.9898,4.045,3.9346,3.8969,3.9898,3.9519,3.9694,4.0621,4.0351,4.0674,4.1638,4.2263,4.2889,4.34,4.4224,4.4402,4.4184,4.4302,4.4347,4.4347,4.4347,4.447,4.4594,4.3678,4.3404,4.338,4.1181,4.0278,4.0148,3.8618,3.7975,3.775,3.7807,3.7793,3.7718,0.0,2.9877,3.0045,2.9409,2.9624,0.0,0.0,0.0,0.0,0.0,0.0,0.0,0.0,0.0,0.0,0.0,0.0,2.8607,2.8607,2.9804,3.0702,3.115,3.2018,3.2916,3.3754,3.3993,3.4233,3.4472,3.4921,3.504,3.4861,3.531,3.5519,3.5519,3.5519,3.5519,3.5519,3.5519,3.5508,3.5555,3.5317,3.5067,3.4935,3.4802,3.4618,0.0,3.5175,3.502,3.4545,3.5415,3.527,3.4893,3.5793,3.6954,3.8231,3.9421,3.9363,3.9015,3.9683,4.0292,4.0757,4.0786,4.1453,4.2208,4.2673,4.2737,4.2677,4.257,4.1599,4.0749,4.0103,3.9418,3.8818,3.8642,3.9094,3.9521,3.9722,4.0049,4.0475,4.1028,4.0927,4.0953,4.1304,4.0551,4.0249,4.0777,4.0676,4.0877,4.1605,4.1588,4.2038,4.3011,4.3721,4.4234,4.4774,4.5228,4.5331,4.4963,4.4911,4.4787,4.4717,4.4911,4.5011,4.4963,4.4027,4.3778,4.3755,4.2201,4.1542,4.1287,3.9779,3.9252,3.9178,3.8709,3.863,3.882,0.0,0.0,3.1205,0.0,0.0,0.0,0.0,0.0,0.0,0.0,0.0,0.0,0.0,0.0,0.0,0.0,0.0,0.0,2.8547,2.9714,3.0432,3.0462,3.1719,3.2437,3.2527,3.3125,3.3754,3.4412,3.4412,3.4771,3.54,3.5429,3.5459,3.5459,3.5489,3.5519,3.5519,3.5519,3.5783,3.6089,3.5466,3.5133,3.5001,3.4964,3.4449,3.3908,3.5195,3.5117,3.4661,3.5851,3.5851,3.559,3.6896,3.8144,3.916,3.9218,3.9654,4.0234,4.0873,4.0641,4.0495,4.1744,4.215,4.2557,4.3718,4.3738,4.3702,4.4144,4.2304,4.0664,4.1089,3.9904,3.9094,3.9622,4.0174,4.0752,4.1254,4.1379,4.1605,4.2133,4.1731,4.143,4.143,4.1882,4.1982,4.1505,4.1932,4.2208,4.2283,4.2785,4.3564,4.4644,4.4694,4.5103,4.5817,4.5842,4.5746,4.538,4.5673,4.5648,4.538,4.5871,4.5798,4.5331,4.5331,4.5331,4.5331,4.5574,4.5574,4.5428,4.3004,4.2267,4.2289,3.9799,3.9178,3.9616,0.0,0.0,0.0,0.0,0.0,0.0,0.0,0.0,0.0,0.0,0.0,0.0,0.0,0.0,0.0,0.0,0.0,0.0,2.7829,2.8637,2.9295,2.9804,3.0582,3.148,3.2497,3.2677,3.3095,3.3754,3.3754,3.3844,3.4023,3.4502,3.4741,3.4771,3.528,3.5519,3.5519,3.5519,3.5609,3.5663,3.5484,3.5424,3.5419,3.5763,3.5326,3.4714,3.5897,3.5787,3.5154,3.5503,3.5503,3.559,3.6896,3.7825,3.8638,3.9596,3.9973,4.0147,4.0321,4.096,4.1541,4.1395,4.2789,4.4124,4.4008,4.4644,4.4977,4.3878,4.2834,4.1887,4.0743,3.9955,3.9521,3.9672,4.0501,4.1178,4.1329,4.2057,4.261,4.276,4.2635,4.2559,4.2559,4.2685,4.2886,4.3137,4.2911,4.3112,4.394,4.4141,4.4543,4.5246,4.5673,4.6024,4.618,4.6337,4.6291,4.6316,4.6586,4.6437,4.5896,4.6019,4.5921,4.5696,4.5696,4.5817,4.5939,4.3879,4.3107,4.2902,4.0585,3.9571,3.9375,3.975,3.9646,3.9667,0.0,0.0,0.0,0.0,0.0,0.0,0.0,0.0,0.0,0.0,0.0,0.0,0.0,0.0,0.0,0.0,0.0,0.0,0.0,2.8487,2.9056,2.9146,3.0013,3.0851,3.1629,3.1928,3.2557,3.3484,3.3215,3.3365,3.3933,3.3993,3.4053,3.4053,3.4442,3.4622,3.4622,3.4622,3.4951,0.0,0.0,3.525,3.5519,3.5448,3.508,3.4646,3.5347,3.5527,3.5496,3.5496,3.5805,3.6373,3.7389,3.8144,3.8899,4.0176,4.0321,4.0292,4.1134,4.1715,4.215,4.2324,4.3631,4.4792,4.4472,4.5169,4.5479,4.4075,4.3216,4.2393,4.0999,4.0338,3.9973,3.9747,4.0827,4.1605,4.1379,4.2283,4.2986,4.2986,4.3187,4.3237,4.3011,4.3639,4.4091,4.4166,4.3865,4.4091,4.4945,4.5246,4.5522,4.5849,4.615,4.6426,4.6677,4.6611,4.6737,4.7233,4.7406,4.7356,4.696,4.7209,4.6911,4.6434,4.6659,4.6509,4.6205,4.4242,4.3695,4.3778,4.1258,4.0431,4.0669,4.1472,4.1061,4.034,0.0,0.0,0.0,0.0,0.0,0.0,0.0,0.0,0.0,0.0,0.0,2.8368,2.7769,2.8158,0.0,0.0,0.0,0.0,0.0,0.0,2.9086,2.8637,2.9654,3.0283,3.0372,3.1061,3.1958,3.3095,3.2617,3.2976,3.4083,3.3604,3.3365,3.3365,3.3455,3.3484,3.3484,3.3484,3.4173,3.519,3.4592,3.4711,3.516,0.0,3.4319,3.4218,3.4307,3.4846,3.5634,3.5692,3.637,3.7302,3.7999,3.8667,3.9421,4.0612,4.067,4.0728,4.2411,4.2557,4.2498,4.3689,4.4443,4.4879,4.4879,4.5343,4.5479,4.4312,4.3286,4.2296,4.1219,4.067,4.0275,3.9873,4.1078,4.1907,4.1505,4.2333,4.3011,4.3087,4.3514,4.3639,4.3237,4.4518,4.5196,4.4769,4.4744,4.4995,4.5573,4.605,4.6301,4.6301,4.6376,4.6652,4.7129,4.691,4.7333,4.8033,4.8357,4.8332,4.8033,4.8535,4.8209,4.7255,4.7707,4.738,4.6431,4.5597,4.5624,4.5917,4.349,4.3005,4.3631,4.3877,4.2742,4.1452,0.0,0.0,0.0,0.0,0.0,0.0,0.0,0.0,0.0,0.0,2.8517,2.8547,0.0,0.0,0.0,0.0,0.0,0.0,0.0,0.0,0.0,2.8577,2.8816,2.9175,2.9714,3.0372,3.0791,3.1031,3.148,3.1809,3.2048,3.2467,3.2677,3.2706,3.3245,3.3484,3.3484,3.3484,3.3634,3.3844,3.3724,3.3724,3.3814,3.3724,0.0,0.0,3.4617,3.5259,3.5898,3.6318,3.6458,3.6693,3.7825,3.8667,3.9334,4.006,4.0989,4.1831,4.215,4.2528,4.3021,4.3805,4.4443,4.4879,4.4879,4.4966,4.4723,4.3353,4.2481,4.1593,4.0185,3.9876,3.9948,4.0325,4.1003,4.1605,4.1957,4.2559,4.3137,4.3614,4.374,4.394,4.4292,4.4593,4.4945,4.5296,4.5347,4.5573,4.6125,4.625,4.6301,4.6301,4.6753,4.7029,4.7129,4.8033,4.8535,4.8636,4.9188,4.9163,4.8636,4.8736,4.841,4.7782,4.7857,4.7807,4.7507,4.6304,4.5634,4.5247,4.444,4.4101,4.3986,4.4681,4.4004,4.2861,0.0,0.0,0.0,0.0,0.0,0.0,0.0,2.8338,2.8457,2.9475,2.9594,2.9355,2.8667,2.7979,2.761,0.0,0.0,0.0,0.0,0.0,0.0,2.8068,2.8397,2.8757,2.9056,3.0013,3.0672,3.1031,0.0,3.1719,3.2048,3.2018,3.1988,3.2018,3.2347,3.2467,3.2467,3.2467,3.2677,3.2976,3.2976,3.2976,3.2976,3.2976,0.0,0.0,3.4842,3.5577,3.6132,3.6674,3.6946,3.7229,3.8393,3.8957,3.945,4.0757,4.1599,4.2295,4.3282,4.3544,4.366,4.4298,4.4676,4.4879,4.4879,4.4879,4.4582,4.3408,4.2841,4.2045,4.0352,4.0517,4.0824,4.0203,4.1028,4.1856,4.2108,4.2635,4.3187,4.374,4.4066,4.4217,4.4192,4.4995,4.5497,4.5497,4.5748,4.6024,4.6301,4.6301,4.6451,4.6728,4.7004,4.7405,4.7983,4.851,4.8912,4.9213,4.9464,4.9464,4.9213,4.9213,4.8887,4.836,4.8661,4.846,4.7783,4.6475,4.6032,4.6042,4.5524,4.5314,4.5586,4.7293,4.6599,4.4909,0.0,0.0,0.0,0.0,0.0,0.0,0.0,2.9109,2.9319,3.0552,3.0731,3.0342,2.9325,2.8487,2.7949,0.0,0.0,0.0,0.0,0.0,0.0,0.0,2.8098,2.8397,2.8397,0.0,0.0,3.112,3.139,0.0,0.0,0.0,0.0,0.0,3.1482,3.1482,3.1482,3.1482,3.1839,0.0,0.0,3.2317,3.2347,0.0,0.0,0.0,0.0,3.5753,3.6186,3.6891,3.7345,3.7853,3.8806,3.9353,4.0051,4.1855,4.2469,4.3021,4.4472,4.4531,4.4327,4.4937,4.4995,4.4937,4.5053,4.4879,4.444,4.3567,4.3188,4.238,4.0439,4.1036,4.1232,3.9954,4.0978,4.2057,4.2308,4.271,4.3212,4.389,4.4367,4.4493,4.4192,4.5472,4.6125,4.5698,4.6075,4.6301,4.6301,4.6426,4.6677,4.7129,4.7355,4.7908,4.8761,4.8887,4.9163,4.959,4.959,4.959,4.959,4.959,4.9364,4.8962,4.9414,4.9088,4.8134,4.7096,4.7104,4.7583,4.7072,4.7199,4.7783,4.9875,4.9023,4.7097,0.0,0.0,0.0,0.0,0.0,0.0,0.0,2.9358,3.0093,3.127,3.1392,3.1332,3.127,3.0163,2.9146,0.0,0.0,0.0,0.0,0.0,0.0,0.0,0.0,0.0,0.0,0.0,0.0,2.9774,3.0941,0.0,0.0,0.0,0.0,0.0,0.0,3.1482,3.1482,3.1482,0.0,0.0,0.0,0.0,0.0,0.0,0.0,0.0,0.0,3.5549,3.5723,3.6743,3.7119,3.7316,3.8472,3.9894,4.1434,4.2777,4.3918,4.4676,4.485,4.485,4.4966,4.5634,4.5343,4.5053,4.5663,4.4908,4.395,4.3455,4.2514,4.1245,3.9728,3.9998,4.0301,3.9802,4.0651,4.1756,4.276,4.2936,4.3363,4.4418,4.4593,4.4819,4.5296,4.5924,4.6276,4.6225,4.6276,4.6301,4.6301,4.6778,4.7079,4.7129,4.8109,4.8661,4.8761,4.9264,4.954,4.959,4.959,4.959,4.959,4.959,4.9565,4.9515,4.9565,4.954,4.9439,4.9311,4.9286,4.9414,4.9837,5.0413,5.0913,5.1172,5.053,4.9547,0.0,0.0,0.0,0.0,0.0,0.0,3.0266,3.037,3.0944,3.2614,3.2907,3.3004,3.3004,3.2189,3.0835,2.8757,0.0,0.0,0.0,0.0,0.0,0.0,0.0,0.0,0.0,0.0,3.0133,3.0133,3.1061,0.0,0.0,0.0,0.0,0.0,0.0,3.1482,3.1482,3.1482,0.0,0.0,0.0,0.0,0.0,0.0,0.0,0.0,0.0,0.0,3.5639,3.65,3.6969,3.7506,3.8775,4.0114,4.1391,4.2607,4.3734,4.4907,4.5698,4.5552,4.5318,4.5871,4.5461,4.5053,4.5721,4.4908,4.395,4.3832,4.3084,4.2079,4.0858,4.1234,4.132,4.0253,4.1072,4.2108,4.2861,4.2986,4.3388,4.4493,4.4618,4.4719,4.4945,4.5773,4.6301,4.6301,4.6627,4.6803,4.6803,4.7004,4.7431,4.8109,4.8535,4.8937,4.9264,4.949,4.959,4.959,4.959,4.959,4.959,4.959,4.959,4.959,4.959,4.959,4.959,4.959,4.959,4.969,5.0594,5.1071,5.1373,5.2026,5.1768,5.1284,0.0,0.0,0.0,0.0,0.0,3.0048,3.1006,3.1258,3.1789,3.3208,3.3891,3.4149,3.406,3.3393,3.2091,2.9816,2.9042,0.0,0.0,0.0,0.0,0.0,0.0,0.0,0.0,0.0,3.0492,3.0492,3.118,3.1482,0.0,0.0,3.1482,3.1482,0.0,0.0,0.0,0.0,0.0,0.0,0.0,0.0,0.0,0.0,0.0,0.0,0.0,0.0,0.0,0.0,0.0,3.7614,3.8751,3.9861,4.105,4.2406,4.3685,4.487,4.599,4.602,4.5698,4.5873,4.5639,4.5375,4.5374,4.4705,4.4007,4.3833,4.328,4.2449,4.1451,4.1856,4.1877,4.0631,4.1516,4.2578,4.3134,4.3447,4.3739,4.4522,4.4785,4.4911,4.4759,4.5648,4.6376,4.6552,4.6903,4.728,4.7606,4.7606,4.7983,4.8736,4.8937,4.9213,4.959,4.959,4.959,4.959,4.959,4.959,4.959,4.959,4.959,4.959,4.959,4.969,4.9841,4.9841,5.0042,5.0419,5.1222,5.1624,5.1875,5.2628,5.2678,5.2402,0.0,0.0,0.0,0.0,0.0,0.0,3.0583,3.1823,3.2679,3.2671,3.3923,3.4589,3.403,3.3393,3.2725,3.2027,3.0038,0.0,0.0,0.0,0.0,0.0,0.0,0.0,0.0,0.0,3.0492,3.0492,3.118,3.1482,3.1482,3.1482,3.1482,3.1482,0.0,0.0,0.0,0.0,0.0,0.0,0.0,0.0,0.0,0.0,0.0,0.0,0.0,0.0,0.0,0.0,0.0,0.0,0.0,3.932,4.0711,4.2446,4.3767,4.4752,4.5459,4.6108,4.6344,4.5522,4.5933,4.6167,4.4701,4.4323,4.4118,4.339,4.2694,4.1814,4.0802,4.1223,4.1448,4.0799,4.175,4.2907,4.3823,4.4361,4.4694,4.4745,4.5374,4.5715,4.5157,4.5766,4.6552,4.7079,4.7129,0.0,4.8686,4.8761,4.8761,4.8761,4.9289,4.959,4.959,4.959,4.959,4.959,4.959,4.959,4.959,4.959,4.959,4.959,4.959,4.9916,5.0419,5.0419,5.1071,5.2076,5.2101,5.2427,5.2904,5.2929,5.2929,5.2929,0.0,0.0,0.0,0.0,0.0,0.0,0.0,3.1506,3.1955,3.2045,3.2972,3.363,3.356,3.338,3.3038,3.2364,3.0677,0.0,0.0,0.0,0.0,0.0,0.0,0.0,0.0,3.0761,3.121,3.121,3.1362,3.1482,3.1482,3.1482,3.1482,3.1482,3.1482,3.1482,0.0,0.0,0.0,0.0,0.0,0.0,0.0,0.0,0.0,0.0,0.0,0.0,0.0,0.0,0.0,0.0,0.0,0.0,0.0,4.1338,4.2783,4.3864,4.4519,4.509,4.548,4.5158,4.5191,4.5135,4.4637,4.4225,4.3872,4.3666,4.2996,4.2363,4.2087,4.2486,4.2834,4.2953,4.3247,4.3888,4.4886,4.4668,4.4495,4.4745,4.5272,4.5846,4.6197,0.0,4.6793,4.7104,4.7456,4.7983,4.8736,4.9138,4.9339,4.9339,4.9515,4.959,4.959,4.959,4.959,4.959,4.959,4.959,4.959,4.959,4.959,4.9615,4.9992,5.0243,5.0469,5.1247,5.1774,5.2151,5.2528,5.2779,5.2929,5.2929,5.2929,5.2929,0.0,0.0,0.0,0.0,0.0,0.0,0.0,3.1556,3.1779,3.1675,3.2273,3.2803,3.3239,3.2894,3.2659,3.2782,3.1175,0.0,0.0,0.0,0.0,0.0,0.0,0.0,3.0492,3.118,3.1601,3.1898,3.2138,3.2258,3.2287,3.2527,3.2377,3.1898,3.1898,3.1779,0.0,0.0,0.0,0.0,0.0,0.0,3.3574,0.0,0.0,0.0,0.0,0.0,0.0,0.0,0.0,0.0,0.0,0.0,0.0,0.0,4.1564,4.2851,4.4018,4.4713,4.4995,4.4674,4.4709,4.4739,4.4152,4.3862,4.3714,4.3448,4.3064,4.2777,4.3012,4.351,4.4135,4.4824,4.4792,4.4991,4.6036,4.5323,4.4986,4.5448,4.5922,4.6373,0.0,4.69,4.7085,4.7626,4.7856,4.8385,4.9038,4.9414,4.959,4.959,4.959,4.959,4.959,4.959,4.959,4.959,4.959,4.959,4.959,4.959,4.959,4.9615,5.0167,5.0544,0.0,5.1724,5.2226,5.2452,5.2804,5.2929,5.2929,5.2929,5.2929,5.2929,0.0,0.0,0.0,0.0,0.0,0.0,0.0,3.1765,3.2008,3.147,3.1655,3.208,3.2814,3.1964,3.1828,3.3116,0.0,0.0,0.0,0.0,0.0,0.0,0.0,0.0,3.0552,3.121,3.1869,3.2527,3.3125,3.3455,3.3514,3.4113,3.3754,3.2587,3.2587,3.2228,3.1541,3.1511,3.1482,3.1541,3.2258,3.2916,0.0,0.0,0.0,0.0,0.0,0.0,0.0,0.0,0.0,0.0,0.0,0.0,0.0,0.0,0.0,0.0,0.0,4.4646,4.4923,4.4162,4.4542,4.4743,4.3358,4.3486,0.0,4.307,4.282,4.2976,4.3626,4.4414,4.5344,4.6339,4.619,4.6247,4.7161,4.6379,4.5995,4.6772,4.6901,4.6992,4.7272,4.7231,4.7598,4.8328,4.8455,4.8837,4.9668,4.9719,4.9719,4.959,4.959,4.959,4.959,4.959,4.959,4.959,4.959,4.959,4.959,4.959,4.959,4.9615,5.0218,5.077,5.1322,5.1925,5.2477,5.2929,5.2929,5.2929,5.2929,5.2929,5.2929,5.2929,0.0,0.0,0.0,0.0,0.0,0.0,0.0,0.0,0.0,0.0,3.0903,3.0987,3.0812,3.0721,3.0907,0.0,0.0,0.0,0.0,0.0,0.0,0.0,0.0,0.0,3.127,3.1595,3.2043,3.2705,3.2855,3.3186,3.3698,3.3726,3.3636,3.3457,3.3336,3.2886,3.2258,3.1749,3.1482,3.1541,3.2258,3.2916,0.0,0.0,0.0,0.0,3.5519,3.5519,0.0,0.0,0.0,0.0,0.0,0.0,0.0,0.0,4.0337,4.1594,4.2551,0.0,4.3748,4.3519,4.3608,4.3718,0.0,4.3369,4.331,4.2652,4.2891,4.3379,4.4035,4.4879,4.6185,4.8265,4.7292,4.6774,4.8319,4.7244,4.6439,4.6797,4.7106,4.7314,4.7508,4.7973,4.8421,4.8748,4.9183,4.9745,5.0308,5.0334,5.0232,5.0001,4.9976,4.9847,4.959,4.959,4.959,4.959,4.959,4.959,4.959,4.959,4.959,4.9665,5.0645,5.1147,5.1348,5.2327,5.2804,5.2929,5.2929,5.2929,5.2929,5.2929,5.2929,5.2929,0.0,0.0,0.0,0.0,0.0,0.0,0.0,0.0,0.0,0.0,0.0,3.0371,3.0416,3.0154,0.0,0.0,0.0,0.0,0.0,0.0,0.0,0.0,0.0,3.1076,3.1682,3.2071,3.2611,3.3335,3.3849,3.4271,3.4663,3.4901,3.4721,3.418,3.3879,3.3307,3.2616,3.2255,3.1867,3.1541,3.2258,0.0,0.0,0.0,0.0,0.0,3.504,3.525,0.0,3.5519,3.5699,3.5968,0.0,0.0,0.0,0.0,3.9888,4.1145,4.2102,4.2851,4.3329,4.3329,4.3329,4.3329,4.3329,4.3329,4.3419,4.3658,4.3988,4.4616,4.5903,4.6344,4.7274,4.9342,4.7999,4.6998,4.7702,4.7256,4.6882,4.708,4.7456,4.7716,0.0,4.8484,4.8937,4.9142,4.9708,5.0249,5.0563,5.0588,5.0461,5.0359,5.0359,5.0104,4.959,4.959,4.959,4.959,4.959,4.959,4.959,4.959,4.9741,5.0017,5.0896,5.1423,5.1724,5.2578,5.2929,5.2929,5.2929,5.2929,5.2929,5.2929,5.2929,5.2955,0.0,0.0,0.0,0.0,0.0,0.0,0.0,0.0,0.0,0.0,0.0,0.0,0.0,0.0,0.0,0.0,0.0,0.0,0.0,0.0,0.0,0.0,3.0776,3.1334,3.1996,3.2639,3.3364,3.403,3.518,3.5752,3.5782,3.6356,3.6023,3.4876,3.4425,3.3697,3.2915,3.2824,3.2285,3.1511,3.2138,0.0,0.0,0.0,0.0,0.0,0.0,0.0,0.0,3.534,3.5789,3.6267,3.5789,0.0,0.0,0.0,0.0,0.0,4.1773,4.2671,4.3329,4.3329,4.3329,4.3359,4.3449,4.3569,4.3958,4.5065,4.5454,4.6142,4.7967,4.8024,4.8453,5.0206,4.8909,4.7352,4.6619,4.697,4.7336,4.7336,4.7832,0.0,4.8303,4.8852,4.9333,4.9637,5.0208,5.0602,5.0689,5.0715,5.0715,5.0715,5.0715,5.0334,4.9719,4.9719,4.9719,4.9719,4.959,4.959,4.959,4.969,4.9967,5.0444,5.1122,5.1674,5.2151,5.2703,5.2929,5.2929,5.2929,5.2929,5.2929,5.2929,5.298,5.313,0.0,0.0,0.0,0.0,0.0,0.0,0.0,0.0,0.0,0.0,0.0,0.0,0.0,0.0,0.0,0.0,0.0,0.0,0.0,0.0,0.0,3.1061,3.1636,3.1987,3.1996,3.3297,3.4027,3.4149,3.5492,3.61,3.5973,3.6064,3.6004,3.5791,3.5217,3.4516,3.3578,3.3005,3.2285,3.1482,3.1571,0.0,0.0,0.0,0.0,0.0,0.0,0.0,0.0,3.4622,3.51,3.5729,3.6178,0.0,0.0,0.0,0.0,0.0,4.0636,4.1983,4.3329,4.3329,4.3329,4.3479,4.4047,4.4586,4.5035,4.5244,4.6202,4.7249,4.8117,4.8716,4.964,5.1618,5.0457,4.8755,4.6784,4.697,4.7336,4.7336,4.7832,4.8381,4.8904,4.9453,5.0002,5.048,5.1028,5.1393,5.1471,5.1471,5.1346,5.0994,5.0994,5.0867,5.0461,5.0104,4.9976,4.9976,4.9719,4.959,4.9615,5.0067,5.0343,5.0469,5.1523,5.2026,5.2151,5.2703,5.2929,5.2929,5.2929,5.2929,5.2929,5.2929,5.3206,5.3733,0.0,0.0,0.0,0.0,0.0,0.0,0.0,0.0,0.0,0.0,0.0,0.0,0.0,0.0,0.0,0.0,0.0,0.0,0.0,0.0,3.1566,3.155,3.2332,3.2866,3.3184,3.3863,3.4635,3.5431,3.632,3.6682,3.6618,3.6252,3.6163,3.6289,3.6014,3.5187,3.391,3.3607,3.2704,3.1482,0.0,0.0,0.0,0.0,0.0,0.0,0.0,0.0,0.0,0.0,3.4685,3.5679,3.5979,0.0,0.0,0.0,0.0,0.0,4.0726,4.1594,4.2551,4.3599,4.4137,4.4466,4.4766,4.5364,4.5963,4.6322,4.7429,4.8566,4.9224,4.8899,4.8632,4.8621,4.8797,4.8464,4.7118,4.7179,4.744,0.0,0.0,4.8433,4.9035,4.9584,5.0132,5.0734,5.1282,5.1596,5.1596,5.1596,5.1471,5.1346,5.1346,5.1346,5.1094,5.0867,5.0487,5.0129,4.9719,4.959,4.9615,4.9866,5.0142,5.0469,5.1297,5.1825,5.2151,5.2703,5.2929,5.2929,5.2929,5.2929,5.2955,5.3256,5.3683,5.4235,0.0,0.0,0.0,0.0,0.0,0.0,0.0,0.0,0.0,0.0,0.0,0.0,0.0,0.0,0.0,0.0,0.0,0.0,0.0,3.1778,3.2085,3.1992,3.2912,3.3541,3.3918,3.4465,3.5309,3.6507,3.7333,3.7575,3.7269,3.6532,3.6289,3.6507,3.6507,3.5707,3.4273,3.409,3.3184,3.1807,0.0,0.0,0.0,0.0,0.0,0.0,0.0,0.0,0.0,0.0,0.0,0.0,0.0,0.0,0.0,3.8722,3.9113,3.9541,4.0786,4.1265,4.1863,4.3808,4.4706,4.5185,4.5663,4.6292,4.701,4.7818,4.8925,4.9912,5.0571,4.9708,4.8406,4.6972,4.7539,4.797,4.7529,4.7414,4.7545,4.812,4.8172,4.8486,4.9191,4.9636,5.0185,5.0917,5.1361,5.1596,5.1596,5.1596,5.1596,5.1596,5.1596,5.1596,5.1596,5.1246,5.0867,5.0359,4.9976,4.9923,4.992,5.0046,5.0424,5.0845,5.1423,5.19,5.2327,5.2754,5.2929,5.2929,5.2929,5.3005,5.3155,5.3557,5.4059,5.4561,0.0,0.0,0.0,0.0,0.0,0.0,0.0,0.0,0.0,0.0,0.0,0.0,0.0,0.0,0.0,0.0,0.0,0.0,0.0,3.1868,3.263,3.263,3.3453,3.3681,3.3171,3.5236,3.6384,3.6507,3.8415,3.8723,3.7492,3.6595,3.6289,3.6507,3.6507,3.6014,3.5095,3.4453,3.3663,3.2877,3.2239,0.0,0.0,0.0,0.0,0.0,0.0,0.0,0.0,0.0,0.0,0.0,0.0,0.0,3.7195,3.9063,3.9214,3.8993,4.0171,4.0905,4.1863,4.3808,4.4347,4.4855,4.6741,4.7668,4.8506,4.9763,5.0601,5.1289,5.1947,5.167,5.1177,5.0416,4.9116,4.8241,4.8195,0.0,4.7545,4.812,4.8172,4.8616,4.974,4.9871,5.0342,5.1465,5.157,5.1596,5.1596,5.1596,5.1596,5.1596,5.1596,5.1596,5.1596,5.1246,5.112,5.0994,5.0741,5.0614,5.0785,5.1423,5.1715,5.2026,5.2578,5.2829,5.2879,5.2904,5.2929,5.2929,5.2929,5.3231,5.3658,5.3683,5.4059,5.4561,0.0,0.0,0.0,0.0,0.0,0.0,0.0,0.0,0.0,0.0,0.0,0.0,0.0,0.0,0.0,0.0,0.0,0.0,0.0,3.2295,3.2899,3.2471,3.3743,3.443,3.4186,3.5315,3.6476,3.7738,3.8508,3.8631,3.8108,3.6506,3.6014,3.6476,3.6045,3.5646,3.5187,3.4942,3.4149,3.2968,3.2725,3.2361,0.0,0.0,0.0,0.0,0.0,0.0,0.0,0.0,3.3148,3.4303,3.6009,3.701,3.7849,3.9595,4.0031,4.0148,4.1009,4.188,4.306,4.5065,4.5873,4.6471,4.7638,4.8745,4.9523,4.9613,5.081,5.1816,5.1857,5.1121,5.0218,4.9304,4.8295,4.7695,4.7597,4.778,4.7937,4.8146,4.8512,4.9035,4.9819,5.0237,5.076,5.1544,5.1596,5.1596,5.1596,5.1596,5.1596,5.1596,5.1596,5.1596,5.1596,5.1471,5.1346,5.1346,5.0842,5.0589,5.0459,5.1277,5.1372,5.1122,5.227,5.2538,5.2452,5.2779,5.2929,5.2955,5.3281,5.3331,5.3306,5.3984,5.416,5.4034,0.0,0.0,0.0,0.0,0.0,0.0,0.0,0.0,0.0,0.0,0.0,0.0,0.0,0.0,0.0,0.0,0.0,0.0,3.119,3.2577,3.3186,3.2645,3.4018,3.4956,3.5291,3.5603,3.6631,3.8508,3.8508,3.8385,3.8169,3.6569,3.6045,3.6476,3.6014,3.5738,3.5585,3.537,3.4575,3.3447,3.3233,3.2745,0.0,0.0,0.0,0.0,0.0,0.0,0.0,0.0,3.305,3.4147,3.583,3.7021,3.808,3.9558,4.0355,4.0945,4.1776,4.2647,4.3868,4.6082,4.713,4.7848,4.8716,4.9763,5.0481,5.0242,5.1588,5.2643,5.1932,5.0862,4.9867,4.89,4.7947,4.7388,4.7571,4.7937,4.8172,4.8172,4.8721,4.9296,4.9845,5.0446,5.1021,5.1544,5.1596,5.1596,5.1596,5.1596,5.1596,5.1596,5.1596,5.1596,5.1596,5.1596,5.1701,5.1884,5.1379,5.11,5.092,5.1562,5.1685,5.138,5.227,5.2624,5.2402,5.2779,5.2929,5.2955,5.3306,5.3331,5.3256,5.3833,5.3909,5.3683,0.0,0.0,0.0,0.0,0.0,0.0,0.0,0.0,3.119,3.119,3.119,0.0,0.0,0.0,0.0,0.0,0.0,0.0,3.119,3.2577,3.3423,3.3423,3.4284,3.5186,3.6088,3.6222,3.7027,3.8508,3.8508,3.8169,3.7492,3.6815,3.6476,3.6507,3.6476,3.6476,3.6445,3.5768,3.5091,3.4414,3.3706,3.2998,3.2382,0.0,0.0,0.0,0.0,0.0,0.0,0.0,3.3315,3.3625,3.5799,3.6842,3.7541,3.8825,4.006,4.1213,4.2289,4.3007,4.4018,4.6651,4.7818,4.8656,4.9972,5.075,5.1409,5.2067,5.3294,5.3893,5.2587,5.1518,5.0649,5.0045,4.8452,4.7545,4.812,4.8172,4.8172,4.8172,4.8721,4.9296,4.9845,5.0446,5.1021,5.157,5.1596,5.1596,5.1596,5.1596,5.1596,5.1596,5.1596,5.1596,5.1596,5.1596,5.1884,5.2485,5.2485,5.267,5.2802,5.2436,5.2813,5.3478,5.3067,5.2929,5.2929,5.2929,5.2929,5.2929,5.2929,5.3256,5.3632,5.313,5.3256,5.3632,0.0,0.0,0.0,0.0,0.0,0.0,0.0,0.0,3.119,3.119,3.119,0.0,0.0,0.0,0.0,0.0,0.0,0.0,3.119,3.2577,3.3423,3.3423,3.4678,3.5552,3.5941,3.6573,3.7385,3.8508,3.8464,3.8122,3.7461,3.6781,3.644,3.6476,3.6438,3.644,3.6445,3.5768,3.5091,3.4414,3.3706,3.2998,3.2382,0.0,0.0,0.0,0.0,0.0,0.0,0.0,0.0,0.0,3.6138,3.7277,3.8319,3.918,4.0944,4.2694,4.3015,4.4679,4.6665,4.7929,4.8925,5.0002,5.1319,5.1768,5.2247,5.3384,5.3922,5.4012,5.3273,5.1803,5.0649,5.0045,4.8452,4.7545,4.812,4.8172,4.8172,4.8172,4.9061,4.9714,4.9871,5.0786,5.1413,5.1596,5.1596,5.1596,5.1596,5.1596,5.1596,5.1596,5.1596,5.1596,5.1596,5.1596,5.1675,5.1858,5.2302,5.267,5.2828,5.3374,5.334,5.2894,5.3411,5.3316,5.2929,5.2929,5.2929,5.2955,5.3331,5.3331,5.3181,5.3381,5.3331,5.313,0.0,0.0,0.0,0.0,0.0,0.0,3.119,3.119,3.119,3.119,3.119,3.119,0.0,0.0,0.0,3.119,3.119,3.119,3.119,3.2307,3.3085,3.3389,3.4539,3.5383,3.5893,3.6659,3.7375,3.7995,3.8201,3.8138,3.7836,3.7105,3.6829,3.6815,3.6591,3.6442,3.6445,3.5768,3.5245,3.4814,3.4106,3.3583,3.3213,0.0,0.0,0.0,0.0,0.0,0.0,0.0,0.0,0.0,3.6292,3.743,3.8662,3.9204,4.1362,4.3594,4.3791,4.5777,4.8022,4.8683,4.9554,5.0661,5.2217,5.2785,5.3294,5.4371,5.461,5.4167,5.2905,5.1932,5.071,4.9422,4.832,4.778,4.8146,4.8172,4.8172,4.8172,4.9191,4.9897,4.9897,5.0917,5.1596,5.1596,5.1596,5.1596,5.1596,5.1596,5.1596,5.1596,5.1596,5.1596,5.1596,5.1596,5.1831,5.2328,5.2433,5.2775,5.3426,5.3791,5.3421,5.2444,5.2775,5.2658,5.2302,5.2503,5.2603,5.2653,5.3181,5.3206,5.2955,5.3281,5.3206,5.2929,0.0,0.0,0.0,0.0,0.0,0.0,3.119,3.119,3.119,3.119,3.119,3.119,0.0,0.0,0.0,3.119,3.119,3.119,3.119,3.1867,3.2611,3.3389,3.4167,3.4992,3.5843,3.6506,3.6997,3.7156,3.776,3.8149,3.8181,3.7642,3.7381,3.7263,3.6815,3.6538,3.6445,3.5768,3.5491,3.543,3.4752,3.4475,3.4475,3.4475,0.0,0.0,0.0,0.0,0.0,0.0,0.0,0.0,3.6199,3.7338,3.8473,3.8977,4.1328,4.394,4.4478,4.6431,4.8595,4.9194,4.9883,5.096,5.2785,5.3773,5.4461,5.5059,5.5179,5.4539,5.2136,5.1674,5.0934,4.8637,4.8172,4.8172,4.8172,4.8172,4.8198,4.825,4.9218,4.9897,4.9976,5.0969,5.1596,5.1596,5.1596,5.1596,5.1596,5.1596,5.1596,5.1596,5.1596,5.1596,5.1596,5.1648,5.2197,5.3217,5.2825,5.3112,5.3975,5.3711,5.3214,5.2305,5.1671,5.1272,5.1322,5.1875,5.2101,5.2151,5.2703,5.2929,5.2929,5.2929,5.2929,5.2929,0.0,0.0,0.0,0.0,0.0,0.0,3.119,3.119,3.119,3.119,3.119,3.119,3.119,3.119,0.0,3.119,3.119,3.119,3.119,3.1867,3.2611,3.3389,3.4675,3.5431,3.5677,3.5811,3.6236,3.688,3.7135,3.7294,3.7413,3.7302,3.6965,3.6569,3.6987,3.6937,3.6445,3.5768,3.5491,3.543,3.4752,3.4475,3.4475,3.4475,3.4475,0.0,0.0,0.0,0.0,0.0,0.0,0.0,3.5645,3.663,3.7861,3.8473,4.0842,4.3503,4.4204,4.6766,4.9343,4.9494,5.1116,5.2665,5.3084,5.4102,5.5029,5.5149,5.5179,5.4539,5.2136,5.1674,5.0934,4.8637,4.8172,4.8172,4.8172,4.8172,4.8355,4.8826,4.9479,5.008,5.0551,5.1204,5.1596,5.1596,5.1596,5.1596,5.1596,5.1596,5.1596,5.1596,5.1596,5.1596,5.1596,5.2067,5.2197,5.1988,5.3243,5.3243,5.2197,5.3009,5.2984,5.2331,5.191,5.1538,5.1322,5.1875,5.2101,5.2151,5.2703,5.2929,5.2929,5.2929,5.2929,5.2929,0.0,0.0,0.0,0.0,0.0,0.0,0.0,0.0,3.1596,3.1258,3.119,3.119,3.119,3.119,0.0,0.0,3.119,3.119,3.119,3.1562,3.2104,3.2848,3.3964,3.4709,3.5081,3.5081,3.5622,3.6772,3.6491,3.6737,3.7496,3.6971,3.6561,3.6294,3.642,3.6288,3.5984,3.5645,3.5676,3.5922,3.5245,3.5153,3.543,3.543,3.543,3.543,3.543,0.0,0.0,0.0,0.0,0.0,0.0,0.0,3.7277,3.8468,4.0659,4.2999,4.4264,4.6849,4.9372,5.0125,5.1802,5.3174,5.3174,5.4221,5.5179,5.5179,5.5179,5.4539,5.2136,5.1674,5.0934,4.8637,4.8172,4.8172,4.8172,4.8172,4.8407,4.9008,4.9557,5.0132,5.0734,5.1282,5.1596,5.1596,5.1596,5.1596,5.1596,5.1596,5.1596,5.1596,5.1596,5.1596,5.1596,5.2197,5.2485,5.2459,5.3086,5.2746,5.1622,5.2123,5.2181,5.1895,5.1224,5.0882,5.0921,5.1473,5.1875,5.2151,5.2703,5.2929,5.2929,5.2929,5.2929,5.2929,0.0,0.0,0.0,0.0,0.0,0.0,0.0,0.0,0.0,3.1258,3.119,3.119,3.119,3.119,3.119,0.0,0.0,0.0,3.119,3.1326,3.1664,3.2239,3.3017,3.3694,3.4303,3.4438,3.5115,3.64,3.5994,3.6468,3.7672,3.6533,3.6064,3.6097,3.5681,3.5521,3.5672,3.5675,3.5984,3.6445,3.5891,3.5984,3.6507,3.6507,3.6507,3.6476,3.6353,3.5953,3.543,3.5214,0.0,0.0,0.0,0.0,3.6722,3.8555,4.0445,4.2328,4.4308,4.6849,4.9251,5.0936,5.2312,5.3271,5.3271,5.4321,5.528,5.5179,5.5179,5.4539,5.2352,5.2,5.1237,4.8842,4.8521,4.8405,4.8172,4.8172,4.8433,4.9139,4.961,5.0159,5.0864,5.1335,5.1596,5.1596,5.1596,5.1596,5.1596,5.1596,5.1596,5.1596,5.1596,5.1648,5.1753,5.225,5.2798,5.34,5.2877,5.2328,5.1753,5.1528,5.1355,5.1306,5.0563,5.0305,5.0469,5.1046,5.1599,5.2151,5.2703,5.2929,5.2929,5.2929,5.2929,5.2929,0.0,0.0,0.0,0.0,0.0,0.0,0.0,0.0,0.0,0.0,3.119,3.119,3.119,3.119,3.119,3.119,3.119,3.119,3.119,0.0,0.0,3.2313,3.3017,3.3457,3.3558,3.4167,3.4607,3.481,3.6028,3.6738,3.6941,3.5744,3.544,3.5926,3.5634,3.576,3.6173,3.6321,3.6415,3.6476,3.6384,3.6415,3.6507,3.6507,3.6507,3.6415,3.583,3.5553,3.5306,3.4075,3.4044,0.0,0.0,0.0,3.6014,3.7981,3.9474,4.1015,4.367,4.7015,5.0122,5.1546,5.291,5.3784,5.3592,5.4616,5.5481,5.528,5.5179,5.4743,5.3413,5.3203,5.243,5.0014,4.9702,4.9388,4.8289,4.8172,4.859,4.9662,4.9845,5.0315,5.1387,5.1544,5.1596,5.1596,5.1596,5.1596,5.1596,5.1596,5.1596,5.1596,5.1596,5.1858,5.238,5.2459,5.2798,5.34,5.3321,5.2955,5.238,5.238,5.1765,5.0716,5.0639,5.0537,5.0469,5.1046,5.1599,5.2151,5.2703,5.2929,5.2929,5.2929,5.2929,5.298,0.0,0.0,0.0,0.0,0.0,0.0,0.0,0.0,0.0,0.0,0.0,3.119,3.119,3.119,3.119,3.119,3.119,3.119,3.119,3.1495,3.1664,3.1664,3.2002,3.2374,3.2747,3.3491,3.41,3.4506,3.6028,3.6772,3.6772,3.634,3.6338,3.6588,3.6516,3.6628,3.6886,3.6924,3.7178,3.7445,3.6785,3.7188,3.8029,3.6878,3.7184,3.8046,3.6999,3.6384,3.5953,3.5337,3.4845,3.4537,3.4906,0.0,0.0,0.0,3.9395,4.1158,4.4969,4.779,4.9931,5.1091,5.2457,5.352,5.3819,5.4443,5.5129,5.5421,5.528,5.4845,5.3623,5.3413,5.2857,5.1127,5.0906,5.0462,4.9274,4.916,4.9382,4.9861,4.9897,5.0342,5.1492,5.1596,5.1596,5.1596,5.1596,5.1596,5.1596,5.1596,5.1596,5.1596,5.1936,5.2223,5.2485,5.3138,5.3583,5.3844,5.353,5.3086,5.2511,5.2851,5.2102,5.0614,5.1202,5.115,5.0946,5.1766,5.2186,5.2578,5.2829,5.2929,5.2929,5.2929,5.2929,5.3005,0.0,0.0,0.0,0.0,0.0,0.0,0.0,0.0,0.0,0.0,0.0,3.1274,3.119,0.0,0.0,0.0,3.119,3.119,3.119,3.119,3.119,3.119,3.119,3.1461,3.2002,3.2747,3.3491,3.4201,3.5757,3.6603,3.6806,3.7334,3.7586,3.7569,3.7392,3.7405,3.7492,3.7591,3.7911,3.8254,3.7494,3.8091,3.9283,3.8025,3.8446,3.9647,3.8631,3.7954,3.7461,3.7123,3.623,3.5306,3.5645,3.5614,0.0,0.0,0.0,4.1853,4.5598,4.7865,4.9402,5.0571,5.1911,5.3099,5.3675,5.4274,5.4805,0.0,5.526,5.4976,5.3964,5.386,5.3518,5.2323,5.2108,5.1674,5.0573,5.035,5.0363,5.0314,5.0565,5.1016,5.1616,5.1819,5.1944,5.1596,5.1596,5.1596,5.1596,5.1596,5.1675,5.1831,5.2276,5.2642,5.2929,5.3922,5.421,5.3766,5.3818,5.3452,5.2746,5.3347,5.2776,5.1177,5.1872,5.1998,5.1657,5.2304,5.2674,5.2929,5.2929,5.2929,5.2929,5.2929,5.3005,5.3206,0.0,0.0,0.0,0.0,0.0,0.0,0.0,0.0,0.0,0.0,0.0,3.1545,3.123,3.119,3.119,3.119,3.119,3.119,3.119,3.119,3.119,3.119,3.119,0.0,3.1258,3.1968,3.2713,3.3457,3.4945,3.6062,3.6806,3.8261,3.8888,3.8839,3.7748,3.7567,3.8077,3.8209,3.8278,3.8351,3.9023,3.9345,3.944,4.0034,4.0385,4.0478,4.0385,4.0355,4.0139,3.8846,3.7923,3.7246,3.663,3.5984,3.5768,0.0,0.0,0.0,4.4326,4.6665,4.9004,5.0389,5.1775,5.2854,5.3254,5.4101,5.4849,5.4715,5.496,5.5179,5.5078,5.5078,5.4743,5.3518,5.3308,5.2886,5.1783,5.1565,5.16,5.1584,5.2619,5.2856,5.1714,5.2658,5.2903,5.1721,5.1596,5.1596,5.1596,5.1596,5.1858,5.2433,5.2485,5.3008,5.4105,5.4733,5.421,5.2616,5.4236,5.4419,5.3373,5.3922,5.3557,5.2725,5.2751,5.2693,5.2565,5.259,5.2674,5.2929,5.2929,5.2929,5.2929,5.2929,5.3231,5.3733,0.0,0.0,0.0,0.0,0.0,0.0,0.0,0.0,0.0,0.0,0.0,0.0,0.0,3.119,3.119,3.119,3.119,3.119,3.119,3.119,3.119,3.119,3.119,3.119,3.119,3.2374,3.3152,3.3423,3.5385,3.6502,3.6806,3.7821,3.8294,3.8328,3.8891,3.9191,3.9345,3.9036,3.9346,4.0093,3.961,4.0452,4.1917,4.0888,4.1938,4.3693,4.2386,4.2504,4.3062,4.11,4.0044,3.925,3.7652,3.7277,3.7677,3.9062,4.0632,4.2325,4.411,4.5926,4.765,4.9004,5.0728,5.2236,5.2733,5.3712,5.4592,5.4952,5.5395,5.5681,5.5481,5.528,5.5078,5.4641,5.4539,5.42,5.2992,5.2751,5.2807,5.2823,5.3189,5.3664,5.3974,5.4442,5.4204,5.2903,5.278,5.278,5.278,5.2068,5.2233,5.369,5.3361,5.3452,5.4184,5.4419,5.4027,5.3086,5.4053,5.3922,5.2877,5.4184,5.4131,5.3296,5.4026,5.3838,5.3043,5.3644,5.3682,5.3341,5.3341,5.3067,5.2929,5.2929,5.3256,5.3783,0.0,0.0,0.0,0.0,0.0,0.0,0.0,0.0,3.2715,3.2299,0.0,0.0,0.0,0.0,3.119,3.119,3.1274,3.1312,3.119,3.119,3.119,3.119,3.119,3.1326,3.1562,3.2273,3.3017,3.3761,3.5047,3.5893,3.64,3.7178,3.7516,3.7584,3.8802,3.9478,3.9715,3.9276,3.9897,4.1115,4.0324,4.1755,4.4074,4.2459,4.3969,4.6598,4.4695,4.4741,4.5576,4.3635,4.2497,4.1565,3.9539,3.8692,3.8723,3.9862,4.0693,4.1648,4.3433,4.491,4.6296,4.7865,4.9466,5.0974,5.2113,5.3039,5.3835,5.4507,5.5201,5.5645,5.5417,5.5249,5.514,5.5149,5.528,5.5048,5.4068,5.3964,5.4013,5.4059,5.4423,5.4909,5.5387,5.5732,5.55,5.4204,5.4084,0.0,5.4084,5.3389,5.3401,5.4677,5.4176,5.4053,5.421,5.421,5.3922,5.34,5.3766,5.353,5.2851,5.4184,5.4393,5.3713,5.468,5.4597,5.3726,5.4428,5.4286,5.3614,5.3955,5.3655,5.3092,5.3268,5.3671,5.4084,0.0,0.0,0.0,0.0,0.0,0.0,3.4168,3.4657,3.4693,3.3598,0.0,0.0,0.0,0.0,0.0,3.1263,3.1538,3.1614,3.1263,3.1258,3.1258,3.1258,3.1258,3.1596,3.2347,3.163,3.2341,3.4506,3.3795,3.4201,3.5656,3.64,3.6738,3.6772,3.7516,3.8261,3.8971,3.9005,3.9884,4.1235,4.1383,4.3124,4.5626,4.5021,4.655,4.8828,4.731,4.7277,4.7643,4.6176,4.5187,4.437,4.2294,4.0232,3.8692,3.937,4.0016,4.0847,0.0,0.0,0.0,4.7065,4.8112,4.9127,5.119,0.0,5.252,5.3193,5.4196,5.4947,5.4916,5.4947,5.5092,5.519,5.5381,5.5451,5.5179,5.5179,5.5248,5.5322,5.6433,5.6721,5.5619,5.6537,5.6736,5.55,5.5383,5.5383,5.5383,5.544,5.5408,5.5247,5.5232,5.4811,5.421,5.421,5.3922,5.3373,5.34,5.34,5.34,5.3949,5.421,5.4236,5.4837,5.4939,5.4537,5.5132,5.4893,5.4048,5.4612,5.4372,5.3554,5.4112,5.4365,5.4637,0.0,0.0,0.0,0.0,0.0,3.5591,3.5357,3.522,3.5047,0.0,0.0,0.0,3.408,3.3567,3.299,3.2475,3.2724,3.2666,3.2043,3.251,3.278,3.278,3.278,3.2882,3.3085,3.3423,3.3897,3.4506,3.4844,3.5216,3.5622,3.5825,3.5926,3.596,3.6163,3.6975,3.8261,3.9343,4.0663,4.2165,4.3794,4.4916,4.5761,4.7171,4.8472,4.9564,4.9041,4.9741,5.0461,4.7884,4.6967,4.6416,4.3871,4.1617,4.0108,4.0816,4.0786,4.0847,4.2232,0.0,0.0,0.0,0.0,0.0,4.9989,0.0,0.0,5.2854,5.3898,5.4877,5.5114,5.5302,5.545,5.546,5.5189,5.4939,5.5119,5.5179,5.5556,5.6496,5.6885,5.7391,5.8048,5.8386,5.8026,0.0,5.6736,5.6736,5.6736,5.7513,5.7231,5.5247,5.6084,5.5812,5.421,5.421,5.3713,5.2746,5.3191,5.3164,5.2772,5.3766,5.421,5.4236,5.4837,5.5099,5.4965,5.5121,5.4827,5.4402,5.4557,5.426,5.3938,5.4526,5.481,5.5138,0.0,0.0,3.6399,3.6725,3.7087,3.7094,3.66,3.6611,3.6471,0.0,0.0,0.0,3.4726,3.4749,3.438,3.3425,3.3528,3.3386,3.278,3.3152,3.3423,3.3423,3.3423,3.3558,3.3863,3.3964,3.4336,3.4979,3.5081,3.5318,3.5622,3.5622,3.5791,3.6096,3.6096,3.6941,3.8464,3.9952,4.1238,4.2436,4.374,4.5211,4.6643,4.7872,4.9374,5.0738,5.0329,5.1182,5.2152,4.9708,4.8345,4.7294,4.5094,4.3217,4.1832,4.1986,4.1709,4.1648,4.2725,4.3279,4.3987,4.5741,0.0,0.0,4.9404,5.082,0.0,0.0,5.3775,5.4421,5.4972,5.4974,5.5003,5.5274,5.4782,5.4496,5.516,5.497,0.0,5.6555,5.6705,5.7244,5.856,5.871,5.8446,5.8026,5.8026,5.8143,5.8408,5.8839,5.8545,5.7332,5.7185,5.6542,5.5442,5.4341,5.353,5.2877,5.2981,5.2825,5.2537,5.3687,5.421,5.4236,5.4837,5.5099,5.5099,5.5099,5.4939,5.4805,5.5039,5.4873,5.4679,5.5272,5.556,5.5776,0.0,0.0,3.7446,3.8282,3.8971,3.9047,3.7972,3.8436,3.8538,0.0,3.6738,3.6033,3.5328,3.5817,3.5657,3.4397,3.4341,3.4172,3.3525,3.3694,3.3728,3.366,3.366,3.3964,3.4607,3.3998,3.4303,3.5622,3.4945,3.4979,3.5622,3.5622,3.6028,3.6772,3.6772,3.7652,3.9208,4.0595,4.1726,4.2576,4.2823,4.4886,4.7801,4.8041,4.9751,5.188,5.1227,5.1914,5.2877,5.1305,4.9466,4.7619,4.6326,4.5033,4.3864,4.3063,4.2817,4.294,4.3433,4.3556,4.3895,4.5249,4.6049,0.0,4.9004,4.9989,5.1005,0.0,0.0,5.3714,5.4391,5.4083,5.396,5.48,0.0,0.0,0.0,0.0,0.0,0.0,0.0,0.0,5.7902,5.8022,5.8291,5.8949,5.9069,5.9398,6.0057,5.9644,5.9451,5.9825,5.8258,5.7221,5.6834,5.4625,5.3478,5.3478,5.2877,5.2642,5.272,5.3739,5.4236,5.4341,5.4863,5.5099,5.5099,5.5099,5.5099,5.5151,5.5621,5.5721,5.5468,5.6038,5.6442,5.6687,3.8085,3.8089,3.8458,3.9804,3.9695,3.9515,3.9842,4.0059,4.0059,3.9842,3.9662,3.9408,3.8857,3.8611,3.779,3.6015,3.6659,3.6322,3.4404,3.5453,3.5859,3.5216,3.5182,3.525,3.5385,3.525,3.5318,3.5622,3.5487,3.5487,3.5622,3.5622,3.6028,3.6772,3.6772,3.7956,3.9952,4.0832,4.2299,4.4251,4.6022,4.7141,4.7993,5.0246,5.1089,5.1118,5.1976,5.2529,5.2647,5.177,5.0513,4.9127,4.8296,4.7465,4.648,4.4695,4.4202,4.411,4.3679,4.3556,4.3895,4.5249,4.568,0.0,4.7681,4.8543,4.9281,0.0,0.0,0.0,5.2975,5.3437,0.0,0.0,0.0,0.0,0.0,0.0,0.0,0.0,0.0,0.0,5.7214,5.7304,5.7573,5.8261,5.88,5.9398,6.0057,6.0492,6.0061,5.8503,5.8603,5.7706,5.5472,5.4525,5.4053,5.4053,5.3478,5.3452,5.387,5.4105,5.4471,5.4942,5.5046,5.5099,5.5099,5.5099,5.5099,5.5125,5.5229,5.5517,5.5851,5.6451,5.6886,5.7165,3.8915,3.8594,3.8782,4.0238,4.0202,4.0093,4.0456,4.0854,4.0963,4.0564,4.0635,4.0548,4.0035,3.9905,3.9293,3.8043,3.8128,3.766,3.6265,3.6569,3.6603,3.6231,3.5825,3.5622,3.5622,3.5622,3.5622,3.5622,3.5622,3.5825,3.6197,3.6197,3.7212,3.8971,3.8599,3.9681,4.1847,4.2963,4.4293,4.5718,4.6453,4.705,4.7903,4.9972,5.0785,5.0913,5.2606,5.3221,5.3127,5.2517,5.1654,5.0599,5.0019,4.9295,4.8379,4.7092,4.6222,4.5434,4.4756,4.4326,4.4233,4.491,4.5341,0.0,0.0,4.7896,4.8912,0.0,0.0,5.1498,5.2513,0.0,5.3069,0.0,0.0,0.0,0.0,0.0,0.0,0.0,0.0,0.0,5.7004,5.7094,5.7663,5.9009,5.9398,6.0027,6.1044,6.1403,6.1282,6.0555,5.9635,5.8439,5.7092,5.5101,5.421,5.421,5.3922,5.3949,5.421,5.4524,5.4811,5.5099,5.5099,5.5099,5.5099,5.5099,5.5255,5.5517,5.5517,5.5857,5.6432,5.7007,5.7442,5.7952,3.9491,3.9061,3.9034,4.0527,4.0745,4.0782,4.0963,4.1506,4.1759,4.1252,4.1528,4.1517,4.1007,4.1104,4.0916,4.0306,3.9859,3.926,3.8458,3.7801,3.7394,3.7212,3.6332,3.5926,3.6062,3.5757,3.5622,3.5622,3.5791,3.6163,3.6772,3.6941,3.8362,4.0764,4.046,4.1474,4.3538,4.5365,4.654,4.7144,4.6684,4.7355,4.8879,4.9946,5.0801,5.176,5.3374,5.3837,5.3651,5.3396,5.276,5.1955,5.1539,5.0891,5.0283,4.9157,4.8026,4.6973,4.6049,4.528,4.4787,4.4941,4.528,4.5772,0.0,0.0,0.0,0.0,0.0,0.0,0.0,0.0,0.0,0.0,0.0,0.0,0.0,0.0,0.0,0.0,0.0,0.0,5.6749,5.7064,5.7962,5.9578,6.0057,6.0775,6.1852,6.2032,6.2276,6.2672,6.0566,5.9189,5.869,5.609,5.463,5.4367,5.4367,5.4367,5.4393,5.4889,5.5099,5.5099,5.5099,5.5099,5.5099,5.5099,5.5412,5.5909,5.5909,5.6353,5.7033,5.7477,5.8026,5.8601,3.9589,3.9564,3.9935,4.1469,4.1615,4.1796,4.252,4.2701,4.2991,4.3607,4.4012,4.41,4.3613,4.392,4.3657,4.2501,4.2929,4.2364,4.0201,3.9948,3.9593,3.8768,3.7381,3.6975,3.7618,3.6332,3.5622,3.5622,3.6299,3.6705,3.6806,3.7483,3.8294,3.9309,4.0527,4.1948,4.3606,4.6447,4.7963,4.8589,4.9283,5.0876,0.0,5.2635,5.3449,5.4655,5.4575,5.4237,5.3775,0.0,5.4083,5.3375,5.2695,5.288,5.2637,4.9519,4.8964,4.8912,4.7004,4.5988,4.5618,4.6203,4.5988,4.5772,4.6449,0.0,4.7034,4.7804,0.0,0.0,0.0,0.0,0.0,0.0,0.0,0.0,0.0,0.0,0.0,0.0,0.0,0.0,0.0,5.7079,5.8112,5.8321,5.9997,6.1074,6.1224,6.1792,6.1902,6.1316,6.1077,5.9711,5.7322,5.7011,5.6103,5.4994,5.4994,5.4994,5.4994,5.5072,5.5099,5.5099,5.5099,5.5099,5.5099,5.5099,5.5412,5.5909,5.5909,5.6588,5.7582,5.7634,5.8026,5.8601,3.8967,3.9374,4.0039,4.1032,4.1542,4.2087,4.2774,4.3281,4.3782,4.4335,4.4527,4.4662,4.4589,4.4378,4.4265,4.444,4.432,4.3735,0.0,4.141,4.0544,3.9681,3.8227,3.7584,3.7889,3.728,3.6941,3.6941,3.728,3.7652,3.8058,3.8396,3.9614,4.161,4.2692,4.4248,4.621,4.8748,5.0456,5.1586,5.2274,5.393,0.0,5.2877,5.3067,5.4849,5.47,5.4791,5.4853,0.0,5.4791,0.0,5.4193,5.4417,5.4422,5.2379,5.1313,5.0513,4.885,4.7865,4.7311,4.7219,4.6973,4.6819,4.7127,4.688,4.6665,4.6973,0.0,0.0,0.0,0.0,0.0,0.0,5.1904,0.0,0.0,0.0,0.0,0.0,0.0,0.0,0.0,0.0,0.0,0.0,6.0775,6.1672,6.1672,6.2301,6.2549,6.2321,6.1465,6.0202,5.8313,5.7451,5.6471,5.5099,5.5099,5.5099,5.5099,5.5099,5.5099,5.5099,5.5099,5.5099,5.5125,5.5438,5.5909,5.6458,5.6798,5.7216,5.7712,5.8026,5.8314,5.8549,3.8596,3.9223,3.9962,4.063,4.1395,4.2196,4.3139,4.3935,4.4574,4.5078,4.5416,4.5704,4.5917,4.6012,4.6293,4.686,4.6549,4.5909,0.0,0.0,4.2396,4.1696,3.9817,3.9005,3.9411,3.8633,3.8193,3.8193,3.8396,3.8667,3.9005,3.9411,4.0764,4.2861,4.4045,4.5703,4.7767,5.0202,5.1965,5.3245,5.4334,5.5804,5.7053,5.3789,5.3465,5.4791,5.5161,5.5468,5.5653,5.5376,5.5468,0.0,5.5309,5.5409,5.5503,5.4246,5.3108,5.2021,5.082,4.9866,4.9097,4.882,4.845,4.8173,4.8173,4.765,4.7219,4.7404,4.7127,0.0,0.0,0.0,4.9281,5.0389,0.0,5.1999,0.0,0.0,0.0,0.0,0.0,0.0,0.0,0.0,0.0,0.0,0.0,6.1935,6.1822,6.245,6.2899,6.3079,6.2204,6.0957,5.9683,5.834,5.6963,5.5604,5.5363,5.5255,5.5099,5.5255,5.5255,5.5099,5.5099,5.5177,5.536,5.5752,5.6353,5.7085,5.7503,5.7765,5.7948,5.8366,5.8523,5.8523,3.8872,3.9186,3.9859,4.0662,4.1431,4.2414,4.4013,4.4844,4.5562,4.6359,4.7471,4.8227,4.8398,5.0115,5.1002,5.0303,0.0,4.9925,4.826,0.0,4.5862,4.575,4.2765,4.1779,0.0,4.0426,3.8937,3.8937,3.9681,3.9681,3.9039,4.046,4.117,4.1373,4.3572,4.5399,4.7022,4.9965,5.1598,5.2407,5.4724,5.6057,5.6612,0.0,5.5965,5.4914,5.6207,0.0,0.0,5.6484,5.6238,0.0,0.0,5.5653,5.5438,5.4083,5.3683,5.3498,5.279,5.1652,5.079,5.1405,5.0574,4.962,4.962,4.9066,4.8758,4.9435,4.8512,4.7989,4.9404,4.9651,4.922,4.7958,4.9435,0.0,0.0,0.0,0.0,0.0,0.0,0.0,0.0,0.0,0.0,0.0,0.0,0.0,6.1134,6.1762,6.2421,6.3049,6.3079,6.2438,6.1077,5.9711,5.8313,5.6963,5.6265,5.5621,5.5125,5.5647,5.5595,5.5099,5.5099,5.5386,5.5883,5.5909,5.6588,5.7634,5.766,5.8,5.8497,5.8497,5.8523,5.8523,3.9533,4.0024,4.0617,4.0802,4.157,4.2777,4.4815,4.5797,4.6779,0.0,0.0,0.0,0.0,5.1473,5.1956,0.0,0.0,5.1164,5.0057,4.8987,0.0,0.0,0.0,4.3436,0.0,4.1948,4.0933,4.046,4.073,4.046,3.9715,4.0223,4.0967,4.2016,4.4316,4.6413,4.8443,5.1454,5.372,5.5391,5.7114,5.7529,5.7134,0.0,5.6298,5.6369,5.671,5.6607,0.0,5.6669,5.6915,5.6915,5.5992,5.6638,5.7469,5.6146,5.6053,5.6146,5.5037,5.436,5.3837,5.3191,5.2698,5.2359,5.2359,5.1467,5.0605,5.0389,4.962,4.9127,4.9589,4.9682,4.9682,4.9651,5.0236,5.0605,0.0,0.0,0.0,0.0,0.0,0.0,0.0,0.0,0.0,0.0,0.0,0.0,0.0,6.1732,6.2391,6.3049,6.3079,6.2468,6.1106,6.0716,5.9341,5.7092,5.6789,5.616,5.5125,5.5282,5.5282,5.5099,5.5099,5.5412,5.5935,5.6327,5.6954,5.7686,5.8078,5.834,5.8523,5.8523,5.8523,5.8575,4.0377,4.0712,4.1013,4.0906,4.2043,4.3688,4.5692,4.6676,0.0,0.0,5.0976,0.0,5.2492,0.0,5.3423,0.0,5.2998,5.2459,5.1613,5.0772,0.0,4.8677,4.7039,0.0,0.0,4.4147,4.2997,4.1982,4.1711,4.1068,4.0087,4.0629,4.1508,4.2794,4.479,4.709,4.956,5.2029,5.4194,5.6119,5.7792,5.8462,0.0,0.0,5.6899,5.7456,0.0,5.6761,5.6792,5.7038,5.7408,5.7654,5.7008,5.7715,5.8608,5.7746,5.7777,5.7931,5.7069,5.6453,5.5869,5.5007,5.4453,5.4083,5.4083,5.3221,5.2359,5.2175,5.1405,5.082,5.1067,5.0728,5.0543,5.0974,5.0851,5.079,0.0,5.159,0.0,0.0,0.0,0.0,0.0,0.0,0.0,0.0,0.0,0.0,0.0,0.0,6.2151,6.3049,6.3079,6.2701,6.1821,6.1346,6.0202,5.8467,5.7798,5.6789,5.5868,5.5549,5.5282,5.5125,5.5308,5.57,5.6275,5.6876,5.7451,5.8,5.8366,5.8523,5.8523,5.8523,5.8523,5.8575,4.1332,4.1222,4.1262,4.1232,4.2994,4.5002,0.0,0.0,4.8689,0.0,5.1937,5.3295,5.4224,5.5232,5.5519,5.4858,5.4509,5.3928,5.2997,5.2226,0.0,0.0,5.0023,4.9086,4.9052,0.0,0.0,4.347,4.2726,4.1576,4.0121,4.1542,4.2658,4.3504,4.5026,4.7361,5.0236,5.1725,5.3315,5.5006,5.7137,5.8896,6.003,5.8265,5.7956,5.8303,5.718,5.6761,5.6915,5.7562,5.7808,5.7931,5.8577,5.8793,5.8824,5.8824,5.8854,5.8885,5.8854,5.79,5.6915,5.6884,5.5899,5.4914,5.4914,5.4391,5.4083,5.4699,5.3775,5.3067,5.3714,5.2729,5.1867,5.1867,5.1221,5.0944,5.1559,5.1128,5.1467,0.0,0.0,0.0,0.0,0.0,0.0,0.0,0.0,0.0,0.0,0.0,6.1762,6.3049,6.3079,6.3079,6.3079,6.185,6.1226,6.1106,5.905,5.7765,5.7092,5.6265,5.5595,5.5125,5.5674,5.6249,5.685,5.7425,5.8,5.8523,5.8523,5.8523,5.8523,5.8523,5.8523,5.8523,4.2029,4.2983,4.4158,4.5333,4.5004,4.5553,0.0,0.0,0.0,0.0,5.3829,5.5236,5.6043,5.6905,5.7145,5.6536,5.6062,0.0,0.0,0.0,0.0,5.255,5.1278,5.0371,4.983,4.8206,0.0,4.4282,4.3504,4.2083,4.0087,4.1035,4.2185,4.3504,4.5026,4.7631,5.1014,5.2536,5.5006,5.7983,5.9099,6.0452,6.1694,0.0,6.0534,6.0642,5.7214,5.6638,5.7531,5.7715,5.8116,5.8547,5.8731,5.9131,5.9532,5.9532,5.9901,6.0178,5.9655,5.9285,5.8885,5.8393,5.7993,5.7746,5.7746,5.7223,5.6638,5.63,5.553,5.4976,5.5161,5.4514,5.396,5.396,5.2544,5.1313,5.1005,5.1251,0.0,5.2852,0.0,0.0,0.0,0.0,0.0,0.0,0.0,0.0,0.0,0.0,0.0,6.3049,6.3079,6.3079,6.3079,6.2701,6.2087,6.1106,6.0495,5.9108,5.7092,5.6866,5.6238,5.5125,5.5674,5.6249,5.685,5.7425,5.8,5.8523,5.8523,5.8523,5.8523,5.8523,5.8523,5.8523,4.3864,4.4892,4.6287,4.7902,0.0,0.0,4.9255,5.0431,0.0,5.3873,5.5273,0.0,5.774,5.77,5.7449,5.7116,5.6384,0.0,5.5308,0.0,0.0,5.3236,5.2567,5.186,5.1082,4.9932,0.0,4.6041,4.4959,4.3436,4.1542,4.1982,4.2963,4.4485,4.6007,4.8545,5.186,5.4363,5.7074,5.9722,6.0317,6.1206,0.0,6.1298,6.1501,6.1745,5.8914,5.8185,5.8429,5.874,5.9037,5.9285,5.9562,5.9932,6.024,6.024,6.0486,6.0701,6.0332,6.0024,5.9686,5.9316,5.9008,5.8793,5.8793,5.8485,5.8116,5.7715,5.71,5.67,0.0,5.6269,5.553,5.5191,5.3714,5.2544,5.2483,0.0,0.0,0.0,5.4421,0.0,0.0,0.0,0.0,0.0,5.9531,0.0,0.0,0.0,0.0,6.263,6.3044,6.3194,6.3079,6.3194,6.2817,6.1969,6.1346,6.0352,5.8843,5.8214,5.7578,5.6888,5.7091,5.7382,5.7645,5.7965,5.8235,5.8523,5.8523,5.8523,5.8523,5.8523,5.8523,5.8523,4.6067,4.6874,4.8049,4.9481,0.0,0.0,0.0,5.2013,0.0,5.5537,0.0,5.7373,5.8877,5.7984,5.7166,5.7116,0.0,5.5426,5.5189,5.4425,5.3915,5.3783,5.3686,5.3315,5.2604,5.1894,5.0473,0.0,4.6786,4.5196,4.3707,4.3707,4.4485,4.5906,4.7394,4.9763,5.2841,5.6494,5.901,6.0551,6.1172,6.1588,6.1732,6.1642,6.1867,6.2164,6.1546,6.0489,5.957,6.0266,6.038,6.0197,6.0989,6.1072,6.1,6.1,6.1,6.1,6.0794,6.0465,6.0105,5.9932,5.947,5.9039,5.9039,5.8978,5.8916,5.8916,5.8362,5.8116,5.8793,5.7962,5.6915,5.6084,5.5007,5.4422,0.0,0.0,0.0,0.0,0.0,0.0,0.0,0.0,0.0,5.8772,5.9622,6.0274,0.0,0.0,0.0,6.2211,6.3009,6.3399,6.3434,6.3399,6.3399,6.3434,6.2027,6.1255,6.1193,5.9986,5.9369,5.9261,5.9126,5.9149,5.9179,5.9115,5.892,5.8779,5.8497,5.8523,5.8523,5.8523,5.8523,5.8523,4.6911,4.8673,5.0251,5.0545,0.0,5.3702,5.3592,5.3922,5.4766,5.6381,5.6712,5.7152,5.8107,5.7977,5.7679,5.7166,5.6546,0.0,0.0,0.0,0.0,5.398,5.4362,5.4432,5.4194,5.3484,5.23,0.0,0.0,4.6752,4.5297,4.5297,4.5771,4.665,4.8139,5.0811,5.4397,5.7691,5.9599,6.0551,6.1868,6.2445,6.2581,6.3586,6.366,6.3323,6.3732,6.2605,6.1122,6.1976,6.2109,6.2063,6.3004,6.268,6.2022,6.2022,6.2022,6.1853,6.1,6.1286,6.1665,6.0815,6.0547,6.0455,6.0455,6.0024,5.9624,5.9624,5.907,5.8824,5.9501,5.9408,5.8854,5.7623,0.0,0.0,0.0,0.0,0.0,0.0,0.0,5.6598,0.0,0.0,0.0,5.838,6.0089,6.0943,0.0,0.0,0.0,0.0,6.3134,0.0,0.0,0.0,6.385,6.5019,6.3471,6.247,6.1803,6.1068,6.0516,5.9907,6.0354,6.0812,6.1445,6.1803,6.1301,6.0096,5.8894,5.8523,5.8523,5.8523,5.8523,5.8523,4.904,5.0986,5.2527,5.2123,0.0,0.0,0.0,5.6014,5.6565,5.7336,5.7409,5.774,5.8547,5.8253,5.7774,5.7166,5.6599,5.6055,5.5461,5.5029,5.4792,5.4561,5.5144,0.0,5.5314,5.4941,5.4228,5.3109,0.0,4.9893,4.912,4.8342,4.8376,4.9154,5.1048,5.3686,5.6743,5.8953,6.0461,6.1462,6.2736,6.3349,6.3519,6.4695,6.4952,6.4749,6.5493,6.4673,6.3432,6.3531,6.3307,6.3132,6.3703,6.3514,6.3036,6.3036,6.3036,6.2875,6.1853,6.1922,6.2022,6.1072,6.0794,6.0794,6.0794,6.0547,6.0301,6.0301,5.9778,5.9408,5.9716,6.0086,0.0,0.0,0.0,0.0,0.0,0.0,5.7931,0.0,0.0,0.0,0.0,0.0,0.0,5.8329,6.0224,0.0,0.0,0.0,0.0,0.0,0.0,0.0,6.4721,0.0,6.412,6.4721,6.3974,6.3326,6.2971,6.2352,6.2173,6.2186,6.2054,6.2308,6.2936,6.2783,6.2375,6.1571,6.0096,5.9568,5.9429,5.8779,5.8523,5.8523,5.1573,5.3225,5.4509,5.4069,5.6051,5.7593,5.7152,5.7593,5.7997,5.7997,5.7997,5.8253,5.8877,5.84,5.7847,5.7384,5.7009,5.6486,5.5918,5.5876,5.5744,5.5414,5.586,5.6167,5.6268,5.6098,5.5826,0.0,0.0,5.2802,5.1891,5.115,5.1116,5.1792,5.4127,5.6403,5.8522,5.9916,6.1257,6.2507,6.3674,6.421,6.4459,6.5522,6.5831,6.5797,6.6542,6.6235,6.5492,6.4927,6.4473,6.417,6.4355,6.4262,6.417,6.417,6.417,6.3891,6.2583,6.2516,6.2319,6.1072,6.0794,6.0824,6.0978,6.1009,6.1009,6.1009,6.0486,5.9993,5.9993,6.0424,0.0,0.0,0.0,0.0,0.0,0.0,0.0,0.0,0.0,0.0,5.8454,0.0,0.0,5.8971,6.0224,6.076,6.0229,0.0,0.0,0.0,0.0,6.3845,6.4661,0.0,6.439,6.4543,6.4276,6.4216,6.4186,6.3558,6.3617,6.4128,6.3793,6.4005,6.4764,6.3679,6.33,6.3037,6.1706,6.0893,6.0483,5.9315,5.8858,5.8706,5.4069,5.484,5.5684,5.6345,0.0,5.7152,5.7776,5.796,5.7997,5.7997,5.7997,5.8033,5.8107,5.8033,5.8066,5.8181,5.8115,5.7927,5.7525,5.7482,5.7178,5.6402,5.6404,5.6713,5.726,5.6577,5.6474,0.0,0.0,5.3887,5.0589,5.2332,5.3213,5.3382,5.5996,5.7566,0.0,6.0134,6.1826,6.3302,6.4581,6.5039,6.521,6.6302,6.6271,6.5797,6.6542,6.6728,6.661,6.6542,6.5908,6.5293,6.6235,6.5855,6.5204,6.5204,6.5204,6.472,6.2778,6.2972,6.3228,6.1277,6.0794,6.0948,6.1563,6.1717,6.1717,6.1717,6.1163,6.0701,6.0701,6.0763,6.0978,0.0,0.0,0.0,0.0,0.0,6.0609,6.0609,0.0,0.0,0.0,6.1071,0.0,6.108,6.0132,0.0,0.0,0.0,0.0,6.3388,0.0,6.4528,6.6637,6.4958,6.4841,6.6281,6.5323,6.4934,6.4904,6.4216,6.4276,6.4964,6.5502,6.6488,6.7468,6.5494,6.4752,6.4624,6.3169,6.184,6.062,6.0483,5.9888,5.9281,5.5941,5.6895,5.7703,0.0,0.0,0.0,0.0,5.9024,5.8914,5.9391,5.9024,5.8731,5.8731,5.9171,5.9347,5.9087,5.9522,5.9382,5.851,5.9264,5.9404,5.86,5.8942,5.9148,5.8941,5.8632,5.8323,0.0,0.0,5.7055,5.5928,5.6199,5.6367,5.6541,5.7566,5.8597,5.949,6.1071,6.238,6.3555,6.4718,6.5494,6.5926,6.6772,6.6727,6.6406,6.6878,6.693,6.6812,6.6812,6.6525,6.6235,6.6643,6.6525,6.6235,6.6235,6.6235,6.5955,6.5003,6.4634,6.4159,6.3255,6.2488,6.2086,6.2364,6.2425,6.2425,6.2425,6.221,6.1902,6.1471,6.2086,6.2425,6.1902,0.0,0.0,0.0,0.0,0.0,6.0794,0.0,6.064,0.0,0.0,0.0,0.0,6.1844,0.0,0.0,0.0,0.0,6.4653,0.0,6.4588,6.6968,6.5793,6.5676,6.6492,6.6102,6.5742,6.5592,6.4934,6.4994,6.5652,6.6311,6.6879,6.7358,6.6565,6.6198,6.6073,6.4624,6.3169,6.1896,6.1329,6.0375,5.9464,5.796,5.8767,5.9391,0.0,5.9171,5.9758,6.0309,6.0126,6.0126,6.0676,6.0713,6.0456,5.9979,6.0639,6.1043,6.0944,6.1207,6.1112,6.0238,6.1008,6.118,6.0355,6.0593,0.0,6.0284,5.9837,5.9493,5.9184,5.9114,0.0,5.8049,5.7602,5.7771,5.849,5.9076,5.9869,6.0873,6.211,6.3211,6.4209,6.5206,6.6086,6.6724,6.7141,6.718,6.6896,6.7097,6.7014,6.6812,6.6812,6.6812,6.6812,6.6812,6.6948,6.7117,6.7117,6.7286,6.742,6.6889,6.6226,6.5382,6.462,6.3891,6.3251,6.3179,6.3102,6.3102,6.3102,6.2948,6.2671,6.221,6.2887,6.3287,6.2517,0.0,0.0,0.0,6.1809,0.0,6.1963,6.1994,6.1809,6.1348,6.1717,0.0,0.0,0.0,0.0,0.0,0.0,0.0,0.0,0.0,0.0,6.6968,6.63,6.6183,6.6612,6.6823,6.6553,6.6132,6.5742,6.5862,6.634,6.6999,6.7268,6.7268,6.7059,6.6999,6.6846,6.5948,6.474,6.364,6.2452,6.148,6.0539,6.0346,6.0382,6.0382,6.0382,6.0382,6.0382,6.0419,6.108,6.1557,6.1557,6.3025,6.3392,6.1741,6.2291,6.3135,6.398,6.342,6.3062,6.3199,6.2611,6.2018,0.0,0.0,6.0565,6.1289,5.9806,5.9426,6.0185,0.0,0.0,5.4372,5.5094,5.6507,5.8558,6.0458,6.1631,6.2277,6.3181,6.4277,6.5568,6.6357,6.6953,6.7475,6.7475,6.7346,6.718,6.718,6.7014,6.6812,6.6812,6.6812,6.6812,6.6812,6.732,6.7895,6.7895,6.8436,6.887,6.782,6.7604,6.7015,6.4948,6.4342,6.4255,6.3842,6.381,6.381,6.381,6.3287,6.2825,6.2794,6.2825,6.3041,6.3687,6.3256,0.0,0.0,6.3225,0.0,6.4703,6.4857,6.4857,6.4826,6.4857,0.0,0.0,0.0,0.0,0.0,0.0,0.0,6.4412,6.4213,0.0,6.6938,6.63,6.63,6.6968,6.7276,6.7125,6.6522,6.6792,6.6969,6.7029,6.7687,6.7956,6.7897,6.7268,6.6999,6.6999,6.6999,6.6457,6.5679,6.4102,6.3501,6.2992,6.1337,6.1227,6.1374,6.1961,6.1594,6.1777,6.3503,6.3503,6.3503,6.4053,6.5044,6.5521,6.5007,6.4677,6.464,0.0,6.4767,6.4469,0.0,6.3948,6.3555,6.2948,6.2634,6.2393,6.2117,6.1634,6.1254,6.0944,0.0,0.0,5.9699,6.0045,6.0251,6.0278,6.2113,6.3013,6.325,6.46,6.5704,6.6557,6.6676,6.7147,6.7719,6.7719,6.7475,6.718,6.7346,6.7146,6.688,6.7387,6.7557,6.7658,6.8199,6.8166,6.7996,6.8571,6.891,6.9127,6.93,6.886,6.828,6.8076,6.7491,6.6652,6.5796,6.5033,6.4549,6.4549,6.4395,6.4087,6.3595,6.3903,6.4149,6.3872,6.3656,6.3595,6.381,6.3256,6.2979,6.3441,6.3472,6.3472,0.0,6.3903,0.0,0.0,0.0,0.0,0.0,0.0,0.0,0.0,6.4554,0.0,6.7556,6.6912,6.7127,6.7993,6.8057,6.8061,6.7849,6.8171,6.8106,6.7657,6.7897,6.7717,6.7298,6.7089,6.6999,6.6999,6.6999,6.6583,6.5737,6.4554,6.3861,6.3217,6.3025,6.2989,6.3135,6.3649,6.3319,6.3503,6.5081,6.5118,6.5191,6.5668,6.6439,6.6953,6.6953,6.6512,0.0,6.6219,6.5742,6.5309,6.4876,6.4456,6.4039,6.36,6.36,6.3358,6.291,6.2634,0.0,6.1737,6.1944,6.1975,6.1903,6.2286,6.2286,6.2075,6.3388,6.4186,6.4531,6.5773,6.6566,6.6936,6.7133,6.7467,6.7799,6.7799,6.7557,6.7346,6.7346,6.735,6.7286,6.776,6.8098,6.8504,6.9282,6.9147,6.8842,6.935,6.9722,7.0026,7.05,7.0119,6.9636,6.9661,6.9187,6.8271,6.6806,6.5991,6.5406,6.4998,6.4888,6.4764,6.4303,6.458,6.4764,6.4303,6.4241,6.4241,6.4241,6.3872,6.3779,6.4303,0.0,0.0,0.0,6.4118,6.4487,0.0,0.0,0.0,0.0,0.0,0.0,6.5932,6.5277,6.5796,6.7641,6.7389,6.7727,6.8654,6.878,6.8515,6.815,6.9075,6.886,6.7627,6.8136,6.7837,6.6999,6.6999,6.7148,6.7328,6.7089,6.7159,6.7272,6.5917,6.4996,6.4374,6.5154,6.5301,6.5338,6.5375,6.5375,6.5411,6.5485,6.6109,6.6586,6.6586,6.7247,6.7687,6.7687,6.7687,6.7687,6.7687,0.0,0.0,6.5653,6.4463,6.3712,6.3639,6.3639,6.3673,6.36,6.291,6.2599,6.2634,6.1944,6.1634,6.1634,6.2393,6.3082,6.3772,6.4531,6.5255,6.6014,6.6738,6.7005,6.6917,6.7729,6.8039,6.7799,6.7799,6.7719,6.751,6.7331,6.7523,6.7929,6.803,6.8571,6.9316,7.0026,7.0263,7.0263,7.0263,7.077,7.1312,7.1312,7.1312,7.1098,7.0076,6.9666,6.909,6.7086,6.6491,6.6098,6.5108,6.4888,6.4888,6.4888,6.4888,6.4888,6.4888,6.4888,6.4888,6.4888,6.4888,6.5349,6.6611,0.0,0.0,6.5842,6.5257,6.4641,0.0,0.0,0.0,0.0,0.0,6.6253,6.5961,6.6192,6.6644,6.7316,6.7758,6.8243,6.8889,6.924,6.8759,6.7729,6.9657,6.9351,6.7208,6.8495,6.8345,6.7119,6.7089,6.7448,6.7986,6.7328,6.8286,6.9833,6.7611,6.6671,6.623,6.5264,6.5301,6.5485,6.6109,6.6219,6.6402,6.7026,6.7283,6.7393,6.7393,6.7577,6.7687,6.7687,6.7687,6.7687,6.7687,6.691,6.6404,6.6404,6.5625,6.4905,6.4428,6.4323,6.4076,6.36,6.3427,6.36,6.4186,6.46,6.4807,6.4807,6.4979,6.5186,6.5359,6.6117,6.6566,6.6773,6.7532,6.7842,6.7763,6.8014,6.8083,6.8004,6.8004,6.7799,6.7578,6.8042,6.8098,6.8064,6.9248,6.9755,7.006,7.0804,7.1041,7.1041,7.1041,7.1176,7.1312,7.1312,7.1312,7.1222,7.1007,6.9699,6.8371,6.7871,6.6491,6.5187,6.4998,6.4888,6.4888,6.4888,6.4888,6.4888,6.4888,6.4888,6.4888,6.4888,6.4888,6.5011,6.5349,6.5226,6.5134,6.5134,6.498,6.5257,0.0,0.0,0.0,6.7135,6.6897,6.6313,6.5187,6.5504,6.6086,6.702,6.7542,6.8243,6.8889,6.976,6.9732,6.9032,7.0823,7.0663,6.89,6.9772,6.9526,6.8495,6.7956,6.8136,6.8704,6.8016,6.8944,7.046,6.8284,6.733,6.6931,6.6329,6.6402,6.6512,6.6953,6.7026,6.7173,6.7614,6.7687,6.7687,6.7687,6.7687,6.7687,6.7687,6.7687,6.7687,6.7687,6.7061,6.6677,6.6677,6.6002,6.5267,6.4669,6.4601,6.4288,6.36,6.391,6.4462,6.5255,6.5669,6.5876,6.5876,6.6221,6.6393,6.6428,6.7152,6.7497,6.7532,6.7911,6.8083,6.8083,6.8083,6.8083,6.8083,6.8039,6.8005,6.8186,6.8515,6.8761,6.9218,7.0066,7.0487,7.077,7.1176,7.1312,7.1312,7.1312,7.1312,7.1312,7.1312,7.1312,7.1312,7.1312,7.0389,6.9283,6.8271,6.7189,6.6098,6.5108,6.4888,6.4888,6.4888,6.4888,6.4888,6.4888,6.4888,6.4888,6.4888,6.4888,6.4888,6.4888,6.4888,6.4888,6.4888,6.4888,6.5319,6.6365,6.5842,0.0,6.695,6.6365,6.5934,6.5811,6.6344,6.6752,6.7381,6.8027,6.8551,6.8889,6.9727,6.973,6.9028,7.0829,7.0763,6.9054,7.0049,6.9802,6.8525,6.8465,6.8645,6.9004,6.8914,6.9901,7.1147,6.9647,6.8363,6.7127,6.754,6.7741,6.7741,6.7687,6.7687,6.7687,6.7687,6.7687,6.7687,6.7687,6.7687,6.7687,6.7687,6.7687,6.7687,6.7687,6.7174,6.6852,6.6852,6.6247,6.5561,6.4806,6.4702,6.4463,6.3738,6.46,6.5359,6.6048,6.6152,6.6221,6.6221,6.6876,6.7152,6.7187,6.7807,6.8083,6.8083,6.8083,6.8083,6.8083,6.8083,6.8083,6.8118,6.8097,6.8348,6.8932,6.8925,6.968,7.0512,7.0648,7.0948,7.1312,7.1312,7.1312,7.1312,7.1312,7.1312,7.1312,7.1312,7.1312,7.1312,7.1312,7.1222,7.0515,6.8568,6.7971,6.7292,6.5297,6.4888,6.4888,6.4888,6.4888,6.4918,6.5042,6.498,6.4949,6.5042,6.4949,6.4888,6.4888,6.4888,6.4949,6.5042,6.5042,6.5319,6.5996,6.5534,6.5442,6.6027,6.5503,6.578,6.7042,6.7535,6.7873,6.8058,6.8705,6.9043,6.9043,6.972,6.9571,6.8719,7.0649,7.0494,6.8816,7.0054,6.9712,6.844,6.8794,6.9064,6.9213,6.9871,7.0919,7.1966,7.1016,6.937,6.741,6.7704,6.7794,6.7847,6.7741,6.7687,6.7687,6.7687,6.7687,6.7687,6.7687,6.7687,6.7687,6.7687,6.7687,6.7687,6.7687,6.7633,6.7542,6.7542,6.7433,6.6758,6.5462,6.5462,6.5155,6.4496,6.5911,6.6704,6.6807,6.7428,6.7738,6.7773,6.7876,6.7911,6.7911,6.8049,6.8083,6.8083,6.8083,6.8083,6.8083,6.8083,6.8083,6.8152,6.8842,6.8991,6.9069,7.029,7.0653,7.0614,7.1226,7.1355,7.1312,7.1312,7.1312,7.1312,7.1312,7.1312,7.1312,7.1312,7.1312,7.1312,7.1312,7.0608,6.9571,6.8371,6.7395,6.6385,6.5218,6.4888,6.4888,6.4888,6.4888,6.5103,6.5657,6.5288,6.5103,6.5657,6.5257,6.4888,6.4888,6.4888,6.5134,6.5688,6.575,6.6027,6.6704,6.6673,6.6642,6.6765,6.6673,6.695,6.775,6.7319,6.7596,6.8735,6.9413,6.9751,6.9751,7.0428,7.0398,6.9663,7.1169,7.1292,7.0098,7.0611,7.0603,7.0013,6.931,6.9333,6.9901,7.053,7.1577,7.2521,7.0602,6.9182,6.7828,6.7952,6.8004,6.8004,6.7952,6.7952,6.7952,6.7952,6.7847,6.7794,6.7794,6.7741,6.7687,6.7687,6.7687,6.7687,6.7687,6.7687,6.7687,6.7687,6.7687,6.73,6.6296,6.6268,6.6173,6.5911,6.6635,6.7187,6.7566,6.7911,6.8083,6.8083,6.8083,6.8083,6.8083,6.8083,6.8083,6.8083,6.8083,6.8083,6.8083,6.8083,6.8359,6.8773,6.9153,6.9692,7.0368,7.109,7.1353,7.1333,7.1848,7.1722,7.1457,7.1634,7.1546,7.1457,7.1457,7.1367,7.1312,7.1312,7.1312,7.1312,7.1312,7.0916,7.011,6.8502,6.7701,6.7086,6.5991,6.5297,6.5108,6.57,6.5297,6.5011,6.5319,6.5103,6.5011,6.5319,6.5103,6.4888,6.4888,6.5226,6.5565,6.5873,6.6242,6.6581,6.6888,6.6919,6.6919,6.6919,6.6919,6.7227,6.7904,6.7966,6.8274,6.8889,6.9197,6.9351,6.9351,6.9659,6.9659,6.9413,7.0767,7.0985,7.0496,7.1411,7.1435,7.0724,7.0374,7.0247,7.0367,7.1588,7.2385,7.273,7.0858,6.9474,6.7969,6.807,6.8158,6.8158,6.8107,6.807,6.807,6.807,6.8018,6.7952,6.7899,6.7794,6.7741,6.7687,6.7687,6.7687,6.7687,6.7687,6.776,6.7944,6.7981,6.7721,6.706,6.7225,6.7338,6.7253,6.7427,6.773,6.8083,6.8083,6.8083,6.8083,6.8083,6.8083,6.8083,6.8083,6.8083,6.8083,6.8083,6.8083,6.8118,6.829,6.8739,6.9325,6.967,7.0498,7.1498,7.1705,7.1901,7.2072,7.2245,7.2038,7.1688,7.1898,7.1898,7.1688,7.16,7.1457,7.1312,7.1312,7.1312,7.1312,7.1312,7.1312,7.0791,6.8895,6.847,6.8072,6.6806,6.5915,6.5515,6.5991,6.5515,6.4949,6.5103,6.5011,6.4949,6.5103,6.5011,6.4949,6.5103,6.5596,6.6027,6.6334,6.6858,6.7227,6.735,6.7381,6.7381,6.7381,6.7381,6.7627,6.812,6.8612,6.8889,6.8889,6.9043,6.9105,6.9105,6.9105,6.9105,6.9166,7.0367,7.08,7.0618,7.1719,7.1808,7.1131,7.1238,7.105,7.0682,7.2409,7.2804,7.2551,7.1151,6.9646,6.7772,6.8158,6.8208,6.8259,6.8121,6.807,6.807,6.807,6.807,6.8018,6.7952,6.7899,6.7847,6.7741,6.7687,6.7687,6.7687,6.7687,6.8017,6.8752,6.8825,6.8511,6.7813,6.8622,6.8712,6.8004,6.8705,6.8752,6.8083,6.8083,6.8083,6.8083,6.8083,6.8083,6.8083,6.8083,6.8083,6.8083,6.8083,6.8083,6.8152,6.8911,6.9222,6.9428,7.0808,7.1394,7.1601,7.2326,7.2467,7.2331,7.2331,7.2159,7.1985,7.1985,7.1985,7.1898,7.1688,7.1457,7.1312,7.1312,7.1312,7.1312,7.1312,7.1312,7.1007,6.9888,6.9571,6.8993,6.6878,6.6385,6.6098,6.5187,6.4998,6.5103,6.5719,6.5319,6.5103,6.575,6.5288,6.5134,6.575,6.5873,6.6396,6.7658,6.7812,6.8089,6.8705,6.8735,6.8735,6.8735,6.8735,6.8766,6.8797,6.8858,6.8889,6.8889,6.9505,6.9813,6.9813,6.9813,6.9813,6.9843,7.0582,7.0921,7.0952,7.1322,7.1505,7.1474,7.1131,7.0754,7.0682,7.2641,7.277,7.1894,7.0975,6.9359,6.7184,6.8358,6.8408,6.8408,6.8358,6.8358,6.8358,6.8358,6.8259,6.8208,6.8158,6.8107,6.7967,6.7847,6.7847,6.7794,6.7687,6.8164,6.8568,6.8898,6.9853,7.0083,6.9321,6.9699,6.9528,6.8779,6.906,6.8863,6.8083,6.8083,6.8083,6.8083,6.8083,6.8083,6.8083,6.8083,6.8083,6.8118,6.8635,6.8842,6.8911,6.967,7.0256,7.0705,7.1291,7.1808,7.2257,7.2567,7.2501,7.2331,7.2501,7.2416,7.2245,7.2416,7.2331,7.2159,7.1898,7.181,7.1722,7.1722,7.1634,7.1546,7.1634,7.1634,7.1244,7.0136,6.976,6.9283,6.7802,6.6982,6.6385,6.5991,6.5406,6.498,6.5226,6.5072,6.498,6.5257,6.5072,6.5165,6.5842,6.6273,6.6888,6.7843,6.8274,6.8612,6.8858,6.8889,6.8889,6.8889,6.8889,6.8889,6.8889,6.8889,6.8889,6.8889,6.9135,6.9259,6.9259,6.9259,6.9259,6.932,7.0398,7.089,7.0982,7.1967,7.2459,7.2335,7.2085,7.1835,7.1861,7.2922,7.2871,7.2098,7.1083,6.933,6.7127,6.8506,6.8506,6.8506,6.8506,6.8506,6.8506,6.8506,6.8408,6.8358,6.8309,6.8208,6.8107,6.7952,6.7899,6.7957,6.8054,6.8568,6.9119,6.9633,7.0917,7.1479,7.0932,7.097,7.0637,6.992,6.992,6.9419,6.844,6.844,6.844,6.844,6.8241,6.8241,6.844,6.8241,6.8221,6.8497,6.9049,6.9394,6.9704,7.0429,7.105,7.1532,7.1774,7.2188,7.2671,7.2671,7.2586,7.2501,7.2671,7.2586,7.2501,7.2671,7.2501,7.2245,7.2159,7.2072,7.1985,7.2072,7.1985,7.1864,7.1985,7.1898,7.1512,7.069,7.0415,6.9949,6.8863,6.7971,6.7395,6.7086,6.6385,6.5808,6.5515,6.5406,6.5359,6.5165,6.5226,6.5534,6.6427,6.695,6.7504,6.815,6.8612,6.8889,6.8889,6.8889,6.8889,6.8889,6.8889,6.8889,6.8889,6.8889,6.8889,6.8889,6.8889,6.8889,6.8889,6.8889,6.8889,6.8951,7.0274,7.089,7.0982,7.2368,7.2983,7.2983,7.2608,7.2483,7.2479,7.3304,7.2882,7.1929,7.1702,6.9633,6.6875,6.8506,6.8506,6.8506,6.8506,6.8506,6.8506,6.8506,6.8506,6.8457,6.8309,6.8309,6.8208,6.7952,6.7899,6.8178,6.8825,6.8898,6.9596,7.1211,7.2055,7.2496,7.2496,7.2496,7.2167,7.1422,7.1422,7.0673,6.9235,6.9235,6.9235,6.9235,6.844,6.8517,6.9161,6.844,6.8532,6.9291,6.9291,6.9739,7.0463,7.1187,7.1498,7.1601,7.2395,7.2671,7.2671,7.2671,7.2671,7.2671,7.2671,7.2671,7.2671,7.2671,7.2501,7.2331,7.2331,7.2159,7.2072,7.2245,7.2331,7.2245,7.2072,7.1985,7.1898,7.1688,7.16,7.121,6.9982,6.9666,6.9379,6.8271,6.8072,6.7802,6.6701,6.6491,6.6349,6.5923,6.5903,6.6396,6.775,6.7935,6.8181,6.8828,6.8889,6.8889,6.8889,6.8889,6.8889,6.8889,6.8889,6.8889,6.8889,6.8889,6.8889,6.8889,6.8889,6.8889,6.8889,6.8889,6.8889,6.8951,7.0274,7.089,7.0982,7.2368,7.2983,7.2983,7.2608,7.2357,7.2129,7.3464,7.2741,7.1068,7.2781,7.0438,6.6426,6.8506,6.8506,6.8506,6.8506,6.8506,6.8506,6.8506,6.8506,6.8457,6.8457,6.8457,6.8358,6.8107,6.8535,6.891,6.8898,6.9926,7.1027,7.2092,7.2386,7.2496,7.2496,7.2496,7.2167,7.1422,7.1422,7.0937,6.9954,6.9954,6.9954,6.9954,6.9743,6.9492,6.9235,6.9532,6.9567,6.936,7.0394,7.0946,7.1222,7.2015,7.2326,7.236,7.2602,7.2671,7.2671,7.2671,7.2671,7.2671,7.2671,7.2671,7.2671,7.2671,7.2671,7.2586,7.2586,7.2501,7.2501,7.2586,7.2586,7.2586,7.2501,7.2331,7.2159,7.2124,7.1985,7.1512,7.0196,6.9916,6.9537,6.8271,6.8072,6.7802,6.6701,6.6902,6.6883,6.5985,6.6304,6.695,6.7812,6.7935,6.8181,6.8828,6.8889,6.8889,6.8889,6.8889,6.8889,6.8889,6.8889,6.8889,6.8889,6.8889,6.8889,6.8889,6.8889,6.8889,6.8889,6.8889,6.8889,6.8951,7.0274,7.089,7.0982,7.2368,7.2983,7.2983,7.2859,7.2608,7.2479,7.3564,7.2871,7.1328,7.139,6.9344,6.6286,6.8717,6.8613,6.8506,6.8506,6.8506,6.8506,6.8506,6.8506,6.8506,6.8506,6.8803,6.889,6.8652,6.9392,6.9917,7.0035,7.1195,7.2152,7.2516,7.2553,7.2553,7.2496,7.2496,7.2285,7.183,7.183,7.1485,7.074,7.074,7.074,7.074,7.0758,7.0695,7.0522,7.0796,7.0832,7.0635,7.1248,7.167,7.2015,7.2464,7.2671,7.2671,7.2671,7.2671,7.2671,7.2671,7.2671,7.2671,7.2671,7.2671,7.2671,7.2671,7.2671,7.2671,7.2671,7.2671,7.2671,7.2671,7.2671,7.2671,7.2671,7.2586,7.2416,7.2331,7.2245,7.1864,7.0996,7.0781,7.0507,6.9633,6.9442,6.9058,6.7747,6.7851,6.7831,6.6838,6.7042,6.7566,6.8243,6.8304,6.8458,6.8858,6.8889,6.8889,6.8889,6.8889,6.8889,6.8889,6.8889,6.8889,6.8889,6.8889,6.8889,6.8889,6.8889,6.8889,6.8889,6.8889,6.9012,6.932,7.0398,7.1075,7.1383,7.2491,7.2983,7.2983,7.2859,7.2608,7.2322,7.326,7.2209,7.0325,7.0526,6.8421,6.5467,6.9091,6.8763,6.8506,6.8506,6.8506,6.8506,6.8506,6.858,6.8617,6.8617,6.9323,6.9756,6.9656,7.0309,7.1035,7.1652,7.2502,7.2927,7.2723,7.2723,7.2667,7.2496,7.2496,7.2496,7.2496,7.2496,7.2167,7.1485,7.1485,7.1521,7.1593,7.1632,7.2058,7.2662,7.2157,7.2161,7.2676,7.2024,7.2099,7.2671,7.2671,7.2671,7.2671,7.2671,7.2671,7.2671,7.2671,7.2671,7.2671,7.2671,7.2671,7.2671,7.2671,7.2671,7.2671,7.2671,7.2671,7.2671,7.2671,7.2671,7.2671,7.2671,7.2671,7.2671,7.2416,7.2331,7.2245,7.2072,7.1985,7.1985,7.1688,7.1668,7.1118,6.9414,6.9237,6.8956,6.7972,6.7935,6.8212,6.8735,6.8858,6.8889,6.8889,6.8889,6.8889,6.8889,6.8889,6.8889,6.8889,6.8889,6.8889,6.8889,6.8889,6.8889,6.8889,6.8889,6.8889,6.8889,6.8889,6.9228,6.9905,7.0582,7.129,7.2029,7.2706,7.2983,7.2983,7.2734,7.2357,7.2068,7.2736,7.1326,6.8876,6.9651,6.7494,6.4201,6.9091,6.8763,6.8506,6.8506,6.8506,6.8506,6.8506,6.9063,6.9472,6.9472,7.014,7.061,7.0472,7.1161,7.1664,7.1689,7.2502,7.2982,7.2927,7.2779,7.2667,7.2667,7.2553,7.2496,7.2496,7.2496,7.2438,7.2226,7.2226,7.2555,7.3237,7.3203,7.3323,7.3523,7.4024,7.369,7.2711,7.3151,7.309,7.2671,7.2671,7.2671,7.2671,7.2671,7.2671,7.2671,7.2671,7.2671,7.2671,7.2671,7.2671,7.2671,7.2671,7.2671,7.2671,7.2671,7.2671,7.2671,7.2671,7.2671,7.2671,7.2671,7.2671,7.2671,7.2586,7.2586,7.2501,7.2331,7.2245,7.2159,7.1985,7.2199,7.1724,6.9679,7.015,6.9884,6.7477,6.8027,6.8551,6.8181,6.8581,6.8889,6.8889,6.8889,6.8889,6.8889,6.8889,6.8889,6.8889,6.8889,6.8889,6.8889,6.8889,6.8889,6.8889,6.8889,6.8889,6.8889,6.8889,6.9228,6.9905,7.0582,7.129,7.2029,7.2706,7.2983,7.2983,7.2983,7.2734,7.2418,7.2803,7.1297,6.901,6.825,6.6393,6.4056,6.9428,6.9047,6.8717,6.8554,6.884,6.91,6.91,6.9769,7.0289,7.0289,7.0995,7.1515,7.1413,7.2118,7.2585,7.2532,7.2939,7.3145,7.3091,7.2927,7.2779,7.2723,7.2553,7.2496,7.2496,7.2899,7.2899,7.2496,7.2899,7.3303,7.3707,7.4478,7.4848,7.4942,7.5357,7.4901,7.385,7.378,7.3392,7.2671,7.2671,7.2671,7.2671,7.2671,7.2671,7.2671,7.2671,7.2671,7.2671,7.2671,7.2671,7.2671,7.2671,7.2671,7.2671,7.2671,7.2671,7.2671,7.2671,7.2671,7.2671,7.2671,7.2671,7.2671,7.2671,7.2671,7.2671,7.2501,7.2501,7.2416,7.2159,7.26,7.2428,7.0962,7.1158,7.0727,6.8531,6.8706,6.882,6.7966,6.8489,6.8889,6.8889,6.8889,6.8889,6.8889,6.8889,6.8889,6.8889,6.8889,6.8889,6.8889,6.8889,6.8889,6.8889,6.8889,6.8889,6.8889,6.8889,6.9413,7.0398,7.0736,7.1475,7.2491,7.2829,7.2983,7.2983,7.2983,7.2859,7.2513,7.2469,7.0736,6.8112,6.7212,6.5314,6.3085,6.9851,6.9542,6.9184,6.8884,6.9409,6.9917,6.9917,7.0623,7.1143,7.1143,7.1849,7.2406,7.2406,7.3001,7.3372,7.3372,7.3372,7.332,7.3252,7.3091,7.2982,7.2779,7.261,7.2569,7.2716,7.334,7.3377,7.2716,7.3523,7.3964,7.4147,7.5469,7.6166,7.635,7.6373,7.5895,7.4937,7.4264,7.3517,7.2671,7.2671,7.2671,7.2671,7.2671,7.2671,7.2671,7.2671,7.2671,7.2671,7.2671,7.2671,7.2671,7.2671,7.2671,7.2671,7.2671,7.2671,7.2671,7.2671,7.2671,7.2671,7.2671,7.2671,7.2671,7.2671,7.2671,7.2671,7.2671,7.2671,7.2705,7.2588,7.2946,7.313,7.2563,7.2213,7.1519,6.979,6.9588,6.9064,6.802,6.8489,6.8889,6.8889,6.8889,6.8889,6.8889,6.8889,6.8889,6.8889,6.8889,6.8889,6.8889,6.8889,6.8889,6.8889,6.8889,6.8889,6.8889,6.9012,6.969,7.089,7.089,7.166,7.2983,7.2983,7.2983,7.2983,7.2983,7.2859,7.2608,7.2231,7.0015,6.6955,6.6005,6.4056,6.1973,7.02,7.0193,7.0098,7.0091,7.0433,7.0772,7.0772,7.1478,7.1998,7.1998,7.2704,7.3224,7.3224,7.3298,7.3372,7.3372,7.3372,7.3372,7.3372,7.3252,7.3091,7.2982,7.2779,7.2941,7.3523,7.3634,7.3634,7.3523,7.4331,7.5102,7.5763,7.5983,7.646,7.7157,7.7144,7.6366,7.501,7.4864,7.3991,7.2671,7.2671,7.2671,7.2671,7.2671,7.2671,7.2671,7.2671,7.2671,7.2671,7.2671,7.2671,7.2671,7.2671,7.2671,7.2671,7.2671,7.2671,7.2671,7.2671,7.2671,7.2671,7.2671,7.2671,7.2671,7.2671,7.2671,7.2671,7.2671,7.2671,7.2877,7.3533,7.3997,7.4184,7.3491,7.3238,7.2246,6.9963,6.9588,6.9064,6.802,6.8489,6.8889,6.8889,6.8889,6.8889,6.8889,6.8889,6.8889,6.8889,6.8889,6.8889,6.8889,6.8889,6.8889,6.8889,6.8889,6.8889,6.8889,6.9474,7.0151,7.089,7.089,7.166,7.2983,7.2983,7.2983,7.2983,7.2983,7.2983,7.2859,7.2608,7.0379,6.7065,6.3765,6.2396,6.1973,7.0948,7.1022,7.1104,7.1322,7.1681,7.1957,7.1957,7.246,7.2852,7.2852,7.3149,7.3372,7.3372,7.3372,7.3372,7.3372,7.3372,7.3372,7.3372,7.3305,7.3145,7.2982,7.3221,7.3476,7.3707,7.4588,7.5028,7.5028,7.5395,7.5763,7.6093,7.657,7.6974,7.7304,7.7304,7.6664,7.5618,7.5155,7.4642,7.3913,7.3053,7.297,7.3229,7.2887,7.2671,7.2671,7.2671,7.2671,7.2671,7.2671,7.2671,7.2671,7.2671,7.2671,7.2671,7.2671,7.2671,7.2671,7.2671,7.2671,7.2671,7.2671,7.2671,7.2671,7.2671,7.2671,7.2671,7.2671,7.3015,7.3395,7.374,7.46,7.5104,7.483,7.4153,7.2971,7.1076,7.0289,6.9491,6.8598,6.8705,6.8889,6.8889,6.8889,6.8889,6.8889,6.8889,6.8889,6.8889,6.8889,6.8889,6.8889,6.8889,6.8889,6.8889,6.8889,6.9074,6.9443,6.9751,7.0244,7.0921,7.1321,7.206,7.2983,7.2983,7.2983,7.2983,7.2983,7.2983,7.2983,7.2608,7.0379,6.6817,6.3353,6.1973,6.1973]},{"header":{"parameterUnit":"m.s-1","parameterCategory":1,"la1":30.6,"la2":28.766,"lo1":-90.7593,"lo2":-88.6598,"dx":0.0162,"dy":0.0183,"nx":116,"ny":114,"refTime":"2023-01-01T06:00:00:Z","depth":0,"parameterNumber":3,"parameterNumberName":"V-component_of_WINDS"},"data":[0.0,0.0,0.0,0.0,0.0,0.0,0.0,0.0,0.0,0.0,0.0,0.0,0.0,0.0,0.0,0.0,0.0,0.0,0.0,0.0,0.0,0.0,0.0,0.0,0.0,0.0,0.0,0.0,0.0,0.0,0.0,0.0,0.0,0.0,0.0,0.0,0.0,0.0,0.0,0.0,0.0,0.0,0.0,0.0,0.0,0.0,0.0,0.0,0.0,0.0,0.0,0.0,0.0,0.0,0.0,0.0,0.0,0.0,0.0,0.0,0.0,0.0,0.0,0.0,0.0,0.0,0.0,0.0,0.0,0.0,0.0,0.0,0.0,0.0,0.0,0.0,0.0,0.0,0.0,0.0,0.0,0.0,0.0,0.0,0.0,0.0,0.0,0.0,0.0,0.0,0.0,0.0,0.0,0.0,0.0,0.0,0.0,0.0,0.0,0.0,0.0,0.0,0.0,0.0,0.0,0.0,0.0,0.0,0.0,0.0,0.0,0.0,0.0,0.0,0.0,0.0,0.0,0.0,0.0,0.0,0.0,0.0,0.0,0.0,0.0,0.0,0.0,0.0,0.0,0.0,0.0,0.0,0.0,0.0,0.0,0.0,0.0,0.0,0.0,0.0,0.0,0.0,0.0,0.0,0.0,0.0,0.0,0.0,0.0,0.0,0.0,0.0,0.0,0.0,0.0,0.0,0.0,0.0,0.0,0.0,0.0,0.0,0.0,0.0,0.0,0.0,0.0,0.0,0.0,0.0,0.0,0.0,0.0,0.0,0.0,0.0,0.0,0.0,0.0,0.0,0.0,0.0,0.0,0.0,0.0,0.0,0.0,0.0,0.0,0.0,0.0,0.0,0.0,0.0,0.0,0.0,0.0,0.0,0.0,0.0,0.0,0.0,0.0,0.0,0.0,0.0,0.0,0.0,0.0,0.0,0.0,0.0,0.0,0.0,0.0,0.0,0.0,0.0,0.0,0.0,0.0,0.0,0.0,0.0,0.0,0.0,0.0,0.0,0.0,0.0,0.0,0.0,0.0,0.0,0.0,0.0,0.0,0.0,0.0,0.0,0.0,0.0,0.0,0.0,0.0,0.0,0.0,0.0,0.0,0.0,0.0,0.0,0.0,0.0,0.0,0.0,0.0,0.0,0.0,0.0,0.0,0.0,0.0,0.0,0.0,0.0,0.0,0.0,0.0,0.0,0.0,0.0,0.0,0.0,0.0,0.0,0.0,0.0,0.0,0.0,0.0,0.0,0.0,0.0,0.0,0.0,0.0,0.0,0.0,0.0,0.0,0.0,0.0,0.0,0.0,0.0,0.0,0.0,0.0,0.0,0.0,0.0,0.0,0.0,0.0,0.0,0.0,0.0,0.0,0.0,0.0,0.0,0.0,0.0,0.0,0.0,0.0,0.0,0.0,0.0,0.0,0.0,0.0,0.0,0.0,0.0,0.0,0.0,0.0,0.0,0.0,0.0,0.0,0.0,0.0,0.0,0.0,0.0,0.0,0.0,0.0,0.0,0.0,0.0,0.0,0.0,0.0,0.0,0.0,0.0,0.0,0.0,0.0,0.0,0.0,0.0,0.0,0.0,0.0,0.0,0.0,0.0,0.0,0.0,0.0,0.0,0.0,0.0,0.0,0.0,0.0,0.0,0.0,0.0,0.0,0.0,0.0,0.0,0.0,0.0,0.0,0.0,0.0,0.0,0.0,0.0,0.0,0.0,0.0,0.0,0.0,0.0,0.0,0.0,0.0,0.0,0.0,0.0,0.0,0.0,0.0,0.0,0.0,0.0,0.0,0.0,0.0,0.0,0.0,0.0,0.0,0.0,0.0,0.0,0.0,0.0,0.0,0.0,0.0,0.0,0.0,0.0,0.0,0.0,0.0,0.0,0.0,0.0,0.0,0.0,0.0,0.0,0.0,0.0,0.0,0.0,0.0,0.0,0.0,0.0,0.0,0.0,0.0,0.0,0.0,0.0,0.0,0.0,0.0,0.0,0.0,0.0,0.0,0.0,0.0,0.0,0.0,0.0,0.0,0.0,0.0,0.0,0.0,0.0,0.0,0.0,0.0,0.0,0.0,0.0,0.0,0.0,0.0,0.0,0.0,0.0,0.0,0.0,0.0,0.0,0.0,0.0,0.0,0.0,0.0,0.0,0.0,0.0,0.0,0.0,0.0,0.0,0.0,0.0,0.0,0.0,0.0,0.0,0.0,0.0,0.0,0.0,0.0,0.0,0.0,0.0,0.0,0.0,0.0,0.0,0.0,0.0,0.0,0.0,0.0,0.0,0.0,0.0,0.0,0.0,0.0,0.0,0.0,0.0,0.0,0.0,0.0,0.0,0.0,0.0,0.0,0.0,0.0,0.0,0.0,0.0,0.0,0.0,0.0,0.0,0.0,0.0,0.0,0.0,0.0,0.0,0.0,0.0,0.0,0.0,0.0,0.0,0.0,0.0,0.0,0.0,0.0,0.0,0.0,0.0,0.0,0.0,0.0,0.0,0.0,0.0,0.0,0.0,0.0,0.0,0.0,0.0,0.0,0.0,0.0,0.0,0.0,0.0,0.0,0.0,0.0,0.0,0.0,0.0,0.0,0.0,0.0,0.0,0.0,0.0,0.0,0.0,0.0,0.0,0.0,0.0,0.0,0.0,0.0,0.0,0.0,0.0,0.0,0.0,0.0,0.0,0.0,0.0,0.0,0.0,0.0,0.0,0.0,0.0,0.0,0.0,0.0,0.0,0.0,0.0,0.0,0.0,0.0,0.0,0.0,0.0,0.0,0.0,0.0,0.0,0.0,0.0,0.0,0.0,0.0,0.0,0.0,0.0,0.0,0.0,0.0,0.0,0.0,0.0,0.0,0.0,0.0,0.0,0.0,0.0,0.0,0.0,0.0,0.0,0.0,0.0,0.0,0.0,0.0,0.0,0.0,0.0,0.0,0.0,0.0,0.0,0.0,0.0,0.0,0.0,0.0,0.0,0.0,0.0,0.0,0.0,0.0,0.0,0.0,0.0,0.0,0.0,0.0,0.0,0.0,0.0,0.0,0.0,0.0,0.0,0.0,0.0,0.0,0.0,0.0,0.0,0.0,0.0,0.0,0.0,0.0,0.0,0.0,0.0,0.0,0.0,0.0,0.0,0.0,0.0,0.0,0.0,0.0,0.0,0.0,0.0,0.0,0.0,0.0,0.0,0.0,0.0,0.0,0.0,0.0,0.0,0.0,0.0,0.0,0.0,0.0,0.0,0.0,0.0,0.0,0.0,0.0,0.0,0.0,0.0,0.0,0.0,0.0,0.0,0.0,0.0,0.0,0.0,0.0,0.0,0.0,0.0,0.0,0.0,0.0,0.0,0.0,0.0,0.0,0.0,0.0,0.0,0.0,0.0,0.0,0.0,0.0,0.0,0.0,0.0,0.0,0.0,0.0,0.0,0.0,0.0,0.0,0.0,0.0,0.0,0.0,0.0,0.0,0.0,0.0,0.0,0.0,0.0,0.0,0.0,0.0,0.0,0.0,0.0,0.0,0.0,0.0,0.0,0.0,0.0,0.0,0.0,0.0,0.0,0.0,0.0,0.0,0.0,0.0,0.0,0.0,0.0,0.0,0.0,0.0,0.0,0.0,0.0,0.0,0.0,0.0,0.0,0.0,0.0,0.0,0.0,0.0,0.0,0.0,0.0,0.0,0.0,0.0,0.0,0.0,0.0,0.0,0.0,0.0,0.0,0.0,0.0,0.0,0.0,0.0,0.0,0.0,0.0,0.0,0.0,0.0,0.0,0.0,0.0,0.0,0.0,0.0,0.0,0.0,0.0,0.0,0.0,0.0,0.0,0.0,0.0,0.0,0.0,0.0,0.0,0.0,0.0,0.0,0.0,0.0,0.0,0.0,0.0,0.0,0.0,0.0,0.0,0.0,0.0,0.0,0.0,0.0,0.0,0.0,0.0,0.0,0.0,0.0,0.0,0.0,0.0,0.0,0.0,0.0,0.0,0.0,0.0,0.0,0.0,0.0,0.0,0.0,0.0,0.0,0.0,0.0,0.0,0.0,0.0,0.0,0.0,0.0,0.0,0.0,0.0,0.0,0.0,0.0,0.0,0.0,0.0,0.0,0.0,0.0,0.0,0.0,0.0,0.0,0.0,0.0,0.0,0.0,0.0,0.0,0.0,0.0,0.0,0.0,0.0,0.0,0.0,0.0,0.0,0.0,0.0,0.0,0.0,0.0,0.0,0.0,0.0,0.0,0.0,0.0,0.0,0.0,0.0,0.0,0.0,0.0,0.0,0.0,0.0,0.0,0.0,0.0,0.0,0.0,0.0,0.0,0.0,0.0,0.0,0.0,0.0,0.0,0.0,0.0,0.0,0.0,0.0,0.0,0.0,0.0,0.0,0.0,0.0,0.0,0.0,0.0,0.0,0.0,0.0,0.0,0.0,0.0,0.0,0.0,0.0,0.0,0.0,0.0,0.0,0.0,0.0,0.0,0.0,0.0,0.0,0.0,0.0,0.0,0.0,0.0,0.0,0.0,0.0,0.0,0.0,0.0,0.0,0.0,0.0,0.0,0.0,0.0,0.0,0.0,0.0,0.0,0.0,0.0,0.0,0.0,0.0,0.0,0.0,0.0,0.0,0.0,0.0,0.0,0.0,0.0,0.0,0.0,0.0,0.0,0.0,0.0,0.0,0.0,0.0,0.0,0.0,0.0,0.0,0.0,0.0,0.0,0.0,0.0,0.0,0.0,0.0,0.0,0.0,0.0,0.0,0.0,0.0,0.0,0.0,0.0,0.0,0.0,0.0,0.0,0.0,0.0,0.0,0.0,0.0,0.0,0.0,0.0,0.0,0.0,0.0,0.0,0.0,0.0,0.0,0.0,0.0,0.0,0.0,0.0,0.0,0.0,0.0,0.0,0.0,0.0,0.0,0.0,0.0,0.0,0.0,0.0,0.0,0.0,0.0,0.0,0.0,0.0,0.0,0.0,0.0,0.0,0.0,0.0,0.0,0.0,0.0,0.0,0.0,0.0,0.0,0.0,0.0,0.0,0.0,0.0,0.0,0.0,0.0,0.0,0.0,0.0,0.0,0.0,0.0,0.0,0.0,0.0,0.0,0.0,0.0,0.0,0.0,0.0,0.0,0.0,0.0,0.0,0.0,0.0,0.0,0.0,0.0,0.0,0.0,0.0,0.0,0.0,0.0,0.0,0.0,0.0,0.0,0.0,0.0,0.0,0.0,0.0,0.0,0.0,0.0,0.0,0.0,0.0,0.0,0.0,0.0,0.0,0.0,0.0,0.0,0.0,0.0,0.0,0.0,0.0,0.0,0.0,0.0,0.0,0.0,0.0,0.0,0.0,0.0,0.0,0.0,0.0,0.0,0.0,0.0,0.0,0.0,0.0,0.0,0.0,0.0,0.0,0.0,0.0,0.0,0.0,0.0,0.0,0.0,0.0,0.0,0.0,0.0,0.0,0.0,0.0,0.0,0.0,0.0,0.0,0.0,0.0,0.0,0.0,0.0,0.0,0.0,0.0,0.0,0.0,0.0,0.0,0.0,0.0,0.0,0.0,0.0,0.0,0.0,0.0,0.0,0.0,0.0,0.0,0.0,0.0,0.0,0.0,0.0,0.0,0.0,0.0,0.0,0.0,0.0,0.0,0.0,0.0,0.0,0.0,0.0,0.0,0.0,0.0,0.0,0.0,0.0,0.0,0.0,0.0,0.0,0.0,0.0,0.0,0.0,0.0,0.0,0.0,0.0,0.0,0.0,0.0,0.0,0.0,0.0,0.0,0.0,0.0,0.0,0.0,0.0,0.0,0.0,0.0,0.0,0.0,0.0,0.0,0.0,0.0,0.0,0.0,0.0,0.0,0.0,0.0,0.0,0.0,0.0,0.0,0.0,0.0,0.0,0.0,0.0,0.0,0.0,0.0,0.0,0.0,0.0,0.0,0.0,0.0,0.0,0.0,0.0,0.0,0.0,0.0,0.0,0.0,0.0,0.0,0.0,0.0,0.0,0.0,0.0,0.0,0.0,0.0,0.0,0.0,0.0,0.0,0.0,0.0,0.0,0.0,0.0,0.0,0.0,0.0,0.0,0.0,0.0,0.0,0.0,0.0,0.0,-3.5872,-3.4891,0.0,0.0,0.0,0.0,0.0,0.0,0.0,0.0,0.0,0.0,0.0,0.0,0.0,0.0,0.0,0.0,0.0,0.0,0.0,0.0,0.0,0.0,0.0,-1.9484,-1.9862,-1.999,-1.9813,0.0,0.0,0.0,0.0,0.0,0.0,0.0,0.0,0.0,-1.9891,-2.0152,-2.0964,-2.1535,-2.1889,-2.0914,-2.0576,-2.0861,0.0,0.0,0.0,0.0,0.0,0.0,0.0,0.0,0.0,0.0,0.0,0.0,0.0,0.0,0.0,0.0,0.0,0.0,0.0,0.0,0.0,0.0,0.0,0.0,0.0,0.0,0.0,0.0,0.0,0.0,0.0,0.0,0.0,0.0,0.0,0.0,0.0,0.0,0.0,0.0,0.0,0.0,0.0,0.0,0.0,0.0,0.0,0.0,0.0,0.0,0.0,0.0,0.0,0.0,0.0,0.0,0.0,0.0,0.0,0.0,0.0,0.0,0.0,0.0,0.0,0.0,0.0,0.0,0.0,0.0,-3.797,-3.667,0.0,0.0,0.0,0.0,0.0,0.0,0.0,0.0,0.0,0.0,0.0,0.0,0.0,0.0,0.0,0.0,0.0,0.0,0.0,0.0,0.0,-1.8581,-1.9233,-1.9736,-2.0116,-2.0372,-2.0476,-2.045,-2.0086,-2.0103,0.0,0.0,0.0,0.0,-1.9211,-2.0411,-2.1224,-2.1799,-2.2808,-2.3289,-2.3167,-2.2845,-2.3005,-2.3554,-2.2346,0.0,0.0,0.0,0.0,0.0,0.0,0.0,0.0,0.0,0.0,0.0,0.0,0.0,0.0,0.0,0.0,0.0,0.0,0.0,0.0,0.0,0.0,0.0,0.0,0.0,0.0,0.0,0.0,0.0,0.0,0.0,0.0,0.0,0.0,0.0,0.0,0.0,0.0,0.0,0.0,0.0,0.0,0.0,0.0,0.0,0.0,0.0,0.0,0.0,0.0,0.0,0.0,0.0,0.0,0.0,0.0,0.0,0.0,0.0,0.0,0.0,0.0,0.0,-3.9998,-4.057,-3.9519,-4.1247,-4.1984,-4.1893,-4.0081,-3.8922,-3.8348,-3.8892,0.0,0.0,0.0,0.0,0.0,0.0,0.0,0.0,0.0,0.0,0.0,0.0,0.0,0.0,0.0,0.0,0.0,0.0,0.0,-1.9359,-2.0549,-2.0701,-2.1062,-2.1818,-2.1923,-2.1951,-2.2034,-2.1564,0.0,0.0,0.0,-2.0936,-2.0489,-2.1616,-2.2426,-2.3001,-2.4001,-2.4684,-2.5123,-2.5071,-2.5355,-2.5884,-2.3852,-2.2949,-2.2844,0.0,0.0,0.0,0.0,0.0,0.0,0.0,0.0,0.0,0.0,0.0,0.0,0.0,0.0,0.0,0.0,0.0,0.0,0.0,0.0,0.0,0.0,0.0,0.0,0.0,0.0,0.0,0.0,0.0,0.0,0.0,0.0,0.0,0.0,0.0,0.0,0.0,0.0,0.0,0.0,0.0,-3.1078,-3.118,0.0,0.0,0.0,0.0,0.0,0.0,0.0,0.0,0.0,0.0,0.0,0.0,0.0,-3.7441,-3.76,-3.9553,-4.0184,-3.9476,-4.1113,-4.1728,-4.1563,-4.1923,-4.1984,-4.1984,-4.1858,0.0,-4.0557,-4.0679,0.0,0.0,0.0,0.0,0.0,0.0,0.0,0.0,0.0,0.0,0.0,0.0,0.0,0.0,0.0,0.0,0.0,0.0,0.0,0.0,0.0,-2.1226,-2.1564,-2.2291,-2.2398,-2.2326,-2.2237,-2.2574,0.0,0.0,-2.2348,-2.2348,-2.2113,-2.2583,-2.3389,-2.4468,-2.5262,-2.5716,-2.591,-2.5639,-2.5702,-2.5935,-2.5423,-2.4622,-2.3707,-2.3446,0.0,0.0,0.0,0.0,0.0,0.0,0.0,0.0,0.0,0.0,0.0,0.0,0.0,0.0,0.0,0.0,0.0,0.0,0.0,0.0,0.0,0.0,0.0,0.0,0.0,0.0,0.0,0.0,0.0,0.0,0.0,0.0,0.0,0.0,0.0,0.0,0.0,0.0,0.0,-3.0102,-3.0963,-3.1254,-3.1307,-3.1172,0.0,0.0,0.0,0.0,0.0,0.0,0.0,0.0,0.0,-3.8384,-3.9247,-3.9866,-4.0402,-4.1298,-4.1602,-4.1455,-4.2419,-4.2904,-4.2934,-4.3302,-4.3485,-4.3485,-4.356,-4.3376,-4.2995,-4.248,-4.2254,-4.221,0.0,0.0,0.0,0.0,-4.3031,-4.3092,0.0,0.0,0.0,0.0,0.0,0.0,0.0,0.0,0.0,0.0,0.0,0.0,-2.165,-2.1876,-2.2185,-2.2705,-2.2814,-2.2745,-2.2716,-2.3418,-2.3735,-2.3566,-2.3597,-2.3602,-2.3446,-2.3733,-2.4458,-2.5547,-2.6181,-2.6479,-2.6503,-2.622,-2.6233,-2.6518,-2.6935,-2.6242,-2.4753,-2.4622,-2.4047,-2.321,0.0,0.0,0.0,0.0,0.0,0.0,0.0,0.0,0.0,0.0,0.0,0.0,0.0,0.0,0.0,0.0,0.0,0.0,0.0,0.0,0.0,0.0,0.0,0.0,0.0,0.0,0.0,0.0,0.0,0.0,0.0,0.0,0.0,0.0,0.0,0.0,0.0,-3.0733,-3.1461,-3.165,-3.2577,-3.29,0.0,0.0,0.0,0.0,0.0,0.0,-3.7325,-3.8121,-3.909,-4.0472,-4.1273,-4.2004,-4.2597,-4.2781,-4.2947,-4.3125,-4.3587,-4.3925,-4.411,-4.4603,-4.4941,-4.5095,-4.5095,-4.5095,-4.5003,-4.3837,-4.3455,-4.3563,-4.3747,-4.4004,-4.423,-4.4308,-4.4555,-4.5002,0.0,0.0,0.0,0.0,0.0,0.0,0.0,0.0,0.0,0.0,0.0,-2.1675,-2.2452,-2.301,-2.3374,-2.3518,-2.3518,-2.3748,-2.4234,-2.403,-2.4123,-2.4615,-2.4823,-2.4622,-2.4073,-2.5145,-2.5746,-2.5762,-2.6399,-2.6948,-2.7404,-2.7378,-2.8046,-2.9091,-2.8543,-2.7628,-2.6504,-2.5981,-2.5694,-2.5511,-2.3838,0.0,0.0,0.0,0.0,0.0,0.0,0.0,0.0,0.0,0.0,0.0,0.0,0.0,0.0,0.0,0.0,0.0,0.0,0.0,0.0,0.0,0.0,0.0,0.0,0.0,0.0,0.0,0.0,0.0,0.0,0.0,0.0,0.0,0.0,0.0,0.0,0.0,0.0,-3.3157,-3.4896,0.0,0.0,0.0,0.0,-3.7566,-3.767,-3.8289,-3.9638,-3.9966,-4.0768,-4.2114,-4.2978,-4.3494,-4.3525,-4.4172,-4.4479,-4.4479,-4.451,-4.4849,-4.5495,-4.5526,-4.5895,-4.648,-4.648,-4.648,-4.6357,-4.4387,-4.3881,-4.4174,-4.3563,-4.396,-4.5008,-4.5166,-4.6129,-4.7352,0.0,0.0,0.0,-1.9033,-1.8857,-1.8731,-1.8731,-1.9183,-1.9736,-2.0288,-2.1317,-2.2221,-2.2858,-2.3085,-2.3362,-2.3837,-2.3887,-2.3811,-2.3755,-2.4782,-2.5344,-2.5288,-2.5688,-2.561,-2.5013,-2.5792,-2.6245,-2.6373,-2.7314,-2.7889,-2.8098,-2.8464,-2.8882,-2.9274,-2.9065,-2.8726,-2.8281,-2.7314,-2.6504,-2.5772,-2.5145,-2.4465,0.0,0.0,0.0,0.0,0.0,0.0,0.0,0.0,0.0,0.0,0.0,0.0,0.0,0.0,0.0,0.0,0.0,0.0,0.0,0.0,0.0,0.0,0.0,0.0,0.0,0.0,0.0,0.0,0.0,0.0,0.0,0.0,0.0,0.0,0.0,0.0,0.0,-3.4002,-3.6144,0.0,-3.6208,-3.8272,-3.9496,-3.9132,-4.0115,-4.1129,-4.2047,-4.2301,-4.2829,-4.3758,-4.451,-4.488,-4.488,-4.5095,-4.5218,-4.5218,-4.4787,-4.4941,-4.5588,-4.5588,-4.6203,-4.725,-4.725,-4.7496,-4.7835,-4.7127,-4.6616,-4.6432,-4.6186,-4.6567,-4.7426,-4.8587,-4.9268,-4.9915,0.0,0.0,0.0,-1.9359,-1.9284,-1.9359,-1.956,-1.9886,-2.0363,-2.1117,-2.202,-2.2799,-2.3351,-2.3602,-2.3853,-2.4255,-2.428,-2.4268,-2.4129,-2.5422,-2.6231,-2.6388,-2.6608,-2.6543,-2.6271,-2.6271,-2.662,-2.7323,-2.7962,-2.8525,-2.889,-2.9379,-2.9666,-2.9849,-2.9849,-2.9745,-2.951,-2.8752,-2.7732,-2.6634,-2.6059,-2.5484,-2.4883,0.0,0.0,0.0,0.0,0.0,0.0,0.0,0.0,0.0,0.0,0.0,0.0,0.0,0.0,0.0,0.0,0.0,0.0,0.0,0.0,0.0,0.0,0.0,0.0,0.0,0.0,0.0,0.0,0.0,0.0,0.0,0.0,0.0,0.0,0.0,-3.6043,-3.5289,-3.7767,-3.9015,-3.7976,-4.033,-4.1727,-4.143,-4.2453,-4.3407,-4.4082,-4.4188,-4.4449,-4.491,-4.5341,-4.5464,-4.5249,-4.5249,-4.5249,-4.5249,-4.5249,-4.5618,-4.6296,-4.6757,-4.7588,-4.8635,-4.8635,-4.8912,-4.9312,-4.9312,-4.9189,-4.8912,-4.8531,-4.8848,-4.9552,-5.0962,-5.1756,-5.2391,0.0,0.0,-1.9811,-1.9811,-1.9811,-1.9987,-2.0643,-2.0743,-2.1091,-2.2171,-2.2799,-2.3351,-2.3929,-2.4481,-2.4808,-2.4833,-2.4833,-2.5034,-2.5536,-2.5968,-2.6704,-2.7875,-2.7524,-2.7472,-2.7806,-2.6688,-2.6943,-2.8579,-2.828,-2.8731,-2.9818,-2.9991,-3.0451,-3.0973,-3.0973,-3.0686,-3.0163,-3.0137,-2.9483,-2.8281,-2.6582,-2.6216,-2.6582,0.0,0.0,0.0,0.0,0.0,0.0,0.0,0.0,0.0,0.0,0.0,0.0,0.0,0.0,0.0,0.0,0.0,0.0,0.0,0.0,0.0,0.0,0.0,0.0,0.0,0.0,0.0,0.0,0.0,0.0,0.0,0.0,0.0,-3.641,-3.6359,-3.6693,-3.7224,-3.9748,-4.1232,-4.0742,-4.2707,-4.4065,-4.4327,-4.4526,-4.491,-4.5557,-4.5588,-4.5588,-4.5557,-4.5588,-4.528,-4.4603,-4.4664,-4.4664,-4.4695,-4.6018,-4.7004,-4.7711,-4.9066,-5.0082,-5.0728,-5.0728,-5.0728,-5.0759,-5.0759,-5.1159,-5.1647,-5.0492,-5.0485,-5.1167,-5.2114,-5.341,-5.4981,-1.9811,-1.9811,-1.9811,-1.9811,-1.9811,-1.9987,-2.0643,-2.1016,-2.1518,-2.2221,-2.2799,-2.3351,-2.3929,-2.413,-2.4381,-2.4782,-2.4833,-2.4883,-2.5034,-2.5987,-2.6883,-2.7621,-2.7589,-2.7564,-2.7646,-2.7748,-2.8074,-2.8579,-2.9052,-2.9507,-2.9818,-3.0481,-3.0843,-3.0973,-3.0973,-3.0895,-3.0712,-3.032,-2.9954,-2.9536,-2.8203,-2.7523,-2.721,0.0,0.0,0.0,0.0,0.0,0.0,0.0,0.0,0.0,0.0,0.0,0.0,0.0,0.0,0.0,0.0,0.0,0.0,0.0,0.0,0.0,0.0,0.0,0.0,0.0,0.0,0.0,0.0,0.0,0.0,0.0,-3.6939,-3.7418,-3.7069,-3.8737,-3.9847,-3.9579,-4.1219,-4.2256,-4.2179,-4.324,-4.417,-4.4734,-4.5,-4.517,-4.5384,-4.551,-4.5372,-4.488,-4.5341,-4.5495,-4.5311,-4.6296,-4.6788,-4.6788,-4.765,-4.8419,-4.9127,-4.9497,-5.0328,-5.1436,-5.1436,-5.1713,-5.2144,-5.2144,-5.2575,-5.3006,-5.1698,-5.1599,-5.2511,-5.4498,-5.6678,-5.8631,-1.9811,-1.9811,-1.9811,-1.9811,-1.9811,-2.0087,-2.0891,-2.1292,-2.1769,-2.2548,-2.2949,-2.3351,-2.3929,-2.4205,-2.4556,-2.5109,-2.5586,-2.5862,-2.5862,-2.7006,-2.7703,-2.7601,-2.8033,-2.8189,-2.8142,-2.829,-2.8689,-2.9221,-2.9619,-2.9947,-3.018,-3.0742,-3.1104,-3.1339,-3.1104,-3.113,-3.1313,-3.0738,-3.0503,-3.0424,-2.9745,-2.8987,-2.8203,-2.7602,-2.7183,-2.687,-2.6634,-2.6399,-2.6216,-2.6556,0.0,0.0,0.0,0.0,0.0,0.0,0.0,0.0,0.0,0.0,0.0,0.0,0.0,0.0,0.0,0.0,0.0,0.0,0.0,0.0,0.0,0.0,0.0,0.0,-3.9062,-3.9445,-3.9445,-4.0591,-4.1444,-4.1624,-4.2389,-4.3037,-4.3337,-4.4013,-4.4564,-4.4769,-4.5196,-4.5353,-4.5306,-4.551,-4.5403,-4.5003,-4.5649,-4.5865,-4.5588,-4.6942,-4.7619,-4.7619,-4.8881,-4.9712,-5.0112,-5.0389,-5.1128,-5.2144,-5.2144,-5.2513,-5.316,-5.3437,-5.4049,-5.4629,0.0,0.0,0.0,0.0,-5.9109,-6.0588,-1.9811,-1.9811,-1.9811,-1.9811,-1.9811,-2.0188,-2.1317,-2.1493,-2.192,-2.3075,-2.3115,-2.3376,-2.4029,-2.4481,-2.4958,-2.5536,-2.6565,-2.7243,-2.7369,-2.8369,-2.8616,-2.7728,-2.8667,-2.9076,-2.8925,-2.872,-2.9073,-3.0088,-3.0008,-3.0284,-3.0801,-3.1081,-3.1418,-3.181,-3.1313,-3.1339,-3.1705,-3.1209,-3.0973,-3.0973,-3.0973,-3.0346,-2.9327,-2.8778,-2.8543,-2.8412,-2.7915,-2.7392,-2.6974,-2.7027,0.0,0.0,0.0,0.0,0.0,0.0,0.0,0.0,0.0,0.0,0.0,0.0,0.0,0.0,0.0,0.0,0.0,0.0,0.0,0.0,0.0,0.0,0.0,0.0,-4.1594,-4.2479,-4.2551,-4.2013,-4.2073,-4.3299,-4.3449,-4.3688,-4.4257,-4.464,-4.48,-4.4609,-4.5196,-4.5432,-4.5275,-4.5571,0.0,0.0,0.0,-4.6296,-4.5711,-4.7034,-4.7711,-4.7742,-4.9743,-5.0759,-5.0944,-5.1528,-5.2236,-5.2944,-5.2944,-5.3283,-5.3868,-5.4576,-5.5527,-5.6535,-5.6485,-5.6983,-5.7851,-5.9488,-6.0646,-6.1434,-1.9811,-1.9811,-1.9811,-1.9811,-1.9811,-2.0188,-2.1317,-2.1493,-2.2046,-2.3627,-2.3427,-2.3466,-2.4556,-2.4356,-2.4531,-2.5511,-2.6214,-2.6992,-2.7896,-2.7792,-2.7767,-2.8019,-2.8648,-2.8925,-2.8925,-2.9505,-2.9859,-3.0088,-3.0855,-3.1241,-3.1345,-3.2072,-3.2176,-3.1836,-3.1731,-3.147,-3.113,-3.1026,-3.0973,-3.0973,-3.0973,-3.0581,-2.9954,-2.9849,-2.951,-2.9091,-2.8987,-2.8882,-2.8856,-2.9301,-2.9091,-2.8621,-2.8621,-2.8281,0.0,0.0,0.0,0.0,0.0,0.0,0.0,0.0,0.0,0.0,0.0,0.0,0.0,0.0,0.0,0.0,0.0,0.0,0.0,-4.0792,-4.1774,-4.2731,-4.3778,-4.3359,-4.324,-4.4018,-4.4137,-4.4167,-4.4317,-4.4398,-4.4398,-4.4398,-4.48,-4.5148,-4.5069,-4.5953,-4.6142,-4.5618,-4.6234,-4.6542,-4.6419,-4.7742,-4.8419,-4.845,-4.9959,0.0,-5.2329,-5.2452,-5.3191,-5.433,-5.433,-5.4422,-5.4545,-5.5434,-5.7172,-5.9103,-5.7818,-5.8181,-5.9498,-5.9857,-6.0918,-6.2178,-1.9811,-1.9811,-1.9811,-1.9811,-1.9811,-2.0188,-2.1317,-2.1493,-2.1995,-2.3376,-2.3577,-2.3678,-2.3954,-2.4481,-2.4908,-2.5184,-2.6239,-2.7218,-2.8047,-2.8097,-2.8097,-2.8097,-2.89,-2.9352,-2.9352,-2.9859,-3.0214,-3.0494,-3.106,-3.1577,-3.194,-3.233,-3.2463,-3.2254,-3.1967,-3.1679,-3.1392,-3.1104,-3.0973,-3.0973,-3.0973,-3.0817,-3.0555,-3.0555,-3.0372,-3.0137,-3.0137,-2.9954,-2.9745,-3.0032,-2.9745,-2.9274,-2.9274,-2.9065,-2.8778,0.0,0.0,0.0,0.0,0.0,0.0,0.0,0.0,0.0,0.0,0.0,0.0,0.0,0.0,-3.7515,-3.8925,0.0,-4.0967,-4.204,-4.2585,-4.306,-4.3718,-4.3539,-4.3569,-4.4227,-4.4018,-4.3958,-4.4287,-4.4398,-4.4479,-4.4479,-4.5183,-4.5483,-4.5148,-4.6076,-4.6449,-4.6111,-4.6757,-4.7096,-4.7096,-4.8789,-4.9651,-4.9682,-5.1374,-5.2575,-5.3221,-5.3221,-5.3775,-5.473,-5.473,-5.4914,-5.5316,-5.7159,-5.8658,-5.9807,-5.9944,-6.0451,-6.122,-6.122,-6.1728,-6.2381,-1.9836,-1.9811,-1.9811,-1.9811,-1.9886,-2.0313,-2.1343,-2.1669,-2.2171,-2.3175,-2.3703,-2.3828,-2.3351,-2.4481,-2.5259,-2.5159,-2.6364,-2.7344,-2.7921,-2.8473,-2.8574,-2.8122,-2.9176,-2.9804,-2.9804,-3.0011,-3.0291,-3.0747,-3.1084,-3.1575,-3.23,-3.2429,-3.2564,-3.2593,-3.2124,-3.1811,-3.1653,-3.1182,-3.0973,-3.0973,-3.0973,-3.0973,-3.0973,-3.0973,-3.0973,-3.0973,-3.0973,-3.0686,-3.0294,-3.0294,-3.0006,-2.9614,-2.9614,-2.9614,-2.964,-2.9745,-2.9771,0.0,0.0,0.0,0.0,0.0,0.0,0.0,0.0,-3.4749,-3.577,-3.7381,-3.8318,-3.9291,-4.0812,-4.136,-4.1989,-4.326,-4.3419,-4.3389,-4.3509,-4.3419,-4.3569,-4.4227,-4.3838,-4.3748,-4.4257,-4.4509,-4.4589,-4.4559,-4.5445,-4.5837,-4.541,-4.626,-4.6788,-4.6788,-4.7434,-4.7804,-4.7804,-4.9743,-5.0697,-5.0728,-5.2637,-5.3652,-5.3929,-5.3929,-5.436,-5.513,-5.513,-5.5501,-5.6403,-5.8652,-5.9674,-6.0022,-6.179,-6.2381,-6.2381,-6.2381,-6.2381,-6.2381,-1.9911,-1.9811,-1.9811,-1.9811,-2.0213,-2.0765,-2.1393,-2.2322,-2.3175,-2.3828,-2.3954,-2.3979,-2.3904,-2.4079,-2.4732,-2.6231,-2.644,-2.6791,-2.7344,-2.7896,-2.8172,-2.8097,-2.9176,-2.9804,-2.9804,-3.0011,-3.0113,-3.0164,-3.088,-3.1496,-3.2166,-3.2654,-3.2684,-3.246,-3.2329,-3.1889,-3.1078,-3.1026,-3.0973,-3.0973,-3.0973,-3.0973,-3.0973,-3.0973,-3.0973,-3.0973,-3.0973,-3.0947,-3.0895,-3.0895,-3.0843,-3.079,-3.079,-3.079,-3.0895,-3.1392,-3.1548,-3.1653,-3.2176,-3.2306,-3.2333,-3.2385,-3.2463,-3.2883,0.0,-3.5742,-3.7353,-3.9254,-4.0852,-4.2335,-4.3588,-4.3409,-4.326,-4.4107,-4.3718,-4.3539,-4.4107,-4.3718,-4.3569,-4.4227,-4.4257,-4.4227,-4.4317,-4.4317,-4.4317,-4.4317,-4.489,-4.5403,-4.592,-4.6885,-4.7496,-4.7496,-4.8142,-4.8512,-4.8512,-4.9959,-5.0697,-5.0697,-5.2144,-5.3468,-5.4607,-5.4607,-5.5315,-5.6546,-5.6546,-5.7119,-5.7993,-5.9145,-6.0108,-6.0903,-6.1951,-6.2381,-6.2381,-6.2381,-6.2381,-6.2381,-2.0891,-2.079,-2.079,-2.079,-2.0715,-2.0865,-2.1418,-2.2146,-2.2975,-2.3879,-2.4004,-2.4004,-2.4004,-2.4004,-2.4657,-2.6382,-2.6138,-2.6189,-2.6766,-2.7318,-2.777,-2.8097,-2.8875,-2.9453,-2.9779,-2.9856,-2.9934,-2.9934,-3.0567,-3.1026,-3.1439,-3.1975,-3.2111,-3.1731,-3.1731,-3.1267,-3.0672,-3.0672,-3.0672,-3.0849,-3.0849,-3.0924,-3.0947,-3.0607,-3.0686,-3.0973,-3.0973,-3.0973,0.0,-3.0973,-3.0973,-3.0973,-3.0973,-3.1209,-3.147,-3.1365,-3.181,-3.2385,-3.262,-3.296,-3.33,-3.3613,-3.3692,-3.4146,-3.5953,-3.759,-3.9183,-4.0908,-4.2739,-4.4107,-4.4287,-4.4077,-4.3868,-4.3778,-4.3509,-4.3419,-4.3718,-4.3509,-4.3569,-4.4227,-4.4317,-4.4317,-4.4317,-4.4317,-4.4548,-4.5019,-4.5574,-4.607,-4.6568,-4.7507,-4.7956,-4.7873,-4.9082,-4.972,-4.9634,-5.1471,-5.2452,-5.2483,-5.3806,-5.473,-5.5315,-5.5715,-5.6207,-5.6858,-5.7401,-5.784,-5.8303,-5.9762,-6.0652,-6.1069,-6.187,-6.2302,-6.2381,-6.2381,-6.2381,-6.2448,-2.2046,-2.1945,-2.1945,-2.1945,-2.1744,-2.1619,-2.1694,-2.2322,-2.3025,-2.3678,-2.3904,-2.4004,-2.4004,-2.4004,-2.4531,-2.5887,-2.5611,-2.5611,-2.6189,-2.6741,-2.7293,-2.7846,-2.8549,-2.9126,-2.9553,-2.9704,-2.9804,-2.9804,-3.0206,-3.0536,-3.0846,-3.1251,-3.136,-3.1136,-3.1136,-3.0829,-3.0368,-3.0368,-3.052,-3.0698,-3.0698,-3.0745,-3.0712,-3.0477,-3.0529,-3.0738,-3.0738,-3.0843,-3.0999,-3.1156,-3.1104,-3.1026,-3.1365,-3.1627,-3.181,-3.1731,-3.2515,-3.3404,-3.3404,-3.3718,-3.4162,-3.4554,-3.4659,-3.5115,-3.6936,-3.8808,-4.0491,-4.1906,-4.3725,-4.5005,-4.4885,-4.4556,-4.4287,-4.4167,-4.3988,-4.3958,-4.4137,-4.3988,-4.4137,-4.4796,-4.4706,-4.4676,-4.4855,-4.4706,-4.4937,-4.5763,-4.6328,-4.6773,-4.7183,-4.7806,-4.8286,-4.8511,-4.983,-5.059,-5.0869,-5.2886,-5.3899,-5.4022,-5.5345,-5.5992,-5.5992,-5.6515,-5.6761,-5.6858,-5.7495,-5.784,-5.7933,-5.9499,-6.0108,-6.0194,-6.1152,-6.1642,-6.1837,-6.211,-6.2223,-6.2403,-2.3201,-2.3015,-2.3015,-2.3015,-2.3527,-2.3527,-2.2447,-2.3226,-2.3753,-2.3165,-2.3653,-2.4004,-2.4004,-2.4004,-2.423,-2.4833,-2.4858,-2.5059,-2.5586,-2.6163,-2.6741,-2.7293,-2.8348,-2.8925,-2.895,-2.9503,-2.9804,-2.9804,-2.9804,-3.008,-3.0608,-3.0633,-3.0712,-3.0899,-3.0899,-3.0751,-3.0368,-3.0368,-3.052,-3.0698,-3.0698,-3.0436,-3.0215,-3.0764,-3.0634,-3.0163,-3.0163,-3.0503,-3.1078,-3.1627,-3.1444,-3.1182,-3.228,-3.228,-3.2071,-3.3195,-3.4319,-3.5208,-3.5208,-3.5234,-3.526,-3.526,-3.526,-3.5574,-3.6724,-3.8951,-4.0998,-4.2266,-4.3454,-4.4736,-4.6022,-4.5185,-4.4736,-4.6022,-4.5663,-4.5484,-4.6142,-4.5663,-4.5484,-4.6172,-4.5663,-4.5544,-4.6202,-4.5663,-4.5544,-4.6232,-4.6515,-4.69,-4.7563,-4.788,-4.8541,-4.9847,-4.9938,-5.0664,-5.2185,-5.3621,-5.4387,-5.473,-5.6084,-5.673,-5.673,-5.6761,-5.6761,-5.6761,-5.6858,-5.6858,-5.6954,-5.7621,-5.787,-5.8024,-5.961,-6.0299,-6.0384,-6.135,-6.1837,-6.2177,-2.2677,-2.3418,-2.413,-2.3778,-2.418,-2.4406,-2.4029,-2.3979,-2.3929,-2.3728,-2.3879,0.0,0.0,0.0,0.0,0.0,-2.428,-2.4356,-2.4531,-2.5385,-2.6138,-2.6716,-2.7444,-2.8172,-2.89,-2.9126,-2.9227,-2.9227,-2.9603,-2.9704,-2.9503,-2.988,-3.0159,-3.0133,-3.0133,-3.011,-3.0011,-3.0011,-3.0088,-3.0318,-3.0318,-3.0266,-3.0338,-3.0696,-3.0644,-3.054,0.0,-3.1156,-3.1078,-3.1653,-3.1444,-3.113,-3.1888,-3.2515,-3.33,-3.4816,-3.4999,-3.4789,-3.5182,-3.5861,-3.6332,-3.594,-3.6436,-3.7142,-3.7508,-3.9365,-4.0948,-4.0976,-4.3279,-4.5141,-4.4787,-4.5183,-4.5633,-4.5633,-4.5843,-4.6052,-4.6292,-4.6501,-4.689,-4.7549,-4.7429,-4.7549,-4.8207,-4.689,-4.6441,-4.7549,-4.7306,-4.7516,-4.8625,-4.895,-4.9342,-5.0065,-5.1727,-5.2728,-5.3118,-5.4613,-5.5572,-5.5796,-5.6449,-5.6761,-5.6761,-5.6761,-5.6664,-5.6567,-5.718,-5.7338,-5.7307,-5.8812,-5.9434,-5.9522,-6.0619,-6.1069,-6.1301,-6.1999,-6.2282,-6.2464,0.0,-2.3872,-2.4657,-2.4568,-2.4858,0.0,0.0,0.0,0.0,0.0,0.0,0.0,0.0,0.0,0.0,0.0,0.0,-2.4004,-2.4004,-2.5008,-2.5762,-2.6138,-2.6866,-2.762,-2.8323,-2.8524,-2.8725,-2.8925,-2.9302,-2.9402,-2.9252,-2.9628,-2.9804,-2.9804,-2.9804,-2.9804,-2.9804,-2.9804,-3.006,-3.0367,-3.0164,-3.0216,-3.0368,-3.052,-3.0493,0.0,-3.1395,-3.1394,-3.1104,-3.1888,-3.1757,-3.1418,-3.2228,-3.3273,-3.4424,-3.5495,-3.5443,-3.5129,-3.573,-3.6279,-3.6698,-3.6724,-3.7325,-3.8004,-3.8423,-4.0027,-4.1393,-4.111,-4.3455,-4.5256,-4.4734,-4.5545,-4.6262,-4.6052,-4.6591,-4.71,-4.7339,-4.7728,-4.8237,-4.8895,-4.8775,-4.8805,-4.9224,-4.8327,-4.7967,-4.8596,-4.8476,-4.8716,-4.9583,-5.0005,-5.0545,-5.1259,-5.2803,-5.3899,-5.4315,-5.5357,-5.5979,-5.6274,-5.6715,-5.6813,-5.647,-5.6715,-5.6586,-5.6274,-5.6862,-5.7053,-5.7022,-5.8085,-5.851,-5.869,-5.9816,-6.0443,-6.0909,-6.1947,-6.2731,-6.3348,0.0,0.0,-2.4711,0.0,0.0,0.0,0.0,0.0,0.0,0.0,0.0,0.0,0.0,0.0,0.0,0.0,0.0,0.0,-2.3954,-2.4933,-2.5536,-2.5561,-2.6615,-2.7218,-2.7293,-2.7795,-2.8323,-2.8875,-2.8875,-2.9176,-2.9704,-2.9729,-2.9754,-2.9754,-2.9779,-2.9804,-2.9804,-2.9804,-3.0159,-3.0823,-3.0291,-3.0139,-3.0292,-3.0394,-3.0211,-2.9999,-3.1138,-3.1343,-3.1209,-3.228,-3.228,-3.2045,-3.3221,-3.4345,-3.526,-3.5312,-3.5704,-3.6227,-3.6802,-3.6593,-3.6462,-3.7586,-3.7952,-3.8318,-3.9364,-4.0787,-4.2018,-4.2629,-4.3807,-4.4964,-4.5634,-4.6107,-4.6591,-4.7219,-4.7878,-4.8566,-4.9164,-4.9314,-4.9583,-5.0212,-4.9733,-4.9374,-4.9374,-4.9912,-5.0032,-4.9464,-4.9972,-5.0301,-5.0391,-5.099,-5.1917,-5.3204,-5.3264,-5.3991,-5.5581,-5.5611,-5.5741,-5.6039,-5.6907,-5.6877,-5.6039,-5.6647,-5.6555,-5.5979,-5.5979,-5.5979,-5.5979,-5.578,-5.578,-5.5849,-5.759,-5.8712,-5.9561,-6.1578,-6.3311,-6.4647,0.0,0.0,0.0,0.0,0.0,0.0,0.0,0.0,0.0,0.0,0.0,0.0,0.0,0.0,0.0,0.0,0.0,0.0,-2.3351,-2.4029,-2.4582,-2.5008,-2.5661,-2.6414,-2.7268,-2.7419,-2.777,-2.8323,-2.8323,-2.8398,-2.8549,-2.895,-2.9151,-2.9176,-2.9603,-2.9804,-2.9804,-2.9804,-2.988,-3.0058,-2.9907,-2.9856,-2.9984,-3.0544,-3.0573,-3.0443,-3.1759,-3.1941,-3.1653,-3.1967,-3.1967,-3.2045,-3.3221,-3.4058,-3.4789,-3.5652,-3.5992,-3.6149,-3.6305,-3.6881,-3.7403,-3.7273,-3.8527,-3.973,-3.9625,-4.0552,-4.1576,-4.2004,-4.3398,-4.4527,-4.5051,-4.6166,-4.71,-4.7279,-4.8267,-4.9075,-4.9254,-5.0122,-5.078,-5.096,-5.081,-5.072,-5.072,-5.087,-5.1109,-5.1409,-5.1139,-5.1379,-5.2366,-5.2606,-5.3084,-5.3922,-5.4431,-5.485,-5.528,-5.5962,-5.6405,-5.6436,-5.7274,-5.7345,-5.6677,-5.6829,-5.6455,-5.5681,-5.5681,-5.5581,-5.5481,-5.6927,-5.7465,-5.7715,-6.017,-6.0935,-6.0922,-6.3,-6.3756,-6.379,0.0,0.0,0.0,0.0,0.0,0.0,0.0,0.0,0.0,0.0,0.0,0.0,0.0,0.0,0.0,0.0,0.0,0.0,0.0,-2.3904,-2.4381,-2.4456,-2.5184,-2.5887,-2.654,-2.6791,-2.7318,-2.8097,-2.7871,-2.7996,-2.8473,-2.8524,-2.8574,-2.8574,-2.89,-2.9051,-2.9051,-2.9051,-2.9327,0.0,0.0,-2.9578,-2.9804,-3.0009,-2.9961,-2.9985,-3.0727,-3.1293,-3.1681,-3.1681,-3.2098,-3.2751,-3.3666,-3.4345,-3.5025,-3.6175,-3.6305,-3.6279,-3.7037,-3.756,-3.7952,-3.8109,-3.9285,-4.0331,-4.0043,-4.0671,-4.1492,-4.2193,-4.3405,-4.4478,-4.5136,-4.6609,-4.7638,-4.7369,-4.8656,-4.9583,-4.9314,-5.0391,-5.1229,-5.1229,-5.1468,-5.1528,-5.1259,-5.2007,-5.2546,-5.2636,-5.2276,-5.2546,-5.3563,-5.3922,-5.4251,-5.464,-5.4999,-5.5329,-5.5628,-5.6293,-5.6696,-5.6792,-5.7764,-5.7704,-5.6967,-5.7269,-5.6907,-5.5831,-5.6101,-5.5921,-5.531,-5.714,-5.7461,-5.7053,-5.9473,-6.0509,-6.0866,-6.2068,-6.3228,-6.4244,0.0,0.0,0.0,0.0,0.0,0.0,0.0,0.0,0.0,0.0,0.0,-2.3803,-2.3301,-2.3627,0.0,0.0,0.0,0.0,0.0,0.0,-2.4406,-2.4029,-2.4883,-2.541,-2.5485,-2.6063,-2.6816,-2.777,-2.7369,-2.767,-2.8599,-2.8197,-2.7996,-2.7996,-2.8072,-2.8097,-2.8097,-2.8097,-2.8674,-2.9528,-2.9026,-2.9126,-2.9503,0.0,-2.8925,-2.9225,-2.9301,-3.0291,-3.1526,-3.1578,-3.2462,-3.3587,-3.4214,-3.4816,-3.5495,-3.6567,-3.6619,-3.6671,-3.8187,-3.8318,-3.8266,-3.9337,-4.0017,-4.0409,-4.0409,-4.0827,-4.1492,-4.2792,-4.3665,-4.4571,-4.5779,-4.72,-4.7997,-4.7519,-4.8955,-4.9942,-4.9464,-5.0451,-5.1259,-5.1349,-5.1858,-5.2007,-5.1528,-5.3054,-5.3862,-5.3354,-5.3324,-5.3623,-5.4311,-5.488,-5.5179,-5.5179,-5.5269,-5.5598,-5.6166,-5.6654,-5.6912,-5.7244,-5.8144,-5.8113,-5.7244,-5.7842,-5.7453,-5.6316,-5.6855,-5.6466,-5.558,-5.7068,-5.6846,-5.5702,-5.7714,-5.9191,-6.0329,-6.0392,-6.2482,-6.5066,0.0,0.0,0.0,0.0,0.0,0.0,0.0,0.0,0.0,0.0,-2.3929,-2.3954,0.0,0.0,0.0,0.0,0.0,0.0,0.0,0.0,0.0,-2.3979,-2.418,-2.4481,-2.4933,-2.5485,-2.5837,-2.6038,-2.6414,-2.6691,-2.6892,-2.7243,-2.7419,-2.7444,-2.7896,-2.8097,-2.8097,-2.8097,-2.8222,-2.8398,-2.8298,-2.8298,-2.8373,-2.8298,0.0,0.0,-2.996,-3.065,-3.1344,-3.1991,-3.254,-3.3038,-3.4058,-3.4816,-3.5417,-3.607,-3.6907,-3.7665,-3.7952,-3.8292,-3.8736,-3.9442,-4.0017,-4.0409,-4.0409,-4.0488,-4.1161,-4.3543,-4.3798,-4.4214,-4.6637,-4.7312,-4.7608,-4.8057,-4.8865,-4.9583,-5.0002,-5.072,-5.1409,-5.1977,-5.2127,-5.2366,-5.2785,-5.3144,-5.3563,-5.3982,-5.4042,-5.4311,-5.497,-5.5119,-5.5179,-5.5179,-5.5718,-5.6047,-5.6166,-5.7244,-5.7842,-5.7962,-5.862,-5.859,-5.7962,-5.8082,-5.7693,-5.6944,-5.7034,-5.6974,-5.6869,-5.7953,-5.7886,-5.7395,-5.9784,-6.0422,-6.0264,-6.1498,-6.2844,-6.4146,0.0,0.0,0.0,0.0,0.0,0.0,0.0,-2.3778,-2.3879,-2.4732,-2.4833,-2.4632,-2.4054,-2.3477,-2.3065,0.0,0.0,0.0,0.0,0.0,0.0,-2.3552,-2.3828,-2.413,-2.4381,-2.5184,-2.5737,-2.6038,0.0,-2.6615,-2.6892,-2.6866,-2.6841,-2.6866,-2.7143,-2.7243,-2.7243,-2.7243,-2.7419,-2.767,-2.767,-2.767,-2.767,-2.767,0.0,0.0,-2.9758,-3.052,-3.1134,-3.188,-3.2401,-3.3083,-3.4418,-3.5077,-3.5521,-3.6698,-3.7456,-3.8083,-3.8972,-3.9207,-3.9311,-3.9886,-4.0226,-4.0409,-4.0409,-4.0409,-4.0852,-4.2657,-4.2841,-4.335,-4.561,-4.6609,-4.717,-4.77,-4.8895,-4.9883,-5.0182,-5.081,-5.1468,-5.2127,-5.2516,-5.2695,-5.2665,-5.3623,-5.4221,-5.4221,-5.4521,-5.485,-5.5179,-5.5179,-5.5359,-5.5688,-5.6017,-5.6496,-5.7184,-5.7812,-5.8291,-5.865,-5.8949,-5.8949,-5.865,-5.865,-5.8261,-5.7633,-5.7992,-5.7752,-5.7198,-5.8166,-5.787,-5.7111,-5.9061,-5.9861,-5.9949,-6.0805,-6.2121,-6.3545,0.0,0.0,0.0,0.0,0.0,0.0,0.0,-2.4317,-2.4493,-2.5636,-2.5787,-2.546,-2.4607,-2.3904,-2.3452,0.0,0.0,0.0,0.0,0.0,0.0,0.0,-2.3577,-2.3828,-2.3828,0.0,0.0,-2.6113,-2.6339,0.0,0.0,0.0,0.0,0.0,-2.6533,-2.6533,-2.6533,-2.6533,-2.6716,0.0,0.0,-2.7118,-2.7143,0.0,0.0,0.0,0.0,-3.0133,-3.077,-3.1508,-3.2179,-3.2905,-3.4484,-3.5279,-3.5905,-3.7521,-3.824,-3.8736,-4.0043,-4.0095,-3.9913,-4.0461,-4.0514,-4.0461,-4.0566,-4.0409,-4.0544,-4.1707,-4.1707,-4.2196,-4.4325,-4.5576,-4.6605,-4.7195,-4.8835,-5.0122,-5.0421,-5.09,-5.1498,-5.2306,-5.2875,-5.3025,-5.2665,-5.4192,-5.497,-5.4461,-5.491,-5.5179,-5.5179,-5.5329,-5.5628,-5.6166,-5.6436,-5.7094,-5.8112,-5.8261,-5.859,-5.9099,-5.9099,-5.9099,-5.9099,-5.9099,-5.883,-5.8351,-5.889,-5.8501,-5.7618,-5.8419,-5.791,-5.6959,-5.8389,-5.9337,-6.0071,-6.0235,-6.163,-6.3358,0.0,0.0,0.0,0.0,0.0,0.0,0.0,-2.4201,-2.5028,-2.6239,-2.6458,-2.6408,-2.6239,-2.531,-2.4456,0.0,0.0,0.0,0.0,0.0,0.0,0.0,0.0,0.0,0.0,0.0,0.0,-2.4983,-2.5963,0.0,0.0,0.0,0.0,0.0,0.0,-2.6533,-2.6533,-2.6533,0.0,0.0,0.0,0.0,0.0,0.0,0.0,0.0,0.0,-2.9829,-3.0108,-3.1381,-3.1843,-3.2153,-3.3444,-3.5141,-3.6819,-3.8013,-3.9198,-4.0226,-4.0383,-4.0383,-4.0488,-4.1089,-4.0827,-4.0566,-4.1115,-4.0435,-4.0096,-4.1599,-4.1055,-4.1066,-4.3546,-4.4618,-4.5552,-4.7016,-4.8446,-4.9763,-5.096,-5.1169,-5.1678,-5.2935,-5.3144,-5.3414,-5.3982,-5.473,-5.5149,-5.5089,-5.5149,-5.5179,-5.5179,-5.5748,-5.6107,-5.6166,-5.7334,-5.7992,-5.8112,-5.871,-5.9039,-5.9099,-5.9099,-5.9099,-5.9099,-5.9099,-5.9069,-5.9009,-5.9069,-5.9039,-5.8919,-5.9027,-5.8997,-5.889,-5.9657,-6.0346,-6.0946,-6.0984,-6.2122,-6.3703,0.0,0.0,0.0,0.0,0.0,0.0,-2.2601,-2.3304,-2.4285,-2.5826,-2.6648,-2.7086,-2.7086,-2.6416,-2.5418,-2.413,0.0,0.0,0.0,0.0,0.0,0.0,0.0,0.0,0.0,0.0,-2.5285,-2.5285,-2.6063,0.0,0.0,0.0,0.0,0.0,0.0,-2.6533,-2.6533,-2.6533,0.0,0.0,0.0,0.0,0.0,0.0,0.0,0.0,0.0,0.0,-2.9905,-3.0763,-3.1297,-3.1751,-3.2971,-3.4412,-3.5981,-3.7201,-3.8523,-3.9556,-4.0253,-4.0301,-4.027,-4.0941,-4.0754,-4.0566,-4.1167,-4.0435,-3.9747,-4.0341,-3.9826,-3.9757,-4.1396,-4.3262,-4.4895,-4.5698,-4.809,-5.0182,-5.1079,-5.1229,-5.1708,-5.3025,-5.3174,-5.3294,-5.3563,-5.4551,-5.5179,-5.5179,-5.5568,-5.5777,-5.5777,-5.6017,-5.6526,-5.7334,-5.7842,-5.8321,-5.871,-5.8979,-5.9099,-5.9099,-5.9099,-5.9099,-5.9099,-5.9099,-5.9099,-5.9099,-5.9099,-5.9099,-5.9099,-5.9099,-5.9099,-5.9219,-6.0296,-6.0864,-6.1224,-6.2002,-6.2521,-6.2768,0.0,0.0,0.0,0.0,0.0,-2.0555,-2.1711,-2.2503,-2.363,-2.5252,-2.6478,-2.7285,-2.7458,-2.7041,-2.6103,-2.4688,-2.4154,0.0,0.0,0.0,0.0,0.0,0.0,0.0,0.0,0.0,-2.5586,-2.5586,-2.6163,-2.6533,0.0,0.0,-2.6533,-2.6533,0.0,0.0,0.0,0.0,0.0,0.0,0.0,0.0,0.0,0.0,0.0,0.0,0.0,0.0,0.0,0.0,0.0,-3.1562,-3.2516,-3.3745,-3.506,-3.6539,-3.7807,-3.9005,-3.9979,-4.0182,-4.0253,-4.0585,-4.0556,-4.0499,-4.0676,-4.0076,-3.9451,-3.9294,-3.8799,-3.8727,-3.9681,-4.2223,-4.4322,-4.4731,-4.7759,-5.0296,-5.0952,-5.1095,-5.1667,-5.2591,-5.3136,-5.3286,-5.3107,-5.4401,-5.5269,-5.5478,-5.5897,-5.6346,-5.6735,-5.6735,-5.7184,-5.8082,-5.8321,-5.865,-5.9099,-5.9099,-5.9099,-5.9099,-5.9099,-5.9099,-5.9099,-5.9099,-5.9099,-5.9099,-5.9099,-5.9219,-5.9398,-5.9398,-5.9638,-6.0086,-6.1044,-6.1523,-6.1822,-6.272,-6.278,-6.245,0.0,0.0,0.0,0.0,0.0,0.0,-2.1019,-2.1973,-2.3202,-2.4732,-2.5796,-2.6661,-2.7434,-2.7041,-2.65,-2.5935,-2.4542,0.0,0.0,0.0,0.0,0.0,0.0,0.0,0.0,0.0,-2.5586,-2.5586,-2.6163,-2.6533,-2.6533,-2.6533,-2.6533,-2.6533,0.0,0.0,0.0,0.0,0.0,0.0,0.0,0.0,0.0,0.0,0.0,0.0,0.0,0.0,0.0,0.0,0.0,0.0,0.0,-3.2993,-3.4312,-3.6252,-3.7712,-3.8902,-3.9517,-4.0081,-4.0464,-4.0098,-4.0282,-4.031,-3.9375,-3.9214,-3.9032,-3.8558,-3.8106,-3.8148,-3.906,-4.1585,-4.3868,-4.4525,-4.7607,-5.0016,-5.0412,-5.1031,-5.1414,-5.1473,-5.2892,-5.3525,-5.2872,-5.4301,-5.5478,-5.6107,-5.6166,0.0,-5.8022,-5.8112,-5.8112,-5.8112,-5.874,-5.9099,-5.9099,-5.9099,-5.9099,-5.9099,-5.9099,-5.9099,-5.9099,-5.9099,-5.9099,-5.9099,-5.9099,-5.9488,-6.0086,-6.0086,-6.0864,-6.2061,-6.2091,-6.248,-6.3049,-6.3079,-6.3079,-6.3079,0.0,0.0,0.0,0.0,0.0,0.0,0.0,-1.9975,-2.115,-2.2542,-2.4066,-2.5342,-2.6457,-2.6433,-2.6045,-2.5513,-2.4621,0.0,0.0,0.0,0.0,0.0,0.0,0.0,0.0,-2.5812,-2.6189,-2.6189,-2.6433,-2.6533,-2.6533,-2.6533,-2.6533,-2.6533,-2.6533,-2.6533,0.0,0.0,0.0,0.0,0.0,0.0,0.0,0.0,0.0,0.0,0.0,0.0,0.0,0.0,0.0,0.0,0.0,0.0,0.0,-3.4841,-3.6218,-3.7298,-3.7855,-3.851,-3.9015,-3.8911,-3.9111,-3.9235,-3.8974,-3.8614,-3.8306,-3.8126,-3.7706,-3.7479,-3.773,-4.1028,-4.3398,-4.2395,-4.6784,-5.0044,-4.9415,-5.071,-5.1639,-5.1473,-5.2309,-5.3207,-5.409,0.0,-5.5275,-5.6137,-5.6555,-5.7184,-5.8082,-5.856,-5.88,-5.88,-5.9009,-5.9099,-5.9099,-5.9099,-5.9099,-5.9099,-5.9099,-5.9099,-5.9099,-5.9099,-5.9099,-5.9129,-5.9578,-5.9877,-6.0146,-6.1074,-6.1702,-6.2151,-6.26,-6.2899,-6.3079,-6.3079,-6.3079,-6.3079,0.0,0.0,0.0,0.0,0.0,0.0,0.0,-1.8774,-1.9761,-2.0866,-2.2284,-2.3833,-2.5276,-2.5469,-2.5516,-2.5612,-2.4687,0.0,0.0,0.0,0.0,0.0,0.0,0.0,-2.5586,-2.6163,-2.6634,-2.6766,-2.6967,-2.7067,-2.7092,-2.7293,-2.7168,-2.6766,-2.6766,-2.6666,0.0,0.0,0.0,0.0,0.0,0.0,-2.8172,0.0,0.0,0.0,0.0,0.0,0.0,0.0,0.0,0.0,0.0,0.0,0.0,0.0,-3.4876,-3.5956,-3.6935,-3.7686,-3.826,-3.8155,-3.8354,-3.838,-3.8044,-3.7961,-3.7833,-3.7603,-3.7271,-3.7185,-3.739,-4.0573,-4.2807,-4.1799,-4.6182,-4.9531,-4.8937,-5.0336,-5.1523,-5.2052,-5.2364,-5.3112,0.0,-5.4671,-5.5129,-5.6258,-5.678,-5.7408,-5.8441,-5.889,-5.9099,-5.9099,-5.9099,-5.9099,-5.9099,-5.9099,-5.9099,-5.9099,-5.9099,-5.9099,-5.9099,-5.9099,-5.9099,-5.9129,-5.9787,-6.0236,0.0,-6.1642,-6.2241,-6.251,-6.2929,-6.3079,-6.3079,-6.3079,-6.3079,-6.3079,0.0,0.0,0.0,0.0,0.0,0.0,0.0,-1.834,-1.8854,-1.9665,-2.0754,-2.2151,-2.395,-2.4306,-2.4867,-2.5757,0.0,0.0,0.0,0.0,0.0,0.0,0.0,0.0,-2.5636,-2.6189,-2.6741,-2.7293,-2.7795,-2.8072,-2.8122,-2.8624,-2.8323,-2.7344,-2.7344,-2.7042,-2.6584,-2.6559,-2.6533,-2.6584,-2.7067,-2.762,0.0,0.0,0.0,0.0,0.0,0.0,0.0,0.0,0.0,0.0,0.0,0.0,0.0,0.0,0.0,0.0,0.0,-3.7462,-3.7862,-3.7551,-3.7707,-3.7711,-3.6868,-3.714,0.0,-3.6785,-3.6896,-3.7194,-3.7756,-4.0166,-4.21,-4.2462,-4.5788,-4.8522,-4.8836,-4.9953,-5.1308,-5.2866,-5.3012,-5.3349,-5.4142,-5.4333,-5.4997,-5.6585,-5.6733,-5.7434,-5.8931,-5.8991,-5.8991,-5.9099,-5.9099,-5.9099,-5.9099,-5.9099,-5.9099,-5.9099,-5.9099,-5.9099,-5.9099,-5.9099,-5.9099,-5.9129,-5.9847,-6.0505,-6.1164,-6.1882,-6.254,-6.3079,-6.3079,-6.3079,-6.3079,-6.3079,-6.3079,-6.3079,0.0,0.0,0.0,0.0,0.0,0.0,0.0,0.0,0.0,0.0,-2.0261,-2.1396,-2.2386,-2.3361,-2.3823,0.0,0.0,0.0,0.0,0.0,0.0,0.0,0.0,0.0,-2.6239,-2.6277,-2.6532,-2.708,-2.7204,-2.7478,-2.7902,-2.8174,-2.8099,-2.7703,-2.7848,-2.7595,-2.7067,-2.664,-2.6533,-2.6584,-2.7067,-2.762,0.0,0.0,0.0,0.0,-2.9804,-2.9804,0.0,0.0,0.0,0.0,0.0,0.0,0.0,0.0,-3.3847,-3.4901,-3.5705,0.0,-3.6709,-3.6679,-3.6754,-3.6684,0.0,-3.6553,-3.6502,-3.5949,-3.615,-3.6723,-3.7278,-3.9705,-4.1585,-4.1588,-4.5272,-4.8014,-4.7691,-4.9784,-5.1802,-5.2895,-5.2778,-5.3011,-5.3935,-5.4462,-5.5213,-5.6326,-5.6828,-5.7478,-5.8386,-5.8415,-5.8555,-5.8803,-5.8773,-5.8882,-5.9099,-5.9099,-5.9099,-5.9099,-5.9099,-5.9099,-5.9099,-5.9099,-5.9099,-5.9189,-6.0356,-6.0954,-6.1194,-6.2361,-6.2929,-6.3079,-6.3079,-6.3079,-6.3079,-6.3079,-6.3079,-6.3079,0.0,0.0,0.0,0.0,0.0,0.0,0.0,0.0,0.0,0.0,0.0,-2.0776,-2.1396,-2.262,0.0,0.0,0.0,0.0,0.0,0.0,0.0,0.0,0.0,-2.5617,-2.6233,-2.6437,-2.6763,-2.7236,-2.7779,-2.8251,-2.8574,-2.8898,-2.8749,-2.8176,-2.7928,-2.7578,-2.7126,-2.6826,-2.6621,-2.6584,-2.7067,0.0,0.0,0.0,0.0,0.0,-2.9402,-2.9578,0.0,-2.9804,-2.9955,-3.0181,0.0,0.0,0.0,0.0,-3.347,-3.4525,-3.5328,-3.5956,-3.6358,-3.6358,-3.6358,-3.6358,-3.6358,-3.6358,-3.6433,-3.6634,-3.691,-3.7437,-3.8517,-4.0642,-4.2009,-4.1771,-4.555,-4.8668,-4.9182,-5.0898,-5.2297,-5.2748,-5.2936,-5.3227,0.0,-5.4322,-5.507,-5.6035,-5.6682,-5.7298,-5.8166,-5.8195,-5.8305,-5.8445,-5.8445,-5.8664,-5.9099,-5.9099,-5.9099,-5.9099,-5.9099,-5.9099,-5.9099,-5.9099,-5.9279,-5.9608,-6.0655,-6.1283,-6.1642,-6.266,-6.3079,-6.3079,-6.3079,-6.3079,-6.3079,-6.3079,-6.3079,-6.3109,0.0,0.0,0.0,0.0,0.0,0.0,0.0,0.0,0.0,0.0,0.0,0.0,0.0,0.0,0.0,0.0,0.0,0.0,0.0,0.0,0.0,0.0,-2.4811,-2.5487,-2.591,-2.6667,-2.7138,-2.7434,-2.8744,-2.9341,-2.9365,-2.9836,-2.9564,-2.8622,-2.7877,-2.741,-2.7133,-2.7058,-2.6851,-2.6559,-2.6967,0.0,0.0,0.0,0.0,0.0,0.0,0.0,0.0,-2.9654,-3.003,-3.0432,-3.003,0.0,0.0,0.0,0.0,0.0,-3.5052,-3.5805,-3.6358,-3.6358,-3.6358,-3.6383,-3.6458,-3.6558,-3.6885,-3.7814,-3.814,-3.8718,-4.0249,-4.1747,-4.268,-4.2503,-4.6009,-4.9465,-5.1324,-5.2165,-5.2572,-5.2572,-5.3123,0.0,-5.3646,-5.4255,-5.5031,-5.5859,-5.6501,-5.7196,-5.8055,-5.8085,-5.8085,-5.8085,-5.8085,-5.8415,-5.8991,-5.8991,-5.8991,-5.8991,-5.9099,-5.9099,-5.9099,-5.9219,-5.9548,-6.0116,-6.0924,-6.1583,-6.2151,-6.281,-6.3079,-6.3079,-6.3079,-6.3079,-6.3079,-6.3079,-6.3139,-6.3318,0.0,0.0,0.0,0.0,0.0,0.0,0.0,0.0,0.0,0.0,0.0,0.0,0.0,0.0,0.0,0.0,0.0,0.0,0.0,0.0,0.0,-2.2775,-2.4606,-2.5673,-2.591,-2.6724,-2.7188,-2.7285,-2.8358,-2.8973,-2.9131,-2.9204,-2.9155,-2.8983,-2.8264,-2.7826,-2.7679,-2.7207,-2.6851,-2.6533,-2.6609,0.0,0.0,0.0,0.0,0.0,0.0,0.0,0.0,-2.9051,-2.9453,-2.998,-3.0357,0.0,0.0,0.0,0.0,0.0,-3.4098,-3.5228,-3.6358,-3.6358,-3.6358,-3.6483,-3.696,-3.7412,-3.7789,-3.7965,-3.8768,-3.9647,-4.0375,-4.1059,-4.2023,-4.3313,-4.6236,-4.8969,-5.1279,-5.2165,-5.2572,-5.2572,-5.3123,-5.3733,-5.4313,-5.4923,-5.5533,-5.631,-5.6921,-5.7328,-5.7416,-5.7416,-5.7528,-5.7892,-5.7892,-5.8003,-5.8305,-5.8664,-5.8773,-5.8773,-5.8991,-5.9099,-5.9129,-5.9668,-5.9997,-6.0146,-6.1403,-6.2002,-6.2151,-6.281,-6.3079,-6.3079,-6.3079,-6.3079,-6.3079,-6.3079,-6.3408,-6.4036,0.0,0.0,0.0,0.0,0.0,0.0,0.0,0.0,0.0,0.0,0.0,0.0,0.0,0.0,0.0,0.0,0.0,0.0,0.0,0.0,-2.2,-2.2092,-2.3815,-2.4992,-2.5348,-2.6576,-2.7427,-2.7932,-2.8761,-2.9309,-2.9389,-2.9096,-2.8895,-2.8736,-2.8391,-2.7989,-2.7582,-2.7336,-2.6959,-2.6533,0.0,0.0,0.0,0.0,0.0,0.0,0.0,0.0,0.0,0.0,-2.8975,-2.9674,-2.9924,0.0,0.0,0.0,0.0,0.0,-3.4173,-3.4901,-3.5705,-3.6584,-3.7036,-3.7312,-3.7563,-3.8065,-3.8567,-3.8868,-3.9798,-4.0752,-4.1304,-4.2883,-4.4758,-4.7158,-4.8373,-4.9749,-5.1873,-5.2397,-5.2688,0.0,0.0,-5.3791,-5.4458,-5.5068,-5.5678,-5.6345,-5.6955,-5.7303,-5.7303,-5.7303,-5.7416,-5.7528,-5.7528,-5.7528,-5.7751,-5.8003,-5.8335,-5.8694,-5.8991,-5.9099,-5.9129,-5.9428,-5.9757,-6.0146,-6.1134,-6.1762,-6.2151,-6.281,-6.3079,-6.3079,-6.3079,-6.3079,-6.3109,-6.3468,-6.3977,-6.4635,0.0,0.0,0.0,0.0,0.0,0.0,0.0,0.0,0.0,0.0,0.0,0.0,0.0,0.0,0.0,0.0,0.0,0.0,0.0,-2.0637,-2.1237,-2.1376,-2.2938,-2.4146,-2.4756,-2.6566,-2.7835,-2.8522,-2.9431,-2.9755,-2.9512,-2.9059,-2.8736,-2.8522,-2.8522,-2.8149,-2.763,-2.7483,-2.7112,-2.6571,0.0,0.0,0.0,0.0,0.0,0.0,0.0,0.0,0.0,0.0,0.0,0.0,0.0,0.0,0.0,-3.2062,-3.2386,-3.3032,-3.4223,-3.4625,-3.5127,-3.6759,-3.7513,-3.7914,-3.8316,-3.8843,-3.9446,-4.0124,-4.1053,-4.1882,-4.2434,-4.4561,-4.7155,-4.9933,-5.0096,-5.0549,-5.2555,-5.2659,-5.2804,-5.3442,-5.35,-5.3849,-5.4633,-5.5126,-5.5736,-5.6549,-5.7042,-5.7303,-5.7303,-5.7303,-5.7303,-5.7303,-5.7303,-5.7303,-5.7303,-5.7669,-5.8003,-5.8445,-5.8773,-5.8971,-5.923,-5.9379,-5.9827,-6.0595,-6.1283,-6.1852,-6.2361,-6.2869,-6.3079,-6.3079,-6.3079,-6.3169,-6.3348,-6.3827,-6.4425,-6.5024,0.0,0.0,0.0,0.0,0.0,0.0,0.0,0.0,0.0,0.0,0.0,0.0,0.0,0.0,0.0,0.0,0.0,0.0,0.0,-1.9913,-2.0389,-2.0389,-2.2142,-2.3475,-2.4322,-2.7038,-2.8426,-2.8522,-3.0013,-3.0254,-2.9292,-2.8979,-2.8736,-2.8522,-2.8522,-2.8264,-2.7916,-2.7405,-2.7017,-2.6623,-2.6107,0.0,0.0,0.0,0.0,0.0,0.0,0.0,0.0,0.0,0.0,0.0,0.0,0.0,-3.0661,-3.2201,-3.2326,-3.2287,-3.3558,-3.4324,-3.5127,-3.6759,-3.7211,-3.7638,-3.922,-3.9998,-4.0701,-4.1756,-4.2459,-4.3037,-4.3589,-4.5114,-4.6895,-4.8899,-4.9546,-5.0614,-5.3058,0.0,-5.2804,-5.3442,-5.35,-5.3994,-5.5242,-5.5387,-5.591,-5.7158,-5.7274,-5.7303,-5.7303,-5.7303,-5.7303,-5.7303,-5.7303,-5.7303,-5.7303,-5.7669,-5.7781,-5.7892,-5.8114,-5.8741,-5.9725,-6.0209,-6.1088,-6.2002,-6.266,-6.2959,-6.3019,-6.3049,-6.3079,-6.3079,-6.3079,-6.3438,-6.3947,-6.3977,-6.4425,-6.5024,0.0,0.0,0.0,0.0,0.0,0.0,0.0,0.0,0.0,0.0,0.0,0.0,0.0,0.0,0.0,0.0,0.0,0.0,0.0,-1.9213,-1.9573,-1.9222,-2.1188,-2.2789,-2.4048,-2.6611,-2.8498,-2.9484,-3.0086,-3.0182,-2.9773,-2.865,-2.8264,-2.8498,-2.8162,-2.7975,-2.7989,-2.7794,-2.7285,-2.6697,-2.65,-2.6205,0.0,0.0,0.0,0.0,0.0,0.0,0.0,0.0,-2.6723,-2.7655,-2.89,-2.9837,-3.0787,-3.192,-3.2561,-3.3096,-3.3956,-3.4986,-3.6132,-3.7814,-3.8492,-3.8994,-3.9973,-4.0902,-4.1555,-4.163,-4.2635,-4.3866,-4.5078,-4.6435,-4.7864,-4.9304,-5.0671,-5.1822,-5.2862,-5.3065,-5.3239,-5.3471,-5.3878,-5.4458,-5.5329,-5.5794,-5.6374,-5.7245,-5.7303,-5.7303,-5.7303,-5.7303,-5.7303,-5.7303,-5.7303,-5.7303,-5.7303,-5.7416,-5.7528,-5.7528,-5.7974,-5.8453,-5.908,-5.951,-6.0149,-6.0924,-6.1744,-6.2336,-6.251,-6.2899,-6.3079,-6.3109,-6.3498,-6.3558,-6.3528,-6.4336,-6.4545,-6.4395,0.0,0.0,0.0,0.0,0.0,0.0,0.0,0.0,0.0,0.0,0.0,0.0,0.0,0.0,0.0,0.0,0.0,0.0,-1.8008,-1.8809,-1.916,-1.8848,-2.0744,-2.2484,-2.4029,-2.6225,-2.8235,-3.0086,-3.0086,-2.9989,-2.9821,-2.857,-2.8162,-2.8498,-2.8138,-2.8047,-2.8179,-2.8009,-2.7502,-2.6724,-2.6554,-2.6164,0.0,0.0,0.0,0.0,0.0,0.0,0.0,0.0,-2.6407,-2.7162,-2.8373,-2.9448,-3.0563,-3.1466,-3.2533,-3.3603,-3.4438,-3.5469,-3.681,-3.8668,-3.9546,-4.0149,-4.0877,-4.1756,-4.2359,-4.2158,-4.3288,-4.4763,-4.6351,-4.7638,-4.8791,-5.0197,-5.1642,-5.263,-5.2833,-5.3239,-5.35,-5.35,-5.411,-5.4749,-5.5358,-5.6026,-5.6665,-5.7245,-5.7303,-5.7303,-5.7303,-5.7303,-5.7303,-5.7303,-5.7303,-5.7303,-5.7303,-5.7303,-5.7419,-5.7623,-5.8073,-5.8526,-5.9096,-5.9315,-5.9984,-6.0962,-6.1744,-6.2162,-6.245,-6.2899,-6.3079,-6.3109,-6.3528,-6.3558,-6.3468,-6.4156,-6.4246,-6.3977,0.0,0.0,0.0,0.0,0.0,0.0,0.0,0.0,-1.8008,-1.8008,-1.8008,0.0,0.0,0.0,0.0,0.0,0.0,0.0,-1.8008,-1.8809,-1.9297,-1.9297,-2.0907,-2.2632,-2.4456,-2.5837,-2.7649,-3.0086,-3.0086,-2.9821,-2.9292,-2.8763,-2.8498,-2.8522,-2.8498,-2.8498,-2.8474,-2.7945,-2.7416,-2.6887,-2.6334,-2.5781,-2.53,0.0,0.0,0.0,0.0,0.0,0.0,0.0,-2.6263,-2.6627,-2.8096,-2.9044,-2.9861,-3.0882,-3.2152,-3.3523,-3.486,-3.5769,-3.6935,-3.9145,-4.0124,-4.0827,-4.1932,-4.2585,-4.3137,-4.3689,-4.4719,-4.5826,-4.7143,-4.8252,-4.9555,-5.1372,-5.2186,-5.2804,-5.3442,-5.35,-5.35,-5.35,-5.411,-5.4749,-5.5358,-5.6026,-5.6665,-5.7274,-5.7303,-5.7303,-5.7303,-5.7303,-5.7303,-5.7303,-5.7303,-5.7303,-5.7303,-5.7303,-5.7623,-5.829,-5.829,-5.8754,-5.9682,-6.0056,-6.1023,-6.2615,-6.2963,-6.3079,-6.3079,-6.3079,-6.3079,-6.3079,-6.3079,-6.3468,-6.3917,-6.3318,-6.3468,-6.3917,0.0,0.0,0.0,0.0,0.0,0.0,0.0,0.0,-1.8008,-1.8008,-1.8008,0.0,0.0,0.0,0.0,0.0,0.0,0.0,-1.8008,-1.8809,-1.9297,-1.9297,-2.0325,-2.168,-2.3118,-2.4785,-2.7162,-3.0086,-2.9117,-2.8857,-2.9268,-2.7716,-2.7584,-2.8498,-2.7458,-2.7584,-2.8474,-2.7945,-2.7416,-2.6887,-2.6334,-2.5781,-2.53,0.0,0.0,0.0,0.0,0.0,0.0,0.0,0.0,0.0,-2.8234,-2.9124,-3.0073,-3.0748,-3.2422,-3.4113,-3.4524,-3.6504,-3.8639,-3.9686,-4.0871,-4.1957,-4.3062,-4.3438,-4.384,-4.4794,-4.5246,-4.5927,-4.7548,-4.8519,-4.9555,-5.1372,-5.2186,-5.2804,-5.3442,-5.35,-5.35,-5.35,-5.4487,-5.5213,-5.5387,-5.6403,-5.71,-5.7303,-5.7303,-5.7303,-5.7303,-5.7303,-5.7303,-5.7303,-5.7303,-5.7303,-5.7303,-5.7303,-5.739,-5.7594,-5.8087,-5.8754,-5.9712,-6.0063,-6.0823,-6.1931,-6.2261,-6.2701,-6.3079,-6.3079,-6.3079,-6.3109,-6.3558,-6.3558,-6.3378,-6.3617,-6.3558,-6.3318,0.0,0.0,0.0,0.0,0.0,0.0,-1.8008,-1.8008,-1.8008,-1.8008,-1.8008,-1.8008,0.0,0.0,0.0,-1.8008,-1.8008,-1.8008,-1.8008,-1.8652,-1.9102,-1.9277,-1.9941,-2.1051,-2.2538,-2.3807,-2.5687,-2.8115,-2.7501,-2.7455,-2.7869,-2.7082,-2.7128,-2.7995,-2.7449,-2.7711,-2.8474,-2.7945,-2.7536,-2.72,-2.6647,-2.6238,-2.5949,0.0,0.0,0.0,0.0,0.0,0.0,0.0,0.0,0.0,-2.8354,-2.9244,-3.0206,-3.0906,-3.2901,-3.4988,-3.5304,-3.7568,-3.994,-4.0489,-4.1397,-4.2509,-4.3815,-4.4292,-4.4719,-4.5623,-4.5824,-4.6467,-4.8479,-4.9066,-5.005,-5.2079,-5.2732,-5.3065,-5.3471,-5.35,-5.35,-5.35,-5.4633,-5.5416,-5.5416,-5.6549,-5.7303,-5.7303,-5.7303,-5.7303,-5.7303,-5.7303,-5.7303,-5.7303,-5.7303,-5.7303,-5.7303,-5.7303,-5.7565,-5.8116,-5.8232,-5.887,-5.9859,-6.0267,-6.0647,-6.1134,-6.1519,-6.1928,-6.2331,-6.257,-6.269,-6.275,-6.3378,-6.3408,-6.3109,-6.3498,-6.3408,-6.3079,0.0,0.0,0.0,0.0,0.0,0.0,-1.8008,-1.8008,-1.8008,-1.8008,-1.8008,-1.8008,0.0,0.0,0.0,-1.8008,-1.8008,-1.8008,-1.8008,-1.8398,-1.8828,-1.9277,-1.9727,-2.0715,-2.2397,-2.2811,-2.357,-2.4827,-2.5469,-2.5732,-2.5753,-2.6603,-2.7035,-2.7197,-2.7995,-2.8419,-2.8474,-2.7945,-2.7729,-2.7681,-2.7152,-2.6935,-2.6935,-2.6935,0.0,0.0,0.0,0.0,0.0,0.0,0.0,0.0,-2.8282,-2.9172,-3.0194,-3.1004,-3.3318,-3.5741,-3.6502,-3.8616,-4.0595,-4.1096,-4.1856,-4.276,-4.4292,-4.5121,-4.5698,-4.62,-4.6301,-4.6993,-4.9475,-4.9901,-5.0712,-5.3078,-5.35,-5.35,-5.35,-5.35,-5.353,-5.3588,-5.4662,-5.5416,-5.5503,-5.6607,-5.7303,-5.7303,-5.7303,-5.7303,-5.7303,-5.7303,-5.7303,-5.7303,-5.7303,-5.7303,-5.7303,-5.7361,-5.7971,-5.9103,-5.8668,-5.8987,-5.9945,-6.0443,-6.0413,-6.017,-6.0767,-6.1104,-6.1164,-6.1822,-6.2091,-6.2151,-6.281,-6.3079,-6.3079,-6.3079,-6.3079,-6.3079,0.0,0.0,0.0,0.0,0.0,0.0,-1.8008,-1.8008,-1.8008,-1.8008,-1.8008,-1.8008,-1.8008,-1.8008,0.0,-1.8008,-1.8008,-1.8008,-1.8008,-1.8398,-1.8828,-1.9277,-2.0019,-2.0663,-2.1015,-2.1095,-2.1451,-2.205,-2.3205,-2.4335,-2.5355,-2.5518,-2.6004,-2.6691,-2.7244,-2.7834,-2.8474,-2.7945,-2.7729,-2.7681,-2.7152,-2.6935,-2.6935,-2.6935,-2.6935,0.0,0.0,0.0,0.0,0.0,0.0,0.0,-2.7849,-2.8619,-2.9581,-3.0194,-3.2487,-3.4915,-3.5477,-3.8209,-4.0856,-4.0981,-4.2513,-4.4192,-4.4543,-4.5397,-4.6175,-4.6276,-4.6301,-4.6993,-4.9475,-4.9901,-5.0712,-5.3078,-5.35,-5.35,-5.35,-5.35,-5.3704,-5.4226,-5.4952,-5.562,-5.6142,-5.6868,-5.7303,-5.7303,-5.7303,-5.7303,-5.7303,-5.7303,-5.7303,-5.7303,-5.7303,-5.7303,-5.7303,-5.7826,-5.7971,-5.7739,-5.9132,-5.9132,-5.7971,-5.9132,-5.9887,-6.02,-6.0511,-6.088,-6.1164,-6.1822,-6.2091,-6.2151,-6.281,-6.3079,-6.3079,-6.3079,-6.3079,-6.3079,0.0,0.0,0.0,0.0,0.0,0.0,0.0,0.0,-1.8242,-1.8047,-1.8008,-1.8008,-1.8008,-1.8008,0.0,0.0,-1.8008,-1.8008,-1.8008,-1.8223,-1.8535,-1.8965,-1.9609,-2.0039,-2.0254,-2.0254,-2.0566,-2.123,-2.171,-2.2512,-2.3658,-2.4471,-2.501,-2.5532,-2.6827,-2.7719,-2.8114,-2.7849,-2.7873,-2.8065,-2.7536,-2.7464,-2.7681,-2.7681,-2.7681,-2.7681,-2.7681,0.0,0.0,0.0,0.0,0.0,0.0,0.0,-2.9124,-3.0326,-3.2342,-3.4356,-3.5526,-3.8107,-4.0699,-4.1688,-4.3275,-4.4618,-4.4618,-4.5497,-4.6301,-4.6301,-4.6301,-4.6993,-4.9475,-4.9901,-5.0712,-5.3078,-5.35,-5.35,-5.35,-5.35,-5.3762,-5.4429,-5.5039,-5.5678,-5.6345,-5.6955,-5.7303,-5.7303,-5.7303,-5.7303,-5.7303,-5.7303,-5.7303,-5.7303,-5.7303,-5.7303,-5.7303,-5.7971,-5.829,-5.8261,-5.8958,-5.8581,-5.7332,-5.8143,-5.898,-5.9699,-5.9711,-6.0104,-6.0685,-6.1343,-6.1822,-6.2151,-6.281,-6.3079,-6.3079,-6.3079,-6.3079,-6.3079,0.0,0.0,0.0,0.0,0.0,0.0,0.0,0.0,0.0,-1.8047,-1.8008,-1.8008,-1.8008,-1.8008,-1.8008,0.0,0.0,0.0,-1.8008,-1.8086,-1.8281,-1.8613,-1.9062,-1.9453,-1.9805,-1.9883,-2.0273,-2.1016,-2.0781,-2.1055,-2.186,-2.3499,-2.4211,-2.4233,-2.6644,-2.7627,-2.7496,-2.7747,-2.8114,-2.8474,-2.8041,-2.8114,-2.8522,-2.8522,-2.8522,-2.8498,-2.8402,-2.8089,-2.7681,-2.7512,0.0,0.0,0.0,0.0,-2.8691,-3.0531,-3.2171,-3.382,-3.5721,-3.8107,-4.06,-4.2363,-4.3701,-4.4502,-4.4502,-4.5379,-4.618,-4.6301,-4.6301,-4.6993,-4.9247,-4.9562,-5.035,-5.2837,-5.3184,-5.329,-5.35,-5.35,-5.3791,-5.4575,-5.5097,-5.5707,-5.649,-5.7013,-5.7303,-5.7303,-5.7303,-5.7303,-5.7303,-5.7303,-5.7303,-5.7303,-5.7303,-5.7361,-5.7477,-5.8029,-5.8639,-5.9306,-5.8726,-5.8116,-5.7477,-5.7732,-5.8302,-5.9021,-5.8682,-5.916,-6.0146,-6.0835,-6.1493,-6.2151,-6.281,-6.3079,-6.3079,-6.3079,-6.3079,-6.3079,0.0,0.0,0.0,0.0,0.0,0.0,0.0,0.0,0.0,0.0,-1.8008,-1.8008,-1.8008,-1.8008,-1.8008,-1.8008,-1.8008,-1.8008,-1.8008,0.0,0.0,-1.8562,-1.9062,-1.9316,-1.9375,-1.9727,-1.998,-2.0098,-2.0801,-2.1211,-2.1328,-2.2991,-2.3457,-2.2998,-2.6248,-2.7316,-2.6767,-2.787,-2.845,-2.8498,-2.8426,-2.845,-2.8522,-2.8522,-2.8522,-2.845,-2.7993,-2.7777,-2.7584,-2.6622,-2.6598,0.0,0.0,0.0,-2.8138,-2.9808,-3.1258,-3.2772,-3.4893,-3.7902,-4.0769,-4.1928,-4.3037,-4.3943,-4.4178,-4.5022,-4.5939,-4.618,-4.6301,-4.6755,-4.8094,-4.8326,-4.9106,-5.1565,-5.192,-5.2272,-5.3395,-5.35,-5.3965,-5.5155,-5.5358,-5.5881,-5.7071,-5.7245,-5.7303,-5.7303,-5.7303,-5.7303,-5.7303,-5.7303,-5.7303,-5.7303,-5.7303,-5.7594,-5.8174,-5.8261,-5.8639,-5.9306,-5.9219,-5.8813,-5.8174,-5.8174,-5.8253,-5.8342,-5.8254,-5.891,-6.0146,-6.0835,-6.1493,-6.2151,-6.281,-6.3079,-6.3079,-6.3079,-6.3079,-6.3139,0.0,0.0,0.0,0.0,0.0,0.0,0.0,0.0,0.0,0.0,0.0,-1.8008,-1.8008,-1.8008,-1.8008,-1.8008,-1.8008,-1.8008,-1.8008,-1.8184,-1.8281,-1.8281,-1.8477,-1.8691,-1.8906,-1.9336,-1.9687,-1.9922,-2.0801,-2.123,-2.123,-2.2708,-2.315,-2.2974,-2.5214,-2.6006,-2.5708,-2.7198,-2.751,-2.708,-2.8099,-2.8536,-2.8657,-2.8554,-2.9051,-2.9725,-2.8907,-2.8426,-2.8089,-2.7609,-2.7224,-2.6983,-2.7272,0.0,0.0,0.0,-3.0917,-3.2592,-3.577,-3.8185,-4.0074,-4.1373,-4.2479,-4.3339,-4.3777,-4.468,-4.5445,-4.5889,-4.618,-4.6636,-4.786,-4.8094,-4.8647,-5.0462,-5.0685,-5.1127,-5.238,-5.2487,-5.3188,-5.5134,-5.5416,-5.591,-5.7187,-5.7303,-5.7303,-5.7303,-5.7303,-5.7303,-5.7303,-5.7303,-5.7303,-5.7303,-5.7681,-5.8,-5.829,-5.9016,-5.951,-5.98,-5.9451,-5.8958,-5.8319,-5.8697,-5.8633,-5.8225,-5.8385,-5.9362,-6.0715,-6.1148,-6.1918,-6.266,-6.2959,-6.3079,-6.3079,-6.3079,-6.3079,-6.3169,0.0,0.0,0.0,0.0,0.0,0.0,0.0,0.0,0.0,0.0,0.0,-1.7784,-1.8008,0.0,0.0,0.0,-1.8008,-1.8008,-1.8008,-1.8008,-1.8008,-1.8008,-1.8008,-1.8164,-1.8477,-1.8906,-1.9336,-1.9746,-2.0644,-2.1133,-2.125,-2.2432,-2.292,-2.3023,-2.4399,-2.4876,-2.4816,-2.6199,-2.6423,-2.5924,-2.7871,-2.8704,-2.8803,-2.9178,-3.0037,-3.0975,-3.0182,-2.9653,-2.9268,-2.9003,-2.8306,-2.7584,-2.7849,-2.7825,0.0,0.0,0.0,-3.2846,-3.6109,-3.7903,-3.9296,-4.0587,-4.1663,-4.2616,-4.3272,-4.4146,-4.4977,0.0,-4.596,-4.6541,-4.7534,-4.7652,-4.7977,-4.9221,-4.9448,-4.9901,-5.1017,-5.1237,-5.2152,-5.4668,-5.4701,-5.5189,-5.7075,-5.7049,-5.6936,-5.7303,-5.7303,-5.7303,-5.7303,-5.7303,-5.739,-5.7565,-5.8058,-5.8464,-5.8784,-5.9887,-6.0206,-5.9713,-5.9771,-5.9364,-5.8581,-5.9248,-5.9131,-5.8614,-5.8889,-5.9816,-6.1291,-6.1511,-6.2221,-6.3079,-6.3079,-6.3079,-6.3079,-6.3079,-6.3169,-6.3408,0.0,0.0,0.0,0.0,0.0,0.0,0.0,0.0,0.0,0.0,0.0,-1.7217,-1.794,-1.8008,-1.8008,-1.8008,-1.8008,-1.8008,-1.8008,-1.8008,-1.8008,-1.8008,-1.8008,0.0,-1.8047,-1.8457,-1.8887,-1.9316,-2.0176,-2.082,-2.125,-2.209,-2.2565,-2.265,-2.428,-2.463,-2.3909,-2.529,-2.5819,-2.599,-2.7963,-2.8717,-2.8919,-3.0858,-3.1553,-3.1625,-3.1553,-3.1529,-3.136,-3.035,-2.9629,-2.91,-2.8619,-2.8114,-2.7945,0.0,0.0,0.0,-3.4631,-3.6459,-3.8286,-3.9369,-4.0451,-4.148,-4.236,-4.3615,-4.4615,-4.4903,-4.571,-4.6301,-4.6421,-4.6421,-4.6755,-4.7977,-4.821,-4.8673,-4.9788,-5.0014,-5.0929,-5.3416,-5.2619,-5.3319,-5.6933,-5.6222,-5.5992,-5.7191,-5.7303,-5.7303,-5.7303,-5.7303,-5.7594,-5.8232,-5.829,-5.8871,-6.009,-6.0787,-6.0206,-5.8435,-6.0235,-6.0438,-5.9277,-5.9887,-6.0005,-5.9595,-5.9624,-6.035,-6.1545,-6.1575,-6.2221,-6.3079,-6.3079,-6.3079,-6.3079,-6.3079,-6.3438,-6.4036,0.0,0.0,0.0,0.0,0.0,0.0,0.0,0.0,0.0,0.0,0.0,0.0,0.0,-1.8008,-1.8008,-1.8008,-1.8008,-1.8008,-1.8008,-1.8008,-1.8008,-1.8008,-1.8008,-1.8008,-1.8008,-1.8691,-1.9141,-1.9297,-2.043,-2.1074,-2.125,-2.1836,-2.2109,-2.2129,-2.3253,-2.3665,-2.3408,-2.4511,-2.4826,-2.481,-2.7607,-2.8987,-2.9487,-3.1092,-3.2035,-3.2627,-3.2671,-3.1739,-3.0574,-3.1395,-3.0589,-2.9176,-2.9022,-2.9124,-2.9436,-3.0518,-3.1745,-3.3068,-3.4463,-3.5881,-3.7228,-3.8286,-3.9633,-4.0812,-4.1571,-4.2725,-4.3815,-4.4301,-4.5058,-4.5696,-4.5939,-4.618,-4.6421,-4.6874,-4.6993,-4.7324,-4.8558,-4.8762,-4.9676,-5.2136,-5.2041,-5.2506,-5.4686,-5.4442,-5.4679,-5.5992,-5.6107,-5.6107,-5.6107,-5.6822,-5.7253,-5.7075,-5.8233,-5.9364,-6.0177,-6.0438,-6.0003,-5.8958,-6.0032,-5.9887,-5.8726,-6.0177,-6.0383,-5.9452,-6.0266,-6.0853,-6.1288,-6.1439,-6.2027,-6.2731,-6.2731,-6.2963,-6.3079,-6.3079,-6.3468,-6.4096,0.0,0.0,0.0,0.0,0.0,0.0,0.0,0.0,-1.6759,-1.7628,0.0,0.0,0.0,0.0,-1.8008,-1.8008,-1.7784,-1.7716,-1.8008,-1.8008,-1.8008,-1.8008,-1.8008,-1.8086,-1.8223,-1.8633,-1.9062,-1.9492,-2.0234,-2.0723,-2.1016,-2.1465,-2.166,-2.1699,-2.2402,-2.2793,-2.293,-2.3599,-2.3854,-2.4098,-2.7327,-2.8832,-2.9449,-3.1275,-3.2387,-3.3085,-3.3375,-3.2655,-3.1617,-3.303,-3.2462,-3.1038,-3.0477,-3.023,-3.0254,-3.1144,-3.1793,-3.2539,-3.3933,-3.5088,-3.617,-3.7397,-3.8647,-3.9826,-4.0715,-4.1813,-4.2822,-4.3357,-4.4304,-4.506,-4.5278,-4.5544,-4.586,-4.6276,-4.618,-4.6396,-4.7416,-4.7534,-4.842,-5.0853,-5.075,-5.1203,-5.3254,-5.312,-5.3362,-5.4679,-5.4797,0.0,-5.4797,-5.5528,-5.6273,-5.662,-5.8864,-6.0032,-6.0206,-6.0206,-5.9887,-5.9306,-5.9713,-5.9451,-5.8697,-6.0177,-6.0409,-5.9655,-6.0729,-6.1171,-6.1263,-6.1791,-6.2175,-6.2498,-6.2617,-6.2822,-6.2993,-6.3202,-6.368,-6.4455,0.0,0.0,0.0,0.0,0.0,0.0,-1.7692,-1.6623,-1.6548,-1.8912,0.0,0.0,0.0,0.0,0.0,-1.7959,-1.7392,-1.7254,-1.7959,-1.8047,-1.8047,-1.8047,-1.8047,-1.8242,-1.8582,-1.8262,-1.8672,-1.9922,-1.9512,-1.9746,-2.0586,-2.1016,-2.1211,-2.123,-2.166,-2.209,-2.25,-2.2519,-2.3027,-2.4047,-2.7003,-2.8408,-2.8927,-3.1524,-3.2746,-3.309,-3.3902,-3.4349,-3.4774,-3.5432,-3.5304,-3.451,-3.3044,-3.1432,-3.023,-3.0759,-3.1264,-3.1913,0.0,0.0,0.0,-3.6771,-3.7589,-3.8383,-3.9994,0.0,-4.1776,-4.2311,-4.3497,-4.4495,-4.447,-4.4495,-4.4812,-4.6105,-4.6059,-4.5914,-4.6301,-4.6301,-4.7186,-4.9594,-4.8625,-4.9307,-5.3012,-5.2262,-5.1989,-5.3362,-5.3483,-5.3483,-5.3483,-5.3537,-5.4688,-5.721,-5.975,-6.0874,-6.0206,-6.0206,-5.9887,-5.9277,-5.9306,-5.9306,-5.9306,-5.9916,-6.0206,-6.0235,-6.0903,-6.1284,-6.1642,-6.2315,-6.2318,-6.2175,-6.2824,-6.2824,-6.2704,-6.3357,-6.4219,-6.5114,0.0,0.0,0.0,0.0,0.0,-1.4925,-1.5374,-1.5589,-1.588,0.0,0.0,0.0,-1.7178,-1.7661,-1.7912,-1.7632,-1.8233,-1.8576,-1.8407,-1.8769,-1.8926,-1.8926,-1.8926,-1.8984,-1.9102,-1.9297,-1.957,-1.9922,-2.0117,-2.0332,-2.0566,-2.0684,-2.0742,-2.0762,-2.0879,-2.1348,-2.209,-2.2715,-2.3477,-2.4467,-2.7365,-2.9309,-3.0721,-3.3492,-3.4895,-3.5517,-3.6955,-3.6472,-3.5333,-3.6412,-3.5876,-3.4661,-3.3815,-3.2515,-3.1336,-3.1889,-3.1865,-3.1913,-3.2996,0.0,0.0,0.0,0.0,0.0,-3.9056,0.0,0.0,-4.148,-4.249,-4.3456,-4.4037,-4.3989,-4.4305,-4.5718,-4.5494,-4.549,-4.625,-4.6301,-4.6824,-4.8252,-4.8156,-4.8585,-5.046,-5.0308,-5.0664,0.0,-5.1989,-5.1989,-5.1989,-5.2932,-5.4548,-5.721,-5.8843,-5.9851,-6.0206,-6.0206,-5.9655,-5.8581,-5.9074,-5.9045,-5.861,-5.9713,-6.0206,-6.0235,-6.0903,-6.1193,-6.1313,-6.1488,-6.1698,-6.1761,-6.1937,-6.2145,-6.2322,-6.3002,-6.3891,-6.4844,0.0,0.0,-1.4706,-1.4838,-1.4984,-1.5175,-1.5348,-1.5919,-1.6333,0.0,0.0,0.0,-1.675,-1.7325,-1.7707,-1.7679,-1.8394,-1.8889,-1.8926,-1.9141,-1.9297,-1.9297,-1.9297,-1.9375,-1.9551,-1.9609,-1.9824,-2.0195,-2.0254,-2.0391,-2.0566,-2.0566,-2.0664,-2.084,-2.084,-2.1328,-2.2207,-2.3066,-2.3809,-2.4624,-2.7598,-2.9501,-3.1019,-3.3989,-3.5381,-3.6024,-3.7582,-3.7015,-3.5843,-3.7628,-3.7096,-3.5639,-3.4915,-3.3765,-3.2683,-3.2803,-3.2587,-3.2539,-3.338,-3.3813,-3.4366,-3.5737,0.0,0.0,-3.8599,-3.9705,0.0,0.0,-4.2014,-4.271,-4.3336,-4.3144,-4.3361,-4.496,-4.4759,-4.4923,-4.608,-4.6125,0.0,-4.7456,-4.7581,-4.8033,-4.9138,-4.9264,-4.9697,-5.0664,-5.0664,-5.0766,-5.0998,-5.2516,-5.4118,-5.585,-5.7938,-5.9323,-5.9715,-5.9825,-5.9451,-5.8726,-5.8842,-5.8668,-5.8348,-5.9626,-6.0206,-6.0235,-6.0903,-6.1193,-6.1193,-6.1193,-6.1284,-6.1404,-6.1666,-6.2023,-6.235,-6.3025,-6.3914,-6.5018,0.0,0.0,-1.5034,-1.5467,-1.5745,-1.6074,-1.6609,-1.6912,-1.7259,0.0,-1.7523,-1.7187,-1.685,-1.7276,-1.7778,-1.8097,-1.8452,-1.8844,-1.9355,-1.9453,-1.9473,-1.9434,-1.9434,-1.9609,-1.998,-1.9629,-1.9805,-2.0566,-2.0176,-2.0195,-2.0566,-2.0566,-2.0801,-2.123,-2.123,-2.1738,-2.2637,-2.3437,-2.4212,-2.5079,-2.7942,-2.9569,-3.0747,-3.3952,-3.5323,-3.5823,-3.7219,-3.7201,-3.6853,-3.9013,-3.8647,-3.7204,-3.6194,-3.5184,-3.427,-3.3645,-3.3452,-3.3549,-3.3933,-3.403,-3.4294,-3.5352,-3.5978,0.0,-3.8286,-3.9056,-3.985,0.0,0.0,-4.1966,-4.2495,-4.2254,-4.2538,-4.4179,0.0,0.0,0.0,0.0,0.0,0.0,0.0,0.0,-4.8586,-4.8686,-4.8912,-4.9464,-4.9565,-4.9841,-5.0393,-5.2077,-5.353,-5.4341,-5.725,-5.8996,-5.9369,-5.9353,-5.9393,-5.9393,-5.8726,-5.8464,-5.8552,-5.9684,-6.0235,-6.0351,-6.0932,-6.1193,-6.1193,-6.1193,-6.1193,-6.1251,-6.1774,-6.2157,-6.2696,-6.3339,-6.4077,-6.5211,-1.4906,-1.5004,-1.5343,-1.6082,-1.6038,-1.6066,-1.6401,-1.6491,-1.6593,-1.6707,-1.6632,-1.6829,-1.7504,-1.8313,-1.8841,-1.9049,-2.032,-2.076,-1.9863,-2.0469,-2.0703,-2.0332,-2.0312,-2.0352,-2.043,-2.0352,-2.0391,-2.0566,-2.0488,-2.0488,-2.0566,-2.0566,-2.0801,-2.123,-2.123,-2.1914,-2.3066,-2.3574,-2.5165,-2.7517,-2.9178,-3.076,-3.2372,-3.584,-3.7804,-3.8871,-4.0063,-4.0307,-4.0216,-4.0266,-3.9465,-3.8383,-3.7733,-3.7084,-3.6314,-3.4919,-3.4535,-3.4463,-3.4126,-3.403,-3.4294,-3.5352,-3.5689,0.0,-3.7252,-3.7926,-3.8503,0.0,0.0,0.0,-4.1389,-4.1749,0.0,0.0,0.0,0.0,0.0,0.0,0.0,0.0,0.0,0.0,-4.8008,-4.8083,-4.8309,-4.8887,-4.9339,-4.9841,-5.0393,-5.121,-5.2904,-5.5761,-5.684,-5.8467,-6.0802,-6.0291,-6.0032,-6.0032,-5.9393,-5.9364,-5.9829,-6.009,-6.0496,-6.1019,-6.1135,-6.1193,-6.1193,-6.1193,-6.1193,-6.1222,-6.1338,-6.1658,-6.2302,-6.2971,-6.3735,-6.4898,-1.5036,-1.5106,-1.5375,-1.6257,-1.6243,-1.6199,-1.6345,-1.6506,-1.655,-1.6389,-1.6936,-1.7736,-1.8775,-1.9141,-1.9591,-2.0228,-2.081,-2.1091,-2.0937,-2.1113,-2.1133,-2.0918,-2.0684,-2.0566,-2.0566,-2.0566,-2.0566,-2.0566,-2.0566,-2.0684,-2.0898,-2.0898,-2.1484,-2.25,-2.2285,-2.291,-2.416,-2.4805,-2.6091,-2.7742,-2.9737,-3.1885,-3.4012,-3.7146,-3.8793,-3.9777,-4.11,-4.1581,-4.1321,-3.9935,-3.9457,-3.9354,-3.7864,-3.7655,-3.7628,-3.5647,-3.5307,-3.5497,-3.4968,-3.4631,-3.4559,-3.5088,-3.5425,0.0,0.0,-3.7421,-3.8214,0.0,0.0,-4.0234,-4.1028,0.0,-4.1649,0.0,0.0,0.0,0.0,0.0,0.0,0.0,0.0,0.0,-4.7832,-4.7908,-4.8385,-4.9515,-4.9841,-5.0368,-5.1222,-5.1523,-5.2572,-5.4524,-5.6099,-5.7679,-5.9121,-5.987,-6.0206,-6.0206,-5.9887,-5.9916,-6.0206,-6.0555,-6.0874,-6.1193,-6.1193,-6.1193,-6.1193,-6.1193,-6.1367,-6.1658,-6.1658,-6.2035,-6.2674,-6.3312,-6.4076,-6.493,-1.506,-1.5092,-1.5376,-1.6271,-1.6462,-1.6477,-1.655,-1.6769,-1.6872,-1.6667,-1.7735,-1.892,-2.0001,-2.0159,-2.0624,-2.1544,-2.1305,-2.1427,-2.1981,-2.1714,-2.1481,-2.1484,-2.0977,-2.0742,-2.082,-2.0644,-2.0566,-2.0566,-2.0664,-2.0879,-2.123,-2.1328,-2.2148,-2.3535,-2.3359,-2.3945,-2.5137,-2.6191,-2.7278,-2.8327,-3.0317,-3.2546,-3.4865,-3.7637,-3.9157,-3.9896,-4.1513,-4.2062,-4.1729,-3.9873,-3.9938,-4.041,-3.8311,-3.8524,-3.8933,-3.654,-3.6355,-3.6699,-3.5978,-3.5376,-3.4992,-3.5112,-3.5376,-3.5761,0.0,0.0,0.0,0.0,0.0,0.0,0.0,0.0,0.0,0.0,0.0,0.0,0.0,0.0,0.0,0.0,0.0,0.0,-4.7407,-4.7883,-4.8636,-4.9992,-5.0393,-5.0996,-5.19,-5.2051,-5.2488,-5.3291,-5.5499,-5.6909,-5.7423,-5.9107,-6.0143,-6.038,-6.038,-6.038,-6.0409,-6.0961,-6.1193,-6.1193,-6.1193,-6.1193,-6.1193,-6.1193,-6.1542,-6.2093,-6.2093,-6.2587,-6.3341,-6.3835,-6.4444,-6.5083,-1.4802,-1.5088,-1.543,-1.6335,-1.6708,-1.6887,-1.7179,-1.7252,-1.7369,-1.7618,-1.8682,-1.975,-2.0802,-2.1778,-2.2727,-2.3317,-2.3673,-2.3483,-2.2629,-2.2601,-2.2515,-2.2383,-2.1582,-2.1348,-2.1719,-2.0977,-2.0566,-2.0566,-2.0957,-2.1191,-2.125,-2.1641,-2.2109,-2.2695,-2.3398,-2.4219,-2.5176,-2.6816,-2.9536,-3.2466,-3.1548,-3.21,0.0,-3.7199,-3.9011,-4.0075,-4.2067,-4.2375,-4.2014,0.0,-4.2064,-4.1701,-4.0985,-4.1129,-4.1124,-3.8515,-3.8083,-3.8214,-3.6723,-3.593,-3.5641,-3.6098,-3.593,-3.5761,-3.629,0.0,-3.6747,-3.7348,0.0,0.0,0.0,0.0,0.0,0.0,0.0,0.0,0.0,0.0,0.0,0.0,0.0,0.0,0.0,-4.7683,-4.8761,-4.8937,-5.0343,-5.1247,-5.1373,-5.185,-5.2869,-5.4727,-5.4994,-5.6417,-5.8843,-5.9036,-5.99,-6.1077,-6.1077,-6.1077,-6.1077,-6.1164,-6.1193,-6.1193,-6.1193,-6.1193,-6.1193,-6.1193,-6.1542,-6.2093,-6.2093,-6.2848,-6.3951,-6.4009,-6.4444,-6.5083,-1.4569,-1.4819,-1.5269,-1.6059,-1.6469,-1.6791,-1.7282,-1.7486,-1.7912,-1.8819,-1.9361,-2.0119,-2.1387,-2.1645,-2.2311,-2.3505,-2.3565,-2.35,0.0,-2.3429,-2.3055,-2.291,-2.207,-2.1699,-2.1875,-2.1523,-2.1328,-2.1328,-2.1523,-2.1738,-2.1973,-2.2168,-2.2871,-2.4023,-2.4648,-2.5547,-2.668,-2.8144,-3.0018,-3.1922,-3.2664,-3.3699,0.0,-3.6853,-3.9268,-4.1708,-4.2544,-4.2808,-4.2856,0.0,-4.2808,0.0,-4.1023,-4.1567,-4.2328,-3.9471,-3.9196,-3.9465,-3.8166,-3.7397,-3.6964,-3.6892,-3.6699,-3.6579,-3.6819,-3.6627,-3.6459,-3.6699,0.0,0.0,0.0,0.0,0.0,0.0,-4.0918,0.0,0.0,0.0,0.0,0.0,0.0,0.0,0.0,0.0,0.0,0.0,-5.0996,-5.1749,-5.1749,-5.2277,-5.2952,-5.37,-5.4619,-5.5894,-5.7806,-5.8718,-5.9768,-6.1193,-6.1193,-6.1193,-6.1193,-6.1193,-6.1193,-6.1193,-6.1193,-6.1193,-6.1222,-6.1571,-6.2093,-6.2703,-6.308,-6.3545,-6.4096,-6.4444,-6.4764,-6.5025,-1.4334,-1.4665,-1.514,-1.58,-1.6202,-1.6728,-1.7211,-1.7639,-1.8349,-1.9367,-1.9865,-2.0468,-2.1412,-2.1578,-2.208,-2.3236,-2.3335,-2.3645,0.0,0.0,-2.3986,-2.3952,-2.2988,-2.2519,-2.2754,-2.2305,-2.2051,-2.2051,-2.2168,-2.2324,-2.2519,-2.2754,-2.3535,-2.4746,-2.543,-2.6387,-2.7578,-2.8984,-3.0305,-3.152,-3.297,-3.4533,-3.5998,-3.7663,-4.0106,-4.2808,-4.3096,-4.3337,-4.3481,-4.3265,-4.3337,0.0,-4.1489,-4.2134,-4.2975,-4.0692,-4.0384,-4.0643,-3.9705,-3.896,-3.8359,-3.8142,-3.7853,-3.7637,-3.7637,-3.7228,-3.6892,-3.7036,-3.6819,0.0,0.0,0.0,-3.8503,-3.9369,0.0,-4.1177,0.0,0.0,0.0,0.0,0.0,0.0,0.0,0.0,0.0,0.0,0.0,-5.174,-5.1875,-5.2402,-5.2779,-5.2929,-5.3835,-5.5127,-5.639,-5.7834,-5.9245,-6.0681,-6.1218,-6.1367,-6.1193,-6.1367,-6.1367,-6.1193,-6.1193,-6.128,-6.1483,-6.1919,-6.2587,-6.3399,-6.3864,-6.4154,-6.4357,-6.4822,-6.4996,-6.4996,-1.4148,-1.4651,-1.5301,-1.5609,-1.6111,-1.6707,-1.7337,-1.7891,-1.8408,-1.873,-2.0028,-2.0845,-2.0544,-2.2182,-2.2975,-2.2528,0.0,-2.435,-2.393,0.0,-2.5553,-2.5752,-2.4442,-2.4121,0.0,-2.334,-2.248,-2.248,-2.291,-2.291,-2.2539,-2.3359,-2.3769,-2.3887,-2.5156,-2.6211,-2.7148,-2.8848,-3.085,-3.2747,-3.2396,-3.3516,-3.5892,0.0,-4.1981,-4.2904,-4.3914,0.0,0.0,-4.413,-4.3938,0.0,0.0,-4.3481,-4.3313,-4.2254,-4.1942,-4.1798,-4.1244,-4.0355,-3.9681,-4.0162,-3.9513,-3.8767,-3.8767,-3.8334,-3.8094,-3.8623,-3.7902,-3.7493,-3.8599,-3.8791,-3.8455,-3.7469,-3.8623,0.0,0.0,0.0,0.0,0.0,0.0,0.0,0.0,0.0,0.0,0.0,0.0,0.0,-5.1297,-5.1825,-5.2377,-5.2904,-5.2929,-5.3563,-5.4994,-5.6417,-5.7806,-5.9245,-6.1135,-6.1774,-6.1222,-6.1803,-6.1745,-6.1193,-6.1193,-6.1513,-6.2064,-6.2093,-6.2848,-6.4009,-6.4038,-6.4415,-6.4967,-6.4967,-6.4996,-6.4996,-1.4389,-1.4865,-1.5287,-1.5459,-1.5749,-1.642,-1.754,-1.7925,-1.8309,0.0,0.0,0.0,0.0,-2.1189,-2.2456,0.0,0.0,-2.537,-2.6336,-2.6598,0.0,0.0,0.0,-2.5078,0.0,-2.4219,-2.3633,-2.3359,-2.3516,-2.3359,-2.293,-2.3223,-2.3652,-2.4258,-2.5586,-2.6797,-2.7969,-2.9707,-3.1328,-3.2954,-3.4487,-3.6123,-3.7816,0.0,-4.1468,-4.2093,-4.3712,-4.4227,0.0,-4.4275,-4.4467,-4.4467,-4.3746,-4.4251,-4.49,-4.3866,-4.3794,-4.3866,-4.3,-4.2471,-4.2062,-4.1557,-4.1172,-4.0908,-4.0908,-4.021,-3.9537,-3.9369,-3.8767,-3.8383,-3.8743,-3.8815,-3.8815,-3.8791,-3.9248,-3.9537,0.0,0.0,0.0,0.0,0.0,0.0,0.0,0.0,0.0,0.0,0.0,0.0,0.0,-5.18,-5.2352,-5.2904,-5.2929,-5.3589,-5.502,-5.5393,-5.6807,-5.9121,-5.9843,-6.0488,-6.1222,-6.1396,-6.1396,-6.1193,-6.1193,-6.1542,-6.2122,-6.2558,-6.3254,-6.4067,-6.4502,-6.4793,-6.4996,-6.4996,-6.4996,-6.5054,-1.4696,-1.4919,-1.5232,-1.5294,-1.5824,-1.6552,-1.7654,-1.8034,0.0,0.0,-1.9695,0.0,-1.9887,0.0,-2.2402,0.0,-2.4713,-2.6013,-2.7155,-2.7567,0.0,-2.74,-2.6885,0.0,0.0,-2.5488,-2.4824,-2.4238,-2.4082,-2.3711,-2.3144,-2.3457,-2.3965,-2.4707,-2.5859,-2.7187,-2.8613,-3.0039,-3.1289,-3.2564,-3.4725,-3.6177,0.0,0.0,-4.0773,-4.1936,0.0,-4.4347,-4.4371,-4.4563,-4.4852,-4.5044,-4.4539,-4.5092,-4.579,-4.5116,-4.514,-4.5261,-4.4587,-4.4106,-4.3649,-4.2976,-4.2543,-4.2254,-4.2254,-4.1581,-4.0908,-4.0763,-4.0162,-3.9705,-3.9898,-3.9633,-3.9489,-3.9826,-3.9729,-3.9681,0.0,-4.0306,0.0,0.0,0.0,0.0,0.0,0.0,0.0,0.0,0.0,0.0,0.0,0.0,-5.2151,-5.2904,-5.2929,-5.3316,-5.4216,-5.4753,-5.5894,-5.7706,-5.8815,-5.9843,-6.0438,-6.1155,-6.1396,-6.1222,-6.1425,-6.1861,-6.2499,-6.3167,-6.3806,-6.4415,-6.4822,-6.4996,-6.4996,-6.4996,-6.4996,-6.5054,-1.5044,-1.5003,-1.512,-1.5314,-1.6289,-1.7162,0.0,0.0,-1.8568,0.0,-1.9807,-2.0192,-2.0274,-2.1896,-2.2855,-2.2303,-2.4698,-2.6302,-2.6423,-2.7915,0.0,0.0,-2.8591,-2.834,-2.832,0.0,0.0,-2.5098,-2.4668,-2.4004,-2.3164,-2.3984,-2.4629,-2.5117,-2.5996,-2.7344,-2.9004,-2.9863,-3.0781,-3.1758,-3.2988,-3.4004,-3.5008,-3.7657,-4.0018,-4.2166,-4.3678,-4.4347,-4.4467,-4.4972,-4.5164,-4.5261,-4.5766,-4.5934,-4.5958,-4.5958,-4.5982,-4.6006,-4.5982,-4.5237,-4.4467,-4.4443,-4.3673,-4.2904,-4.2904,-4.2495,-4.2254,-4.2735,-4.2014,-4.1461,-4.1966,-4.1196,-4.0523,-4.0523,-4.0018,-3.9801,-4.0282,-3.9946,-4.021,0.0,0.0,0.0,0.0,0.0,0.0,0.0,0.0,0.0,0.0,0.0,-5.1825,-5.2904,-5.2929,-5.2929,-5.2929,-5.4241,-5.4887,-5.502,-5.8282,-5.9557,-5.9121,-6.1135,-6.1745,-6.1222,-6.1832,-6.247,-6.3138,-6.3777,-6.4415,-6.4996,-6.4996,-6.4996,-6.4996,-6.4996,-6.4996,-6.4996,-1.5297,-1.5645,-1.6072,-1.6612,-1.6603,-1.6919,0.0,0.0,0.0,0.0,-1.9992,-2.0241,-2.0537,-2.1135,-2.1936,-2.2842,-2.4377,0.0,0.0,0.0,0.0,-2.9279,-2.9308,-2.9082,-2.8769,-2.7832,0.0,-2.5566,-2.5117,-2.4297,-2.3144,-2.3691,-2.4355,-2.5117,-2.5996,-2.75,-2.9453,-3.0332,-3.1758,-3.3476,-3.4121,-3.4902,-3.5799,0.0,-3.875,-3.9948,-4.2724,-4.4251,-4.4948,-4.5092,-4.5405,-4.5742,-4.5886,-4.6199,-4.6511,-4.6511,-4.68,-4.7016,-4.6607,-4.6319,-4.6006,-4.5621,-4.5309,-4.5116,-4.5116,-4.4708,-4.4251,-4.3986,-4.3385,-4.2952,-4.3096,-4.2591,-4.2158,-4.2158,-4.1052,-4.009,-3.985,-4.0042,0.0,-4.1293,0.0,0.0,0.0,0.0,0.0,0.0,0.0,0.0,0.0,0.0,0.0,-5.2904,-5.2929,-5.2929,-5.2929,-5.3316,-5.3971,-5.502,-5.5921,-5.733,-5.9121,-5.9663,-6.0308,-6.1222,-6.1832,-6.247,-6.3138,-6.3777,-6.4415,-6.4996,-6.4996,-6.4996,-6.4996,-6.4996,-6.4996,-6.4996,-1.5965,-1.6339,-1.6847,-1.7435,0.0,0.0,-1.8171,-1.848,0.0,-1.9875,-2.0254,0.0,-2.1015,-2.1573,-2.2341,-2.3076,-2.481,0.0,-2.7125,0.0,0.0,-2.9813,-3.0044,-2.9941,-2.9492,-2.8828,0.0,-2.6582,-2.5957,-2.5078,-2.3984,-2.4238,-2.4805,-2.5684,-2.6562,-2.8027,-2.9941,-3.1387,-3.2786,-3.4134,-3.4824,-3.5159,0.0,-3.738,-3.8244,-3.8958,-4.1444,-4.3055,-4.4229,-4.4465,-4.53,-4.6319,-4.6535,-4.6824,-4.7064,-4.7064,-4.7257,-4.7425,-4.7136,-4.6896,-4.6631,-4.6343,-4.6102,-4.5934,-4.5934,-4.5694,-4.5405,-4.5092,-4.4611,-4.4299,0.0,-4.3962,-4.3385,-4.312,-4.1966,-4.1052,-4.1004,0.0,0.0,0.0,-4.271,0.0,0.0,0.0,0.0,0.0,-4.8639,0.0,0.0,0.0,0.0,-5.2553,-5.2666,-5.2792,-5.2929,-5.2792,-5.3179,-5.4106,-5.4753,-5.5789,-5.7322,-5.7961,-5.8592,-5.9426,-6.0955,-6.1805,-6.236,-6.3815,-6.4677,-6.4996,-6.4996,-6.4996,-6.4996,-6.4996,-6.4996,-6.4996,-1.6767,-1.7061,-1.7488,-1.8009,0.0,0.0,0.0,-1.8931,0.0,-2.0214,0.0,-2.0882,-2.143,-2.2258,-2.2952,-2.3076,0.0,-2.6883,-2.7366,-2.8938,-3.0039,-3.0274,-3.0684,-3.0781,-3.0371,-2.9961,-2.9141,0.0,-2.7012,-2.6094,-2.5234,-2.5234,-2.5684,-2.6504,-2.7363,-2.873,-3.0508,-3.2617,-3.3727,-3.4258,-3.514,-3.52,-3.5104,-3.7038,-3.8098,-3.8656,-3.9778,-4.1573,-4.328,-4.3585,-4.4883,-4.661,-4.6798,-4.7074,-4.7232,-4.7232,-4.7232,-4.7232,-4.7497,-4.7029,-4.6538,-4.6824,-4.6463,-4.6126,-4.6126,-4.6078,-4.603,-4.603,-4.5597,-4.5405,-4.5934,-4.5285,-4.4467,-4.3818,-4.2976,-4.2519,0.0,0.0,0.0,0.0,0.0,0.0,0.0,0.0,0.0,-4.7592,-4.8281,-4.9027,0.0,0.0,0.0,-5.2201,-5.2404,-5.2729,-5.2992,-5.2729,-5.2729,-5.2992,-5.4158,-5.4913,-5.5099,-5.6183,-5.6834,-5.7228,-5.9644,-6.0718,-6.1015,-6.3393,-6.4583,-6.4711,-6.4967,-6.4996,-6.4996,-6.4996,-6.4996,-6.4996,-1.7074,-1.7716,-1.829,-1.8397,0.0,-1.9546,-1.9506,-1.9626,-1.9933,-2.0521,-2.0641,-2.0802,-2.1149,-2.1389,-2.1853,-2.2952,-2.444,0.0,0.0,0.0,0.0,-2.9922,-3.06,-3.111,-3.1289,-3.0879,-3.0195,0.0,0.0,-2.6992,-2.6152,-2.6152,-2.6426,-2.6934,-2.7793,-2.9336,-3.1406,-3.2807,-3.3719,-3.4258,-3.5182,-3.551,-3.5587,-3.6897,-3.7312,-3.7114,-3.7729,-4.0656,-4.4001,-4.2995,-4.3894,-4.5298,-4.4116,-4.4709,-4.5685,-4.5685,-4.5685,-4.5978,-4.7232,-4.6603,-4.5838,-4.7088,-4.7305,-4.7233,-4.7233,-4.6896,-4.6583,-4.6583,-4.615,-4.5958,-4.6487,-4.6415,-4.5982,-4.502,0.0,0.0,0.0,0.0,0.0,0.0,0.0,-4.4618,0.0,0.0,0.0,-4.6646,-4.8011,-4.9131,0.0,0.0,0.0,0.0,-5.2742,0.0,0.0,0.0,-5.3103,-5.3836,-5.3495,-5.4065,-5.5647,-5.547,-5.6186,-5.7852,-5.8794,-5.9499,-5.9857,-6.0999,-6.2109,-6.3328,-6.4554,-6.4996,-6.4996,-6.4996,-6.4996,-6.4996,-1.7849,-1.8557,-1.9118,-1.8971,0.0,0.0,0.0,-2.0388,-2.0588,-2.0869,-2.0895,-2.1015,-2.1309,-2.1203,-2.1601,-2.2952,-2.4317,-2.5546,-2.69,-2.8799,-2.9905,-3.0244,-3.0882,0.0,-3.1614,-3.1401,-3.0994,-3.0354,0.0,-2.8661,-2.8359,-2.791,-2.793,-2.8379,-2.9473,-3.0684,-3.2104,-3.3354,-3.386,-3.4069,-3.5314,-3.5659,-3.5754,-3.7164,-3.75,-3.7383,-3.7812,-4.0021,-4.2384,-4.1455,-4.25,-4.4001,-4.3171,-4.3448,-4.4138,-4.4138,-4.4138,-4.4436,-4.5978,-4.582,-4.5685,-4.7074,-4.7497,-4.7497,-4.7497,-4.7305,-4.7112,-4.7112,-4.6704,-4.6415,-4.6655,-4.6944,0.0,0.0,0.0,0.0,0.0,0.0,-4.5261,0.0,0.0,0.0,0.0,0.0,0.0,-4.6397,-4.7904,0.0,0.0,0.0,0.0,0.0,0.0,0.0,-5.3828,0.0,-5.3328,-5.3828,-5.3443,-5.3847,-5.474,-5.4202,-5.4525,-5.5747,-5.7112,-5.8103,-5.8689,-6.0102,-6.1029,-6.184,-6.3328,-6.3879,-6.4009,-6.4711,-6.4996,-6.4996,-1.8771,-1.9372,-1.984,-1.9679,-2.0401,-2.0962,-2.0802,-2.0962,-2.1109,-2.1109,-2.1109,-2.1203,-2.143,-2.1256,-2.1628,-2.3039,-2.4052,-2.5445,-2.7122,-2.8778,-2.9952,-3.0558,-3.1123,-3.1455,-3.1673,-3.1577,-3.1424,0.0,0.0,-3.0026,-2.9809,-2.9531,-2.9512,-2.9902,-3.1093,-3.1911,-3.2606,-3.3554,-3.3956,-3.4115,-3.5477,-3.5959,-3.5914,-3.7449,-3.8008,-3.7988,-3.8418,-3.9405,-4.033,-3.9982,-4.1074,-4.2473,-4.2193,-4.2333,-4.2473,-4.2473,-4.2473,-4.2892,-4.4846,-4.5005,-4.5278,-4.7074,-4.7497,-4.7521,-4.7642,-4.7666,-4.7666,-4.7666,-4.7257,-4.6872,-4.6872,-4.7209,0.0,0.0,0.0,0.0,0.0,0.0,0.0,0.0,0.0,0.0,-4.5669,0.0,0.0,-4.6907,-4.7904,-4.8548,-4.8772,0.0,0.0,0.0,0.0,-5.2864,-5.3778,0.0,-5.3553,-5.3919,-5.3934,-5.3884,-5.3858,-5.3331,-5.3381,-5.4049,-5.5699,-5.6876,-5.7551,-5.9382,-6.007,-6.0345,-6.1706,-6.2508,-6.2906,-6.4167,-6.4798,-6.5199,-1.9679,-1.996,-2.0267,-2.0508,0.0,-2.0802,-2.1029,-2.1096,-2.1109,-2.1109,-2.1109,-2.1122,-2.1149,-2.1122,-2.171,-2.3359,-2.3627,-2.4887,-2.7747,-2.8191,-2.8977,-3.0624,-3.0784,-3.1114,-3.174,-3.1361,-3.1465,0.0,0.0,-3.0488,-2.8622,-3.0062,-3.0723,-3.082,-3.1359,-3.2074,0.0,-3.3162,-3.3569,-3.437,-3.5614,-3.6237,-3.6333,-3.7895,-3.8262,-3.7988,-3.8418,-3.872,-3.8846,-3.8806,-3.9798,-4.08,-3.9405,-3.9962,-4.0942,-4.0942,-4.0942,-4.163,-4.4573,-4.4298,-4.3863,-4.6808,-4.7497,-4.7617,-4.8098,-4.8219,-4.8219,-4.8219,-4.7786,-4.7425,-4.7425,-4.7473,-4.7642,0.0,0.0,0.0,0.0,0.0,-4.7353,-4.7353,0.0,0.0,0.0,-4.7714,0.0,-4.8585,-4.7831,0.0,0.0,0.0,0.0,-5.2253,0.0,-5.2957,-5.4203,-5.3786,-5.3928,-5.4638,-5.457,-5.4486,-5.4461,-5.3884,-5.3934,-5.4511,-5.5207,-5.6037,-5.7116,-5.82,-5.856,-5.8701,-6.0208,-6.1571,-6.2773,-6.2906,-6.4222,-6.5838,-2.0361,-2.0708,-2.1002,0.0,0.0,0.0,0.0,-2.1483,-2.1443,-2.1617,-2.1483,-2.1376,-2.1376,-2.1537,-2.2189,-2.3723,-2.3898,-2.5359,-2.8222,-2.8905,-2.9942,-3.1652,-3.2003,-3.2115,-3.2169,-3.2001,-3.1997,0.0,0.0,-3.1626,-3.1161,-3.1796,-3.2054,-3.1826,-3.2074,-3.2147,-3.2468,-3.3159,-3.3694,-3.4149,-3.5689,-3.6304,-3.6732,-3.7778,-3.8331,-3.834,-3.8224,-3.8448,-3.8574,-3.8574,-3.8991,-3.9405,-3.8865,-3.8991,-3.9405,-3.9405,-3.9405,-4.0022,-4.2415,-4.3187,-4.4096,-4.6381,-4.7732,-4.8507,-4.8724,-4.8772,-4.8772,-4.8772,-4.8603,-4.8363,-4.8026,-4.8507,-4.8772,-4.8363,0.0,0.0,0.0,0.0,0.0,-4.7497,0.0,-4.7377,0.0,0.0,0.0,0.0,-4.8754,0.0,0.0,0.0,0.0,-5.2122,0.0,-5.3006,-5.423,-5.3755,-5.3899,-5.4812,-5.4733,-5.492,-5.5039,-5.4486,-5.4536,-5.5089,-5.5641,-5.6118,-5.652,-5.6852,-5.704,-5.7184,-5.8701,-6.0208,-6.1626,-6.2956,-6.4462,-6.6041,-2.1096,-2.139,-2.1617,0.0,-2.1537,-2.175,-2.1951,-2.1884,-2.1884,-2.2084,-2.2098,-2.2004,-2.183,-2.2071,-2.2671,-2.37,-2.4419,-2.5783,-2.841,-2.9427,-3.067,-3.243,-3.2728,0.0,-3.2561,-3.232,-3.2134,-3.1967,-3.2096,0.0,-3.1847,-3.1929,-3.2188,-3.2422,-3.241,-3.2506,-3.2537,-3.3373,-3.3964,-3.45,-3.5773,-3.6444,-3.6986,-3.7601,-3.8009,-3.8428,-3.8155,-3.8302,-3.8574,-3.8574,-3.8574,-3.8574,-3.8574,-3.8652,-3.875,-3.875,-3.8848,-3.9318,-4.1191,-4.2394,-4.3894,-4.6093,-4.7493,-4.8534,-4.9139,-4.9301,-4.9301,-4.9301,-4.9181,-4.8964,-4.8603,-4.9133,-4.9445,-4.8844,0.0,0.0,0.0,-4.8291,0.0,-4.8411,-4.8435,-4.8291,-4.793,-4.8219,0.0,0.0,0.0,0.0,0.0,0.0,0.0,0.0,0.0,0.0,-5.423,-5.3689,-5.3833,-5.4667,-5.484,-5.5106,-5.5246,-5.5164,-5.5265,-5.5666,-5.6219,-5.6445,-5.6445,-5.6269,-5.6219,-5.634,-5.7328,-5.8806,-6.0392,-6.2452,-6.4223,-6.6067,-2.1964,-2.1977,-2.1977,-2.1977,-2.1977,-2.1977,-2.1991,-2.2231,-2.2405,-2.2405,-2.2939,-2.3073,-2.2472,-2.2672,-2.2979,-2.3287,-2.4663,-2.6283,-2.8138,-2.9696,-3.109,0.0,0.0,-3.2203,-3.2588,-3.1799,-3.1598,-3.2001,0.0,0.0,-2.9368,-2.9758,-3.084,-3.2459,-3.2485,-3.2942,-3.3638,-3.3771,-3.4537,-3.56,-3.6029,-3.6732,-3.7402,-3.7402,-3.7715,-3.8009,-3.8009,-3.8302,-3.8574,-3.8574,-3.8574,-3.8574,-3.8574,-3.8867,-3.9199,-3.9199,-3.9512,-4.0164,-4.1764,-4.2039,-4.2899,-4.5901,-4.6747,-4.7329,-4.9432,-4.9854,-4.9854,-4.9854,-4.9445,-4.9084,-4.906,-4.9084,-4.9253,-4.9758,-4.9421,0.0,0.0,-4.9397,0.0,-5.0551,-5.0672,-5.0672,-5.0648,-5.0672,0.0,0.0,0.0,0.0,0.0,0.0,0.0,-5.3097,-5.2231,0.0,-5.4205,-5.3689,-5.3689,-5.423,-5.5212,-5.5334,-5.4837,-5.5797,-5.6194,-5.6244,-5.6796,-5.7022,-5.6972,-5.6445,-5.6219,-5.6219,-5.6219,-5.7516,-5.9398,-6.1097,-6.3225,-6.5803,-2.2325,-2.2285,-2.2338,-2.2552,-2.2418,-2.2485,-2.3113,-2.3113,-2.3113,-2.3313,-2.3674,-2.3848,-2.3661,-2.3541,-2.3527,0.0,-2.5187,-2.6869,0.0,-3.016,-3.1861,-3.3294,-3.3303,-3.3175,-3.3028,-3.2771,-3.257,-3.2404,0.0,0.0,-3.2246,-3.2263,-3.2374,-3.2899,-3.32,-3.3505,-3.3808,-3.4348,-3.4935,-3.5576,-3.6014,-3.6458,-3.696,-3.696,-3.7402,-3.8009,-3.7715,-3.799,-3.8613,-3.8906,-3.9004,-3.9062,-3.9375,-3.9355,-3.9258,-3.959,-3.9785,-4.0112,-4.0821,-4.1785,-4.2874,-4.4209,-4.5309,-4.667,-4.8465,-4.9677,-5.0431,-5.0431,-5.0311,-5.007,-4.9686,-4.9926,-5.0119,-4.9902,-4.9734,-4.9686,-4.9854,-4.9421,-4.9205,-4.9565,-4.9589,-4.9589,0.0,-4.9926,0.0,0.0,0.0,0.0,0.0,0.0,0.0,0.0,-5.181,0.0,-5.3496,-5.2987,-5.3156,-5.4327,-5.4621,-5.5115,-5.593,-5.6949,-5.7148,-5.6771,-5.6972,-5.6821,-5.647,-5.6294,-5.6219,-5.6219,-5.6219,-5.7371,-5.945,-6.1528,-6.3583,-6.575,-2.2939,-2.2926,-2.2979,-2.3166,-2.3046,-2.3113,-2.3688,-2.3701,-2.3728,-2.3901,-2.4182,-2.4369,-2.4369,-2.4209,0.0,-2.4102,-2.6228,-2.7891,-2.8885,-3.109,-3.2806,-3.3817,-3.3817,-3.3688,-3.345,-3.3303,0.0,-3.2826,-3.2936,-3.3127,-3.3262,-3.3292,-3.3292,-3.3354,-3.3882,-3.4128,-3.4312,-3.4972,-3.5394,-3.5778,-3.6072,-3.6441,-3.6812,-3.6812,-3.7255,-3.7715,-3.7715,-3.8105,-3.8848,-3.9121,-3.9316,-3.9551,-4.0,-3.9922,-3.9746,-4.0039,-4.0254,-4.043,-4.0703,-4.1509,-4.2464,-4.3318,-4.4289,-4.5617,-4.7872,-4.9054,-4.9961,-5.0554,-5.0696,-5.06,-5.0239,-5.0455,-5.06,-5.0239,-5.0191,-5.0191,-5.0191,-4.9902,-4.983,-5.0239,0.0,0.0,0.0,-5.0095,-5.0383,0.0,0.0,0.0,0.0,0.0,0.0,-5.2211,-5.2156,-5.2571,-5.3324,-5.2887,-5.3152,-5.4122,-5.4466,-5.5236,-5.6179,-5.7449,-5.7525,-5.6746,-5.7173,-5.6922,-5.6219,-5.6219,-5.6344,-5.6495,-5.6294,-5.7359,-5.9256,-6.0933,-6.3041,-6.5222,-2.3714,-2.3768,-2.3781,-2.3794,-2.3794,-2.3808,-2.3834,-2.4062,-2.4235,-2.4235,-2.4476,-2.4636,-2.4636,-2.4636,-2.4636,-2.4636,0.0,0.0,-2.9059,-3.1789,-3.3521,-3.3659,-3.3659,-3.3678,-3.3817,-3.345,-3.3285,-3.3303,-3.2936,-3.2771,-3.2771,-3.3175,-3.3541,-3.3908,-3.4312,-3.4697,-3.51,-3.5485,-3.5815,-3.6144,-3.6202,-3.6367,-3.6812,-3.6812,-3.696,-3.7421,-3.7901,-3.8592,-3.9219,-3.9277,-3.959,-4.0019,-4.043,-4.0566,-4.0566,-4.0566,-4.0859,-4.1172,-4.1172,-4.1172,-4.1463,-4.2943,-4.3532,-4.444,-4.7411,-4.8308,-4.891,-5.0412,-5.0696,-5.0696,-5.0696,-5.0696,-5.0696,-5.0696,-5.0696,-5.0696,-5.0696,-5.0696,-5.1056,-5.2043,0.0,0.0,-5.1441,-5.0984,-5.0503,0.0,0.0,0.0,0.0,0.0,-5.2937,-5.3176,-5.2888,-5.3011,-5.3546,-5.3176,-5.3317,-5.3822,-5.483,-5.5432,-5.5584,-5.7421,-5.7423,-5.6394,-5.7474,-5.7349,-5.6319,-5.6294,-5.6595,-5.7047,-5.6495,-5.7298,-5.8857,-5.9817,-6.19,-6.4518,-2.3754,-2.3768,-2.3834,-2.4062,-2.4102,-2.4168,-2.4396,-2.4489,-2.4529,-2.4529,-2.4596,-2.4636,-2.4636,-2.4636,-2.4636,-2.4636,-2.6357,-2.7505,-2.7505,-2.9218,-3.0785,-3.1947,-3.207,-3.2648,-3.3817,-3.3725,-3.3817,-3.4128,-3.4348,-3.4458,-3.4458,-3.455,-3.466,-3.4752,-3.5155,-3.5394,-3.5504,-3.5907,-3.6072,-3.622,-3.6164,-3.6201,-3.6349,-3.6349,-3.6812,-3.7459,-3.7911,-3.8528,-3.9297,-3.998,-4.0273,-4.0449,-4.0879,-4.1016,-4.1016,-4.1016,-4.1094,-4.1172,-4.1172,-4.1172,-4.1327,-4.1618,-4.3553,-4.5468,-4.6211,-4.8308,-5.0246,-5.0554,-5.0696,-5.0696,-5.0696,-5.0696,-5.0696,-5.0696,-5.0696,-5.0696,-5.0696,-5.0696,-5.0792,-5.1056,-5.096,-5.0888,-5.0888,-5.0768,-5.0984,0.0,0.0,0.0,-5.2451,-5.2501,-5.2043,-5.139,-5.1871,-5.2332,-5.2598,-5.3008,-5.3317,-5.3822,-5.5242,-5.5716,-5.5404,-5.7352,-5.7734,-5.7049,-5.7772,-5.7824,-5.7474,-5.7022,-5.7173,-5.765,-5.7072,-5.7851,-5.9386,-6.0412,-6.2512,-6.4917,-2.4142,-2.4168,-2.4209,-2.4369,-2.4396,-2.4449,-2.4609,-2.4636,-2.4636,-2.4636,-2.4636,-2.4636,-2.4636,-2.4636,-2.4636,-2.4636,-2.6078,-2.6939,-2.6939,-2.8357,-2.9916,-3.1367,-3.1508,-3.2228,-3.3817,-3.3982,-3.4275,-3.4697,-3.4917,-3.5027,-3.5027,-3.521,-3.5302,-3.532,-3.5705,-3.5889,-3.5907,-3.6109,-3.6201,-3.6201,-3.6201,-3.6201,-3.6201,-3.6367,-3.6924,-3.7408,-3.7783,-3.8705,-3.9562,-4.0046,-4.0491,-4.0859,-4.1094,-4.1172,-4.1172,-4.1172,-4.1172,-4.1172,-4.1172,-4.1172,-4.1172,-4.1172,-4.2503,-4.4138,-4.5617,-4.7265,-4.891,-5.0412,-5.0696,-5.0696,-5.0696,-5.0696,-5.0696,-5.0696,-5.0696,-5.0696,-5.0696,-5.0696,-5.0696,-5.0696,-5.0696,-5.0696,-5.0696,-5.0696,-5.1032,-5.185,-5.1441,0.0,-5.2307,-5.185,-5.1513,-5.1417,-5.2067,-5.2623,-5.2644,-5.3149,-5.3558,-5.3822,-5.4969,-5.5218,-5.4908,-5.6846,-5.7302,-5.6924,-5.7744,-5.7797,-5.7499,-5.7449,-5.76,-5.7901,-5.7826,-5.8654,-5.9965,-6.0277,-6.2369,-6.5108,-2.4583,-2.4488,-2.4488,-2.4636,-2.4636,-2.4636,-2.4636,-2.4636,-2.4636,-2.4636,-2.4636,-2.4636,-2.4636,-2.4636,-2.4636,-2.4636,-2.5786,-2.6502,-2.6502,-2.778,-2.9361,-3.1084,-3.1209,-3.1965,-3.389,-3.4348,-3.4752,-3.5119,-3.5174,-3.521,-3.521,-3.5559,-3.5705,-3.5724,-3.6054,-3.6201,-3.6201,-3.6201,-3.6201,-3.6201,-3.6201,-3.6201,-3.6219,-3.659,-3.711,-3.7427,-3.8009,-3.8823,-3.9894,-3.9971,-4.055,-4.1172,-4.1172,-4.1172,-4.1172,-4.1172,-4.1172,-4.1172,-4.1172,-4.1172,-4.1172,-4.1172,-4.1327,-4.237,-4.517,-4.6063,-4.7118,-5.0104,-5.0696,-5.0696,-5.0696,-5.0696,-5.072,-5.0816,-5.0768,-5.0744,-5.0816,-5.0744,-5.0696,-5.0696,-5.0696,-5.0744,-5.0816,-5.0816,-5.1032,-5.1562,-5.1201,-5.1129,-5.1586,-5.1177,-5.1393,-5.2379,-5.2764,-5.3029,-5.3173,-5.3678,-5.3942,-5.3942,-5.4471,-5.4599,-5.4417,-5.5945,-5.6577,-5.6476,-5.7492,-5.7722,-5.7174,-5.7725,-5.7951,-5.8077,-5.8629,-5.9508,-6.0387,-6.012,-6.2188,-6.5097,-2.4475,-2.4341,-2.4193,-2.4488,-2.4636,-2.4636,-2.4636,-2.4636,-2.4636,-2.4636,-2.4636,-2.4636,-2.4636,-2.4636,-2.4636,-2.4636,-2.4784,-2.4918,-2.4918,-2.5212,-2.6634,-2.9488,-2.9488,-3.1077,-3.4293,-3.5045,-3.5467,-3.5522,-3.5852,-3.6017,-3.6036,-3.6091,-3.6109,-3.6109,-3.6182,-3.6201,-3.6201,-3.6201,-3.6201,-3.6201,-3.6201,-3.6201,-3.6237,-3.6604,-3.707,-3.7502,-3.8363,-3.9163,-3.9952,-4.0298,-4.0783,-4.1172,-4.1172,-4.1172,-4.1172,-4.1172,-4.1172,-4.1172,-4.1172,-4.1172,-4.1172,-4.1172,-4.2216,-4.3684,-4.5468,-4.6971,-4.8453,-5.027,-5.0696,-5.0696,-5.0696,-5.0696,-5.0864,-5.1297,-5.1008,-5.0864,-5.1297,-5.0984,-5.0696,-5.0696,-5.0696,-5.0888,-5.1321,-5.1369,-5.1586,-5.2115,-5.2091,-5.2067,-5.2163,-5.2091,-5.2307,-5.2932,-5.2596,-5.2812,-5.3702,-5.4231,-5.4496,-5.4496,-5.5025,-5.5001,-5.4672,-5.5853,-5.6202,-5.626,-5.718,-5.7685,-5.7971,-5.7901,-5.8177,-5.8654,-5.9182,-6.006,-6.1123,-6.1917,-6.3672,-6.5788,-2.3896,-2.3748,-2.3748,-2.3896,-2.3896,-2.3896,-2.3896,-2.4193,-2.4341,-2.4341,-2.4488,-2.4636,-2.4636,-2.4636,-2.4636,-2.4636,-2.4636,-2.4636,-2.4636,-2.4636,-2.6003,-2.9344,-2.9504,-3.1209,-3.5045,-3.543,-3.5724,-3.5925,-3.6109,-3.6201,-3.6201,-3.6201,-3.6201,-3.6201,-3.6201,-3.6201,-3.6201,-3.6201,-3.6201,-3.6201,-3.6201,-3.6347,-3.6567,-3.6769,-3.7251,-3.781,-3.8198,-3.8943,-3.9949,-3.9826,-4.0372,-4.0841,-4.0529,-4.0685,-4.0841,-4.0841,-4.0997,-4.1172,-4.1172,-4.1172,-4.1172,-4.1172,-4.1773,-4.2963,-4.5341,-4.6529,-4.7411,-4.9054,-5.0104,-5.0412,-4.9509,-5.0104,-5.0792,-5.1032,-5.0864,-5.0792,-5.1032,-5.0864,-5.0696,-5.0696,-5.096,-5.1225,-5.1465,-5.1754,-5.2018,-5.2259,-5.2283,-5.2283,-5.2283,-5.2283,-5.2524,-5.3053,-5.3101,-5.3341,-5.3822,-5.4063,-5.4183,-5.4183,-5.4423,-5.4423,-5.4231,-5.5289,-5.596,-5.6075,-5.7058,-5.7589,-5.7784,-5.827,-5.8424,-5.8524,-5.9804,-6.0738,-6.1299,-6.269,-6.4221,-6.5924,-2.3438,-2.3302,-2.3302,-2.3451,-2.3438,-2.3438,-2.3438,-2.3587,-2.3896,-2.4044,-2.4341,-2.4488,-2.4636,-2.4636,-2.4636,-2.4636,-2.4636,-2.4663,-2.473,-2.4743,-2.5996,-2.9158,-2.9755,-3.1579,-3.501,-3.51,-3.5446,-3.6201,-3.6201,-3.6201,-3.6201,-3.6201,-3.6201,-3.6201,-3.6201,-3.6201,-3.6201,-3.6201,-3.6201,-3.6219,-3.6311,-3.6549,-3.6861,-3.7044,-3.7484,-3.8016,-3.8126,-3.8836,-3.9745,-3.943,-3.9726,-4.0353,-4.0059,-4.0059,-4.0353,-4.0509,-4.0841,-4.1172,-4.1172,-4.1172,-4.1172,-4.1172,-4.1172,-4.1907,-4.4741,-4.5319,-4.5915,-4.7872,-4.9221,-4.9818,-4.9054,-4.9818,-5.0744,-5.0864,-5.0792,-5.0744,-5.0864,-5.0792,-5.0744,-5.0864,-5.1249,-5.1586,-5.1826,-5.2235,-5.2524,-5.262,-5.2644,-5.2644,-5.2644,-5.2644,-5.2836,-5.3221,-5.3606,-5.3822,-5.3822,-5.3942,-5.3991,-5.3991,-5.3991,-5.3991,-5.4039,-5.4977,-5.5564,-5.5921,-5.7047,-5.7375,-5.7344,-5.8204,-5.831,-5.8266,-6.0222,-6.109,-6.1148,-6.2949,-6.438,-6.5733,-2.3302,-2.3154,-2.3005,-2.329,-2.3438,-2.3438,-2.3438,-2.3438,-2.3587,-2.3896,-2.4044,-2.4193,-2.4488,-2.4636,-2.4636,-2.4636,-2.4636,-2.4756,-2.5024,-2.505,-2.5786,-2.757,-2.9482,-3.1495,-3.3352,-3.3696,-3.4654,-3.6201,-3.6201,-3.6201,-3.6201,-3.6201,-3.6201,-3.6201,-3.6201,-3.6201,-3.6201,-3.6201,-3.6201,-3.6237,-3.6641,-3.6806,-3.6916,-3.7649,-3.7961,-3.8071,-3.8456,-3.8938,-3.9272,-3.9272,-3.9588,-3.9902,-3.9902,-3.9902,-4.0059,-4.0353,-4.0841,-4.1172,-4.1172,-4.1172,-4.1172,-4.1172,-4.1172,-4.1618,-4.3248,-4.3684,-4.4591,-4.7704,-4.8453,-4.891,-5.0246,-5.0554,-5.0864,-5.1345,-5.1032,-5.0864,-5.1369,-5.1008,-5.0888,-5.1369,-5.1465,-5.1874,-5.286,-5.298,-5.3197,-5.3678,-5.3702,-5.3702,-5.3702,-5.3702,-5.3726,-5.375,-5.3798,-5.3822,-5.3822,-5.4303,-5.4544,-5.4544,-5.4544,-5.4544,-5.4568,-5.5145,-5.5409,-5.5433,-5.6479,-5.6877,-5.6853,-5.7344,-5.7808,-5.8266,-5.9881,-6.0522,-6.0594,-6.2793,-6.4115,-6.5162,-2.2707,-2.2558,-2.2558,-2.2707,-2.2707,-2.2707,-2.2707,-2.3005,-2.3154,-2.3302,-2.3451,-2.3735,-2.4193,-2.4193,-2.4341,-2.4636,-2.481,-2.4957,-2.5077,-2.5424,-2.6377,-2.8008,-2.9945,-3.1869,-3.3546,-3.3683,-3.4521,-3.6201,-3.6201,-3.6201,-3.6201,-3.6201,-3.6201,-3.6201,-3.6201,-3.6201,-3.6219,-3.6494,-3.6604,-3.6641,-3.7044,-3.7356,-3.7594,-3.7906,-3.8181,-3.842,-3.8585,-3.8956,-3.9272,-3.8956,-3.9114,-3.943,-3.9114,-3.9272,-3.9588,-4.0059,-4.0216,-4.0372,-4.0372,-4.0529,-4.0685,-4.0529,-4.0529,-4.1133,-4.2769,-4.338,-4.4138,-4.6381,-4.7558,-4.8453,-4.9054,-4.9961,-5.0768,-5.096,-5.084,-5.0768,-5.0984,-5.084,-5.0912,-5.1441,-5.1778,-5.2259,-5.3004,-5.3341,-5.3606,-5.3798,-5.3822,-5.3822,-5.3822,-5.3822,-5.3822,-5.3822,-5.3822,-5.3822,-5.3822,-5.4015,-5.4111,-5.4111,-5.4111,-5.4111,-5.4159,-5.5001,-5.5385,-5.5458,-5.648,-5.6866,-5.7024,-5.7339,-5.7653,-5.7932,-5.9846,-6.0338,-6.023,-6.2613,-6.4088,-6.5108,-2.2259,-2.2259,-2.2259,-2.2259,-2.2259,-2.2259,-2.2259,-2.2558,-2.2707,-2.2856,-2.3154,-2.3451,-2.3896,-2.4044,-2.4232,-2.477,-2.4957,-2.5157,-2.5344,-2.5812,-2.6547,-2.7762,-2.9035,-3.0531,-3.2233,-3.2233,-3.3297,-3.5438,-3.5438,-3.5438,-3.5438,-3.5903,-3.5903,-3.5438,-3.5903,-3.6274,-3.6421,-3.6714,-3.6897,-3.7062,-3.7448,-3.7778,-3.8034,-3.8163,-3.8383,-3.864,-3.864,-3.8798,-3.8956,-3.864,-3.8798,-3.8956,-3.864,-3.8956,-3.943,-3.9588,-3.9745,-3.9902,-3.9745,-3.9902,-4.004,-3.9902,-4.0059,-4.0666,-4.1848,-4.2309,-4.3075,-4.472,-4.6063,-4.6971,-4.7411,-4.8453,-4.9365,-4.9818,-4.9961,-5.0151,-5.0912,-5.096,-5.1201,-5.1898,-5.2307,-5.274,-5.3245,-5.3606,-5.3822,-5.3822,-5.3822,-5.3822,-5.3822,-5.3822,-5.3822,-5.3822,-5.3822,-5.3822,-5.3822,-5.3822,-5.3822,-5.3822,-5.3822,-5.3822,-5.387,-5.4904,-5.5385,-5.5458,-5.654,-5.7021,-5.7021,-5.7497,-5.7655,-5.7911,-5.9626,-6.0079,-5.9822,-6.1783,-6.3528,-6.4863,-2.2259,-2.2259,-2.2259,-2.2259,-2.2259,-2.2259,-2.2259,-2.2259,-2.2408,-2.2856,-2.2856,-2.3154,-2.3896,-2.4044,-2.4311,-2.505,-2.5077,-2.5331,-2.5919,-2.6226,-2.6386,-2.6386,-2.6386,-2.7162,-2.8856,-2.8856,-3.0546,-3.3768,-3.3768,-3.3768,-3.3768,-3.5438,-3.5288,-3.3919,-3.5438,-3.6439,-3.6842,-3.6842,-3.7081,-3.7466,-3.7851,-3.8016,-3.8071,-3.8493,-3.864,-3.864,-3.864,-3.864,-3.864,-3.864,-3.864,-3.864,-3.864,-3.8956,-3.9272,-3.9272,-3.9588,-3.9745,-3.943,-3.9272,-3.943,-3.9745,-3.9902,-4.0059,-4.0353,-4.0509,-4.1113,-4.3096,-4.3532,-4.3987,-4.5617,-4.5915,-4.6381,-4.8018,-4.8308,-4.9096,-5.1274,-5.1489,-5.1874,-5.2932,-5.3077,-5.3269,-5.3774,-5.3822,-5.3822,-5.3822,-5.3822,-5.3822,-5.3822,-5.3822,-5.3822,-5.3822,-5.3822,-5.3822,-5.3822,-5.3822,-5.3822,-5.3822,-5.3822,-5.3822,-5.387,-5.4904,-5.5385,-5.5458,-5.654,-5.7021,-5.7021,-5.7497,-5.7813,-5.8409,-5.949,-5.9697,-5.9633,-6.0263,-6.2045,-6.4147,-2.2259,-2.2259,-2.2259,-2.2259,-2.2259,-2.2259,-2.2259,-2.2259,-2.2408,-2.2408,-2.2408,-2.2707,-2.3451,-2.3766,-2.4233,-2.5077,-2.5451,-2.5852,-2.6239,-2.6346,-2.6386,-2.6386,-2.6386,-2.7162,-2.8856,-2.8856,-2.9928,-3.2065,-3.2065,-3.2065,-3.2065,-3.2522,-3.3146,-3.3768,-3.4667,-3.5638,-3.6879,-3.7429,-3.7723,-3.7869,-3.8291,-3.8456,-3.8475,-3.8603,-3.864,-3.864,-3.864,-3.864,-3.864,-3.864,-3.864,-3.864,-3.864,-3.864,-3.8798,-3.8798,-3.8956,-3.8956,-3.8798,-3.8798,-3.8798,-3.8956,-3.9272,-3.9588,-3.9569,-3.9902,-4.0666,-4.2596,-4.3055,-4.3663,-4.5617,-4.5915,-4.6381,-4.8018,-4.8607,-4.9491,-5.1321,-5.1802,-5.2307,-5.298,-5.3077,-5.3269,-5.3774,-5.3822,-5.3822,-5.3822,-5.3822,-5.3822,-5.3822,-5.3822,-5.3822,-5.3822,-5.3822,-5.3822,-5.3822,-5.3822,-5.3822,-5.3822,-5.3822,-5.3822,-5.387,-5.4904,-5.5385,-5.5458,-5.654,-5.7021,-5.7021,-5.718,-5.7497,-5.7911,-5.9305,-5.9538,-5.9323,-6.1785,-6.3264,-6.4292,-2.1337,-2.1798,-2.2259,-2.2259,-2.2259,-2.2259,-2.2259,-2.2259,-2.2259,-2.2259,-2.2355,-2.2717,-2.3304,-2.3555,-2.4074,-2.4801,-2.5386,-2.5728,-2.6215,-2.6228,-2.6228,-2.6386,-2.6386,-2.6847,-2.7933,-2.7933,-2.87,-3.0392,-3.0392,-3.0392,-3.0392,-3.1134,-3.166,-3.2139,-3.3768,-3.5123,-3.6379,-3.7486,-3.8108,-3.8291,-3.853,-3.864,-3.864,-3.864,-3.864,-3.864,-3.864,-3.864,-3.864,-3.864,-3.864,-3.864,-3.864,-3.864,-3.864,-3.864,-3.864,-3.864,-3.864,-3.864,-3.864,-3.864,-3.8798,-3.9114,-3.9272,-3.943,-4.004,-4.1404,-4.1693,-4.2156,-4.3511,-4.3815,-4.4633,-4.7217,-4.7953,-4.9056,-5.1751,-5.2379,-5.2788,-5.3317,-5.3365,-5.3485,-5.3798,-5.3822,-5.3822,-5.3822,-5.3822,-5.3822,-5.3822,-5.3822,-5.3822,-5.3822,-5.3822,-5.3822,-5.3822,-5.3822,-5.3822,-5.3822,-5.3822,-5.3918,-5.4159,-5.5001,-5.553,-5.577,-5.6636,-5.7021,-5.7021,-5.718,-5.7497,-5.8044,-5.906,-5.979,-6.0329,-6.2122,-6.3804,-6.5182,-1.9811,-2.1187,-2.2259,-2.2259,-2.2259,-2.2259,-2.2259,-2.2283,-2.2295,-2.2295,-2.2524,-2.2834,-2.3138,-2.3525,-2.394,-2.4672,-2.4964,-2.5289,-2.5753,-2.5753,-2.5911,-2.6386,-2.6386,-2.6386,-2.6386,-2.6386,-2.7162,-2.87,-2.87,-2.8715,-2.8744,-3.0591,-3.0587,-2.9542,-3.2884,-3.4806,-3.5446,-3.7095,-3.8134,-3.864,-3.864,-3.864,-3.864,-3.864,-3.864,-3.864,-3.864,-3.864,-3.864,-3.864,-3.864,-3.864,-3.864,-3.864,-3.864,-3.864,-3.864,-3.864,-3.864,-3.864,-3.864,-3.864,-3.864,-3.864,-3.9114,-3.9272,-3.943,-3.9745,-3.9902,-3.9902,-4.0353,-4.0548,-4.1892,-4.5944,-4.6701,-4.8283,-5.2392,-5.3077,-5.3293,-5.3702,-5.3798,-5.3822,-5.3822,-5.3822,-5.3822,-5.3822,-5.3822,-5.3822,-5.3822,-5.3822,-5.3822,-5.3822,-5.3822,-5.3822,-5.3822,-5.3822,-5.3822,-5.3822,-5.3822,-5.4087,-5.4616,-5.5145,-5.5698,-5.6275,-5.6804,-5.7021,-5.7021,-5.7339,-5.7813,-5.8359,-5.89,-6.0116,-6.1744,-6.2166,-6.4049,-6.6483,-1.9811,-2.1187,-2.2259,-2.2259,-2.2259,-2.2259,-2.2259,-2.244,-2.2573,-2.2573,-2.279,-2.3113,-2.3409,-2.381,-2.4153,-2.4685,-2.4964,-2.513,-2.5289,-2.5594,-2.5911,-2.5911,-2.6228,-2.6386,-2.6386,-2.6386,-2.6544,-2.7004,-2.7004,-2.7127,-2.72,-2.7734,-2.8514,-2.9705,-3.0851,-3.2809,-3.5463,-3.6074,-3.7241,-3.864,-3.864,-3.864,-3.864,-3.864,-3.864,-3.864,-3.864,-3.864,-3.864,-3.864,-3.864,-3.864,-3.864,-3.864,-3.864,-3.864,-3.864,-3.864,-3.864,-3.864,-3.864,-3.864,-3.864,-3.864,-3.8798,-3.8798,-3.8956,-3.9272,-3.943,-3.9588,-3.9902,-4.0641,-4.2249,-4.5684,-4.7094,-4.8933,-5.2011,-5.3149,-5.3558,-5.3269,-5.3582,-5.3822,-5.3822,-5.3822,-5.3822,-5.3822,-5.3822,-5.3822,-5.3822,-5.3822,-5.3822,-5.3822,-5.3822,-5.3822,-5.3822,-5.3822,-5.3822,-5.3822,-5.3822,-5.4087,-5.4616,-5.5145,-5.5698,-5.6275,-5.6804,-5.7021,-5.7021,-5.7021,-5.7339,-5.7862,-5.8692,-6.009,-6.1594,-6.3644,-6.5245,-6.6622,-1.8441,-1.9962,-2.1337,-2.2109,-2.2367,-2.2452,-2.2452,-2.2669,-2.2838,-2.2838,-2.3068,-2.3237,-2.3548,-2.3781,-2.411,-2.4269,-2.4405,-2.4652,-2.4811,-2.5289,-2.5594,-2.5753,-2.6228,-2.6386,-2.6386,-2.6533,-2.6533,-2.6386,-2.6533,-2.668,-2.6827,-2.7108,-2.7799,-2.8767,-3.0064,-3.1987,-3.4437,-3.5587,-3.6992,-3.864,-3.864,-3.864,-3.864,-3.864,-3.864,-3.864,-3.864,-3.864,-3.864,-3.864,-3.864,-3.864,-3.864,-3.864,-3.864,-3.864,-3.864,-3.864,-3.864,-3.864,-3.864,-3.864,-3.864,-3.864,-3.864,-3.864,-3.864,-3.8956,-3.8956,-3.9114,-3.9588,-4.0243,-4.1816,-4.4773,-4.599,-4.7706,-5.0942,-5.2009,-5.257,-5.3101,-5.351,-5.3822,-5.3822,-5.3822,-5.3822,-5.3822,-5.3822,-5.3822,-5.3822,-5.3822,-5.3822,-5.3822,-5.3822,-5.3822,-5.3822,-5.3822,-5.3822,-5.3822,-5.3822,-5.4231,-5.5001,-5.5265,-5.5842,-5.6636,-5.69,-5.7021,-5.7021,-5.7021,-5.718,-5.768,-5.8423,-6.0148,-6.2413,-6.4061,-6.5886,-6.765,-1.677,-1.8471,-2.0329,-2.1719,-2.2385,-2.2718,-2.2718,-2.2947,-2.3116,-2.3116,-2.3345,-2.3526,-2.3526,-2.3719,-2.384,-2.384,-2.384,-2.4,-2.4332,-2.4811,-2.513,-2.5594,-2.607,-2.6413,-2.6466,-2.6694,-2.6707,-2.6466,-2.676,-2.6921,-2.6987,-2.7468,-2.7722,-2.7789,-2.9508,-3.1437,-3.356,-3.5025,-3.6654,-3.864,-3.864,-3.864,-3.864,-3.864,-3.864,-3.864,-3.864,-3.864,-3.864,-3.864,-3.864,-3.864,-3.864,-3.864,-3.864,-3.864,-3.864,-3.864,-3.864,-3.864,-3.864,-3.864,-3.864,-3.864,-3.864,-3.864,-3.864,-3.864,-3.864,-3.8658,-3.9207,-4.002,-4.1375,-4.3816,-4.4687,-4.6223,-5.0011,-5.0559,-5.1338,-5.2904,-5.351,-5.3822,-5.3822,-5.3822,-5.3822,-5.3822,-5.3822,-5.3822,-5.3822,-5.3822,-5.3822,-5.3822,-5.3822,-5.3822,-5.3822,-5.3822,-5.3822,-5.3822,-5.3918,-5.4447,-5.5385,-5.5385,-5.5987,-5.7021,-5.7021,-5.7021,-5.7021,-5.7021,-5.718,-5.7497,-5.7971,-6.0329,-6.3538,-6.4581,-6.6622,-6.8828,-1.5242,-1.7827,-2.0266,-2.043,-2.187,-2.2995,-2.2995,-2.3225,-2.3393,-2.3393,-2.3623,-2.3792,-2.3792,-2.3816,-2.384,-2.384,-2.384,-2.384,-2.384,-2.4332,-2.4811,-2.513,-2.5594,-2.6188,-2.676,-2.68,-2.68,-2.676,-2.7054,-2.7335,-2.7575,-2.7655,-2.7829,-2.8083,-2.846,-3.0274,-3.3397,-3.3724,-3.5689,-3.864,-3.864,-3.864,-3.864,-3.864,-3.864,-3.864,-3.864,-3.864,-3.864,-3.864,-3.864,-3.864,-3.864,-3.864,-3.864,-3.864,-3.864,-3.864,-3.864,-3.864,-3.864,-3.864,-3.864,-3.864,-3.864,-3.864,-3.864,-3.864,-3.864,-3.875,-3.9098,-3.9968,-4.1333,-4.394,-4.4661,-4.6248,-4.9904,-5.0559,-5.1338,-5.2904,-5.351,-5.3822,-5.3822,-5.3822,-5.3822,-5.3822,-5.3822,-5.3822,-5.3822,-5.3822,-5.3822,-5.3822,-5.3822,-5.3822,-5.3822,-5.3822,-5.3822,-5.3822,-5.4279,-5.4808,-5.5385,-5.5385,-5.5987,-5.7021,-5.7021,-5.7021,-5.7021,-5.7021,-5.7021,-5.718,-5.7497,-5.9844,-6.3365,-6.6901,-6.8392,-6.8828,-1.4919,-1.6397,-1.7728,-1.8611,-2.0554,-2.1828,-2.1828,-2.2847,-2.3671,-2.3671,-2.3768,-2.384,-2.384,-2.384,-2.384,-2.384,-2.384,-2.384,-2.384,-2.4172,-2.4652,-2.513,-2.5749,-2.62,-2.6827,-2.7148,-2.7308,-2.7308,-2.7442,-2.7575,-2.7696,-2.7869,-2.8016,-2.8136,-2.8136,-2.9621,-3.2098,-3.3069,-3.4213,-3.585,-3.7827,-3.7986,-3.7312,-3.8145,-3.864,-3.864,-3.864,-3.864,-3.864,-3.864,-3.864,-3.864,-3.864,-3.864,-3.864,-3.864,-3.864,-3.864,-3.864,-3.864,-3.864,-3.864,-3.864,-3.864,-3.864,-3.864,-3.864,-3.864,-3.8823,-3.9025,-3.9208,-4.0084,-4.1203,-4.2337,-4.2812,-4.4498,-4.8167,-4.8761,-5.0026,-5.3115,-5.3678,-5.3822,-5.3822,-5.3822,-5.3822,-5.3822,-5.3822,-5.3822,-5.3822,-5.3822,-5.3822,-5.3822,-5.3822,-5.3822,-5.3822,-5.3822,-5.3966,-5.4255,-5.4496,-5.488,-5.5409,-5.5722,-5.6299,-5.7021,-5.7021,-5.7021,-5.7021,-5.7021,-5.7021,-5.7021,-5.7497,-5.9844,-6.3684,-6.7346,-6.8828,-6.8828]}]]